<?xml version="1.0" encoding="UTF-8" standalone="no" ?>
<gpx xmlns="http://www.topografix.com/GPX/1/1" xmlns:xsi="http://www.w3.org/2001/XMLSchema-instance" xsi:schemaLocation="http://www.topografix.com/GPX/1/1 http://www.topografix.com/GPX/1/1/gpx.xsd" version="1.1" creator="VisuGPX - https://www.visugpx.com">
  <metadata>
    <name>2018-06-01 - VTT jusque Saint-Laurent du Pont </name>
    <desc><![CDATA[balade au pied de la Grande Sure. Peu de descentes vraiment sympas mais paysages agréables. ]]></desc>
  </metadata>
  <trk>
    <name><![CDATA[2018-06-01 - VTT jusque Saint-Laurent du Pont]]></name>
    <desc><![CDATA[balade avec Yannick. Gras et sympa, le parcours.]]></desc>
    <trkseg>
      <trkpt lat="45.29996" lon="5.62859">
        <ele>137.61</ele>
        <time>2018-06-01T07:46:03Z</time>
      </trkpt>
      <trkpt lat="45.29995" lon="5.62859">
        <ele>142.41</ele>
        <time>2018-06-01T07:46:06Z</time>
      </trkpt>
      <trkpt lat="45.29995" lon="5.62859">
        <ele>146.74</ele>
        <time>2018-06-01T07:46:08Z</time>
      </trkpt>
      <trkpt lat="45.29995" lon="5.62859">
        <ele>151.06</ele>
        <time>2018-06-01T07:46:10Z</time>
      </trkpt>
      <trkpt lat="45.29995" lon="5.62859">
        <ele>154.91</ele>
        <time>2018-06-01T07:46:12Z</time>
      </trkpt>
      <trkpt lat="45.29994" lon="5.6286">
        <ele>158.27</ele>
        <time>2018-06-01T07:46:14Z</time>
      </trkpt>
      <trkpt lat="45.29994" lon="5.6286">
        <ele>161.64</ele>
        <time>2018-06-01T07:46:16Z</time>
      </trkpt>
      <trkpt lat="45.29993" lon="5.6286">
        <ele>165</ele>
        <time>2018-06-01T07:46:18Z</time>
      </trkpt>
      <trkpt lat="45.29993" lon="5.6286">
        <ele>168.85</ele>
        <time>2018-06-01T07:46:20Z</time>
      </trkpt>
      <trkpt lat="45.29993" lon="5.6286">
        <ele>170.29</ele>
        <time>2018-06-01T07:46:22Z</time>
      </trkpt>
      <trkpt lat="45.29993" lon="5.6286">
        <ele>174.14</ele>
        <time>2018-06-01T07:46:25Z</time>
      </trkpt>
      <trkpt lat="45.29993" lon="5.6286">
        <ele>177.02</ele>
        <time>2018-06-01T07:46:28Z</time>
      </trkpt>
      <trkpt lat="45.29994" lon="5.6286">
        <ele>180.87</ele>
        <time>2018-06-01T07:46:32Z</time>
      </trkpt>
      <trkpt lat="45.29994" lon="5.6286">
        <ele>184.23</ele>
        <time>2018-06-01T07:46:36Z</time>
      </trkpt>
      <trkpt lat="45.29995" lon="5.6286">
        <ele>188.08</ele>
        <time>2018-06-01T07:46:41Z</time>
      </trkpt>
      <trkpt lat="45.29995" lon="5.62861">
        <ele>191.92</ele>
        <time>2018-06-01T07:46:46Z</time>
      </trkpt>
      <trkpt lat="45.29995" lon="5.62861">
        <ele>191.92</ele>
        <time>2018-06-01T07:46:47Z</time>
      </trkpt>
      <trkpt lat="45.29993" lon="5.62861">
        <ele>194.8</ele>
        <time>2018-06-01T07:46:53Z</time>
      </trkpt>
      <trkpt lat="45.29992" lon="5.6286">
        <ele>198.17</ele>
        <time>2018-06-01T07:47:01Z</time>
      </trkpt>
      <trkpt lat="45.29991" lon="5.62858">
        <ele>201.05</ele>
        <time>2018-06-01T07:47:17Z</time>
      </trkpt>
      <trkpt lat="45.29992" lon="5.62859">
        <ele>202.49</ele>
        <time>2018-06-01T07:47:57Z</time>
      </trkpt>
      <trkpt lat="45.29992" lon="5.62859">
        <ele>201.53</ele>
        <time>2018-06-01T07:48:28Z</time>
      </trkpt>
      <trkpt lat="45.29989" lon="5.6286">
        <ele>201.53</ele>
        <time>2018-06-01T07:48:41Z</time>
      </trkpt>
      <trkpt lat="45.2999" lon="5.6286">
        <ele>202.01</ele>
        <time>2018-06-01T07:49:05Z</time>
      </trkpt>
      <trkpt lat="45.29991" lon="5.6286">
        <ele>202.01</ele>
        <time>2018-06-01T07:49:29Z</time>
      </trkpt>
      <trkpt lat="45.29992" lon="5.62862">
        <ele>202.01</ele>
        <time>2018-06-01T07:50:03Z</time>
      </trkpt>
      <trkpt lat="45.29991" lon="5.62861">
        <ele>201.05</ele>
        <time>2018-06-01T07:50:39Z</time>
      </trkpt>
      <trkpt lat="45.29988" lon="5.62862">
        <ele>201.05</ele>
        <time>2018-06-01T07:51:28Z</time>
      </trkpt>
      <trkpt lat="45.29988" lon="5.62861">
        <ele>201.53</ele>
        <time>2018-06-01T07:52:04Z</time>
      </trkpt>
      <trkpt lat="45.29991" lon="5.62858">
        <ele>214.51</ele>
        <time>2018-06-01T07:52:19Z</time>
      </trkpt>
      <trkpt lat="45.29991" lon="5.62858">
        <ele>214.51</ele>
        <time>2018-06-01T07:52:20Z</time>
      </trkpt>
      <trkpt lat="45.29991" lon="5.6286">
        <ele>213.55</ele>
        <time>2018-06-01T07:52:48Z</time>
      </trkpt>
      <trkpt lat="45.29987" lon="5.62855">
        <ele>213.55</ele>
        <time>2018-06-01T07:53:16Z</time>
      </trkpt>
      <trkpt lat="45.29986" lon="5.62842">
        <ele>213.55</ele>
        <time>2018-06-01T07:53:26Z</time>
      </trkpt>
      <trkpt lat="45.29987" lon="5.62857">
        <ele>213.55</ele>
        <time>2018-06-01T07:53:43Z</time>
      </trkpt>
      <trkpt lat="45.29986" lon="5.62855">
        <ele>213.55</ele>
        <time>2018-06-01T07:54:02Z</time>
      </trkpt>
      <trkpt lat="45.29985" lon="5.62862">
        <ele>213.55</ele>
        <time>2018-06-01T07:54:06Z</time>
      </trkpt>
      <trkpt lat="45.29989" lon="5.6286">
        <ele>213.55</ele>
        <time>2018-06-01T07:54:15Z</time>
      </trkpt>
      <trkpt lat="45.29991" lon="5.62859">
        <ele>213.55</ele>
        <time>2018-06-01T07:54:25Z</time>
      </trkpt>
      <trkpt lat="45.29988" lon="5.62861">
        <ele>213.55</ele>
        <time>2018-06-01T07:54:35Z</time>
      </trkpt>
      <trkpt lat="45.29991" lon="5.62859">
        <ele>213.55</ele>
        <time>2018-06-01T07:54:44Z</time>
      </trkpt>
      <trkpt lat="45.29983" lon="5.62855">
        <ele>213.55</ele>
        <time>2018-06-01T07:54:49Z</time>
      </trkpt>
      <trkpt lat="45.29968" lon="5.62856">
        <ele>213.55</ele>
        <time>2018-06-01T07:54:55Z</time>
      </trkpt>
      <trkpt lat="45.29957" lon="5.6286">
        <ele>213.55</ele>
        <time>2018-06-01T07:55:00Z</time>
      </trkpt>
      <trkpt lat="45.29935" lon="5.6283">
        <ele>213.55</ele>
        <time>2018-06-01T07:55:12Z</time>
      </trkpt>
      <trkpt lat="45.2989" lon="5.62835">
        <ele>214.03</ele>
        <time>2018-06-01T07:55:26Z</time>
      </trkpt>
      <trkpt lat="45.2988" lon="5.6284">
        <ele>214.99</ele>
        <time>2018-06-01T07:55:31Z</time>
      </trkpt>
      <trkpt lat="45.29879" lon="5.62842">
        <ele>214.99</ele>
        <time>2018-06-01T07:55:32Z</time>
      </trkpt>
      <trkpt lat="45.29878" lon="5.62846">
        <ele>214.99</ele>
        <time>2018-06-01T07:55:33Z</time>
      </trkpt>
      <trkpt lat="45.29876" lon="5.62849">
        <ele>215.47</ele>
        <time>2018-06-01T07:55:34Z</time>
      </trkpt>
      <trkpt lat="45.29874" lon="5.62852">
        <ele>215.47</ele>
        <time>2018-06-01T07:55:35Z</time>
      </trkpt>
      <trkpt lat="45.29874" lon="5.62856">
        <ele>215.47</ele>
        <time>2018-06-01T07:55:36Z</time>
      </trkpt>
      <trkpt lat="45.29873" lon="5.62861">
        <ele>215.95</ele>
        <time>2018-06-01T07:55:37Z</time>
      </trkpt>
      <trkpt lat="45.29874" lon="5.62865">
        <ele>215.95</ele>
        <time>2018-06-01T07:55:38Z</time>
      </trkpt>
      <trkpt lat="45.29876" lon="5.62944">
        <ele>218.84</ele>
        <time>2018-06-01T07:55:56Z</time>
      </trkpt>
      <trkpt lat="45.29875" lon="5.63017">
        <ele>221.72</ele>
        <time>2018-06-01T07:56:16Z</time>
      </trkpt>
      <trkpt lat="45.29874" lon="5.63093">
        <ele>224.61</ele>
        <time>2018-06-01T07:56:35Z</time>
      </trkpt>
      <trkpt lat="45.29873" lon="5.63153">
        <ele>227.49</ele>
        <time>2018-06-01T07:56:50Z</time>
      </trkpt>
      <trkpt lat="45.29869" lon="5.63212">
        <ele>230.85</ele>
        <time>2018-06-01T07:57:06Z</time>
      </trkpt>
      <trkpt lat="45.29854" lon="5.63261">
        <ele>233.74</ele>
        <time>2018-06-01T07:57:21Z</time>
      </trkpt>
      <trkpt lat="45.29844" lon="5.63317">
        <ele>236.14</ele>
        <time>2018-06-01T07:57:36Z</time>
      </trkpt>
      <trkpt lat="45.29838" lon="5.63367">
        <ele>239.02</ele>
        <time>2018-06-01T07:57:49Z</time>
      </trkpt>
      <trkpt lat="45.29828" lon="5.63429">
        <ele>242.39</ele>
        <time>2018-06-01T07:58:05Z</time>
      </trkpt>
      <trkpt lat="45.29825" lon="5.63468">
        <ele>244.79</ele>
        <time>2018-06-01T07:58:21Z</time>
      </trkpt>
      <trkpt lat="45.29823" lon="5.63473">
        <ele>245.27</ele>
        <time>2018-06-01T07:58:25Z</time>
      </trkpt>
      <trkpt lat="45.29819" lon="5.63477">
        <ele>245.75</ele>
        <time>2018-06-01T07:58:36Z</time>
      </trkpt>
      <trkpt lat="45.29823" lon="5.63479">
        <ele>245.75</ele>
        <time>2018-06-01T07:59:06Z</time>
      </trkpt>
      <trkpt lat="45.29825" lon="5.63481">
        <ele>245.75</ele>
        <time>2018-06-01T07:59:38Z</time>
      </trkpt>
      <trkpt lat="45.29823" lon="5.63485">
        <ele>245.75</ele>
        <time>2018-06-01T07:59:49Z</time>
      </trkpt>
      <trkpt lat="45.29818" lon="5.63507">
        <ele>247.2</ele>
        <time>2018-06-01T08:00:05Z</time>
      </trkpt>
      <trkpt lat="45.29818" lon="5.63513">
        <ele>248.16</ele>
        <time>2018-06-01T08:00:19Z</time>
      </trkpt>
      <trkpt lat="45.29816" lon="5.63514">
        <ele>246.72</ele>
        <time>2018-06-01T08:00:37Z</time>
      </trkpt>
      <trkpt lat="45.29809" lon="5.63516">
        <ele>247.68</ele>
        <time>2018-06-01T08:01:18Z</time>
      </trkpt>
      <trkpt lat="45.29808" lon="5.63521">
        <ele>247.68</ele>
        <time>2018-06-01T08:02:00Z</time>
      </trkpt>
      <trkpt lat="45.29808" lon="5.63517">
        <ele>247.68</ele>
        <time>2018-06-01T08:02:35Z</time>
      </trkpt>
      <trkpt lat="45.29812" lon="5.63512">
        <ele>247.68</ele>
        <time>2018-06-01T08:03:03Z</time>
      </trkpt>
      <trkpt lat="45.2981" lon="5.63517">
        <ele>247.68</ele>
        <time>2018-06-01T08:03:24Z</time>
      </trkpt>
      <trkpt lat="45.2981" lon="5.63518">
        <ele>247.68</ele>
        <time>2018-06-01T08:03:53Z</time>
      </trkpt>
      <trkpt lat="45.29813" lon="5.63519">
        <ele>247.68</ele>
        <time>2018-06-01T08:04:29Z</time>
      </trkpt>
      <trkpt lat="45.29812" lon="5.6354">
        <ele>248.64</ele>
        <time>2018-06-01T08:04:47Z</time>
      </trkpt>
      <trkpt lat="45.29809" lon="5.63553">
        <ele>249.6</ele>
        <time>2018-06-01T08:04:57Z</time>
      </trkpt>
      <trkpt lat="45.29803" lon="5.63571">
        <ele>250.08</ele>
        <time>2018-06-01T08:05:10Z</time>
      </trkpt>
      <trkpt lat="45.29801" lon="5.63588">
        <ele>251.04</ele>
        <time>2018-06-01T08:05:21Z</time>
      </trkpt>
      <trkpt lat="45.29802" lon="5.63596">
        <ele>251.04</ele>
        <time>2018-06-01T08:05:26Z</time>
      </trkpt>
      <trkpt lat="45.29801" lon="5.63615">
        <ele>252.48</ele>
        <time>2018-06-01T08:05:42Z</time>
      </trkpt>
      <trkpt lat="45.29787" lon="5.63631">
        <ele>252.96</ele>
        <time>2018-06-01T08:06:00Z</time>
      </trkpt>
      <trkpt lat="45.29782" lon="5.63633">
        <ele>252.96</ele>
        <time>2018-06-01T08:06:05Z</time>
      </trkpt>
      <trkpt lat="45.29779" lon="5.63638">
        <ele>252.96</ele>
        <time>2018-06-01T08:06:09Z</time>
      </trkpt>
      <trkpt lat="45.29777" lon="5.6364">
        <ele>252.96</ele>
        <time>2018-06-01T08:06:11Z</time>
      </trkpt>
      <trkpt lat="45.29778" lon="5.63649">
        <ele>253.44</ele>
        <time>2018-06-01T08:06:26Z</time>
      </trkpt>
      <trkpt lat="45.2978" lon="5.6365">
        <ele>253.44</ele>
        <time>2018-06-01T08:06:29Z</time>
      </trkpt>
      <trkpt lat="45.29785" lon="5.63651">
        <ele>253.44</ele>
        <time>2018-06-01T08:06:32Z</time>
      </trkpt>
      <trkpt lat="45.29788" lon="5.63654">
        <ele>253.44</ele>
        <time>2018-06-01T08:06:34Z</time>
      </trkpt>
      <trkpt lat="45.2979" lon="5.63656">
        <ele>253.44</ele>
        <time>2018-06-01T08:06:35Z</time>
      </trkpt>
      <trkpt lat="45.2982" lon="5.63688">
        <ele>254.89</ele>
        <time>2018-06-01T08:06:49Z</time>
      </trkpt>
      <trkpt lat="45.29852" lon="5.63751">
        <ele>257.77</ele>
        <time>2018-06-01T08:07:07Z</time>
      </trkpt>
      <trkpt lat="45.29893" lon="5.63808">
        <ele>261.14</ele>
        <time>2018-06-01T08:07:26Z</time>
      </trkpt>
      <trkpt lat="45.29933" lon="5.63815">
        <ele>264.02</ele>
        <time>2018-06-01T08:07:39Z</time>
      </trkpt>
      <trkpt lat="45.29969" lon="5.63814">
        <ele>267.38</ele>
        <time>2018-06-01T08:07:51Z</time>
      </trkpt>
      <trkpt lat="45.30015" lon="5.63805">
        <ele>270.27</ele>
        <time>2018-06-01T08:08:05Z</time>
      </trkpt>
      <trkpt lat="45.30055" lon="5.63812">
        <ele>273.63</ele>
        <time>2018-06-01T08:08:19Z</time>
      </trkpt>
      <trkpt lat="45.30088" lon="5.63819">
        <ele>276.52</ele>
        <time>2018-06-01T08:08:31Z</time>
      </trkpt>
      <trkpt lat="45.30129" lon="5.63824">
        <ele>279.88</ele>
        <time>2018-06-01T08:08:45Z</time>
      </trkpt>
      <trkpt lat="45.30167" lon="5.63831">
        <ele>283.25</ele>
        <time>2018-06-01T08:08:58Z</time>
      </trkpt>
      <trkpt lat="45.3021" lon="5.63844">
        <ele>286.61</ele>
        <time>2018-06-01T08:09:15Z</time>
      </trkpt>
      <trkpt lat="45.30232" lon="5.63853">
        <ele>289.49</ele>
        <time>2018-06-01T08:09:24Z</time>
      </trkpt>
      <trkpt lat="45.30235" lon="5.63854">
        <ele>289.49</ele>
        <time>2018-06-01T08:09:25Z</time>
      </trkpt>
      <trkpt lat="45.30276" lon="5.63875">
        <ele>291.9</ele>
        <time>2018-06-01T08:09:43Z</time>
      </trkpt>
      <trkpt lat="45.3028" lon="5.6389">
        <ele>291.9</ele>
        <time>2018-06-01T08:09:47Z</time>
      </trkpt>
      <trkpt lat="45.30303" lon="5.6395">
        <ele>293.82</ele>
        <time>2018-06-01T08:10:02Z</time>
      </trkpt>
      <trkpt lat="45.30327" lon="5.63999">
        <ele>296.7</ele>
        <time>2018-06-01T08:10:16Z</time>
      </trkpt>
      <trkpt lat="45.30346" lon="5.64048">
        <ele>300.07</ele>
        <time>2018-06-01T08:10:30Z</time>
      </trkpt>
      <trkpt lat="45.30364" lon="5.64104">
        <ele>303.43</ele>
        <time>2018-06-01T08:10:46Z</time>
      </trkpt>
      <trkpt lat="45.30379" lon="5.64151">
        <ele>306.8</ele>
        <time>2018-06-01T08:10:59Z</time>
      </trkpt>
      <trkpt lat="45.30398" lon="5.64183">
        <ele>310.16</ele>
        <time>2018-06-01T08:11:12Z</time>
      </trkpt>
      <trkpt lat="45.30428" lon="5.64209">
        <ele>313.05</ele>
        <time>2018-06-01T08:11:27Z</time>
      </trkpt>
      <trkpt lat="45.30456" lon="5.64236">
        <ele>315.45</ele>
        <time>2018-06-01T08:11:42Z</time>
      </trkpt>
      <trkpt lat="45.30478" lon="5.64265">
        <ele>317.37</ele>
        <time>2018-06-01T08:11:55Z</time>
      </trkpt>
      <trkpt lat="45.30503" lon="5.64291">
        <ele>320.74</ele>
        <time>2018-06-01T08:12:08Z</time>
      </trkpt>
      <trkpt lat="45.30517" lon="5.64312">
        <ele>322.66</ele>
        <time>2018-06-01T08:12:18Z</time>
      </trkpt>
      <trkpt lat="45.30537" lon="5.6434">
        <ele>324.58</ele>
        <time>2018-06-01T08:12:31Z</time>
      </trkpt>
      <trkpt lat="45.30557" lon="5.64372">
        <ele>327.47</ele>
        <time>2018-06-01T08:12:44Z</time>
      </trkpt>
      <trkpt lat="45.30573" lon="5.64403">
        <ele>330.35</ele>
        <time>2018-06-01T08:12:55Z</time>
      </trkpt>
      <trkpt lat="45.3058" lon="5.64414">
        <ele>330.83</ele>
        <time>2018-06-01T08:13:01Z</time>
      </trkpt>
      <trkpt lat="45.30581" lon="5.64416">
        <ele>330.83</ele>
        <time>2018-06-01T08:13:02Z</time>
      </trkpt>
      <trkpt lat="45.30583" lon="5.64418">
        <ele>331.31</ele>
        <time>2018-06-01T08:13:03Z</time>
      </trkpt>
      <trkpt lat="45.30605" lon="5.6444">
        <ele>334.2</ele>
        <time>2018-06-01T08:13:16Z</time>
      </trkpt>
      <trkpt lat="45.30609" lon="5.64446">
        <ele>335.16</ele>
        <time>2018-06-01T08:13:19Z</time>
      </trkpt>
      <trkpt lat="45.3061" lon="5.64447">
        <ele>335.16</ele>
        <time>2018-06-01T08:13:20Z</time>
      </trkpt>
      <trkpt lat="45.30631" lon="5.64455">
        <ele>338.52</ele>
        <time>2018-06-01T08:13:31Z</time>
      </trkpt>
      <trkpt lat="45.30643" lon="5.64466">
        <ele>339.48</ele>
        <time>2018-06-01T08:13:37Z</time>
      </trkpt>
      <trkpt lat="45.30645" lon="5.64467">
        <ele>339.48</ele>
        <time>2018-06-01T08:13:38Z</time>
      </trkpt>
      <trkpt lat="45.30647" lon="5.64469">
        <ele>339.48</ele>
        <time>2018-06-01T08:13:39Z</time>
      </trkpt>
      <trkpt lat="45.30649" lon="5.6447">
        <ele>340.44</ele>
        <time>2018-06-01T08:13:40Z</time>
      </trkpt>
      <trkpt lat="45.30651" lon="5.64471">
        <ele>340.44</ele>
        <time>2018-06-01T08:13:41Z</time>
      </trkpt>
      <trkpt lat="45.30654" lon="5.64474">
        <ele>340.44</ele>
        <time>2018-06-01T08:13:43Z</time>
      </trkpt>
      <trkpt lat="45.30656" lon="5.64474">
        <ele>340.44</ele>
        <time>2018-06-01T08:13:44Z</time>
      </trkpt>
      <trkpt lat="45.30658" lon="5.64475">
        <ele>341.41</ele>
        <time>2018-06-01T08:13:45Z</time>
      </trkpt>
      <trkpt lat="45.3066" lon="5.64477">
        <ele>341.41</ele>
        <time>2018-06-01T08:13:46Z</time>
      </trkpt>
      <trkpt lat="45.30662" lon="5.64478">
        <ele>341.41</ele>
        <time>2018-06-01T08:13:47Z</time>
      </trkpt>
      <trkpt lat="45.30691" lon="5.64502">
        <ele>343.81</ele>
        <time>2018-06-01T08:14:01Z</time>
      </trkpt>
      <trkpt lat="45.30706" lon="5.6452">
        <ele>345.73</ele>
        <time>2018-06-01T08:14:10Z</time>
      </trkpt>
      <trkpt lat="45.30708" lon="5.64521">
        <ele>345.73</ele>
        <time>2018-06-01T08:14:11Z</time>
      </trkpt>
      <trkpt lat="45.3071" lon="5.64523">
        <ele>345.73</ele>
        <time>2018-06-01T08:14:12Z</time>
      </trkpt>
      <trkpt lat="45.30712" lon="5.64525">
        <ele>345.73</ele>
        <time>2018-06-01T08:14:13Z</time>
      </trkpt>
      <trkpt lat="45.30714" lon="5.64528">
        <ele>346.21</ele>
        <time>2018-06-01T08:14:14Z</time>
      </trkpt>
      <trkpt lat="45.30716" lon="5.6453">
        <ele>346.21</ele>
        <time>2018-06-01T08:14:15Z</time>
      </trkpt>
      <trkpt lat="45.30718" lon="5.64532">
        <ele>346.21</ele>
        <time>2018-06-01T08:14:16Z</time>
      </trkpt>
      <trkpt lat="45.3072" lon="5.64535">
        <ele>346.69</ele>
        <time>2018-06-01T08:14:17Z</time>
      </trkpt>
      <trkpt lat="45.30721" lon="5.64537">
        <ele>346.69</ele>
        <time>2018-06-01T08:14:18Z</time>
      </trkpt>
      <trkpt lat="45.30724" lon="5.6454">
        <ele>346.69</ele>
        <time>2018-06-01T08:14:19Z</time>
      </trkpt>
      <trkpt lat="45.30726" lon="5.64541">
        <ele>347.65</ele>
        <time>2018-06-01T08:14:20Z</time>
      </trkpt>
      <trkpt lat="45.30728" lon="5.64543">
        <ele>347.65</ele>
        <time>2018-06-01T08:14:21Z</time>
      </trkpt>
      <trkpt lat="45.30741" lon="5.64553">
        <ele>349.1</ele>
        <time>2018-06-01T08:14:27Z</time>
      </trkpt>
      <trkpt lat="45.30742" lon="5.64555">
        <ele>349.1</ele>
        <time>2018-06-01T08:14:28Z</time>
      </trkpt>
      <trkpt lat="45.30744" lon="5.64557">
        <ele>349.58</ele>
        <time>2018-06-01T08:14:29Z</time>
      </trkpt>
      <trkpt lat="45.30746" lon="5.6456">
        <ele>349.58</ele>
        <time>2018-06-01T08:14:30Z</time>
      </trkpt>
      <trkpt lat="45.30747" lon="5.64562">
        <ele>350.06</ele>
        <time>2018-06-01T08:14:31Z</time>
      </trkpt>
      <trkpt lat="45.30756" lon="5.64585">
        <ele>351.5</ele>
        <time>2018-06-01T08:14:39Z</time>
      </trkpt>
      <trkpt lat="45.30757" lon="5.64587">
        <ele>351.98</ele>
        <time>2018-06-01T08:14:40Z</time>
      </trkpt>
      <trkpt lat="45.30757" lon="5.6459">
        <ele>351.98</ele>
        <time>2018-06-01T08:14:41Z</time>
      </trkpt>
      <trkpt lat="45.30758" lon="5.64593">
        <ele>351.98</ele>
        <time>2018-06-01T08:14:42Z</time>
      </trkpt>
      <trkpt lat="45.30758" lon="5.64595">
        <ele>352.46</ele>
        <time>2018-06-01T08:14:43Z</time>
      </trkpt>
      <trkpt lat="45.30759" lon="5.64598">
        <ele>352.46</ele>
        <time>2018-06-01T08:14:44Z</time>
      </trkpt>
      <trkpt lat="45.3076" lon="5.64601">
        <ele>352.94</ele>
        <time>2018-06-01T08:14:45Z</time>
      </trkpt>
      <trkpt lat="45.3076" lon="5.64604">
        <ele>352.94</ele>
        <time>2018-06-01T08:14:46Z</time>
      </trkpt>
      <trkpt lat="45.30761" lon="5.64607">
        <ele>352.94</ele>
        <time>2018-06-01T08:14:47Z</time>
      </trkpt>
      <trkpt lat="45.30762" lon="5.6461">
        <ele>353.42</ele>
        <time>2018-06-01T08:14:48Z</time>
      </trkpt>
      <trkpt lat="45.30763" lon="5.64614">
        <ele>353.42</ele>
        <time>2018-06-01T08:14:49Z</time>
      </trkpt>
      <trkpt lat="45.30765" lon="5.64617">
        <ele>353.9</ele>
        <time>2018-06-01T08:14:50Z</time>
      </trkpt>
      <trkpt lat="45.30766" lon="5.64621">
        <ele>353.9</ele>
        <time>2018-06-01T08:14:51Z</time>
      </trkpt>
      <trkpt lat="45.30766" lon="5.64623">
        <ele>354.38</ele>
        <time>2018-06-01T08:14:52Z</time>
      </trkpt>
      <trkpt lat="45.30767" lon="5.64625">
        <ele>354.38</ele>
        <time>2018-06-01T08:14:53Z</time>
      </trkpt>
      <trkpt lat="45.30768" lon="5.64628">
        <ele>354.86</ele>
        <time>2018-06-01T08:14:54Z</time>
      </trkpt>
      <trkpt lat="45.3077" lon="5.64631">
        <ele>354.86</ele>
        <time>2018-06-01T08:14:55Z</time>
      </trkpt>
      <trkpt lat="45.30794" lon="5.64652">
        <ele>358.23</ele>
        <time>2018-06-01T08:15:10Z</time>
      </trkpt>
      <trkpt lat="45.30823" lon="5.6467">
        <ele>360.15</ele>
        <time>2018-06-01T08:15:23Z</time>
      </trkpt>
      <trkpt lat="45.30841" lon="5.6471">
        <ele>363.52</ele>
        <time>2018-06-01T08:15:38Z</time>
      </trkpt>
      <trkpt lat="45.30862" lon="5.6474">
        <ele>366.4</ele>
        <time>2018-06-01T08:15:52Z</time>
      </trkpt>
      <trkpt lat="45.30868" lon="5.64775">
        <ele>369.28</ele>
        <time>2018-06-01T08:16:03Z</time>
      </trkpt>
      <trkpt lat="45.30869" lon="5.64777">
        <ele>369.76</ele>
        <time>2018-06-01T08:16:04Z</time>
      </trkpt>
      <trkpt lat="45.3087" lon="5.6478">
        <ele>369.76</ele>
        <time>2018-06-01T08:16:05Z</time>
      </trkpt>
      <trkpt lat="45.30872" lon="5.64782">
        <ele>370.24</ele>
        <time>2018-06-01T08:16:06Z</time>
      </trkpt>
      <trkpt lat="45.30873" lon="5.64784">
        <ele>370.73</ele>
        <time>2018-06-01T08:16:07Z</time>
      </trkpt>
      <trkpt lat="45.30896" lon="5.64809">
        <ele>374.09</ele>
        <time>2018-06-01T08:16:19Z</time>
      </trkpt>
      <trkpt lat="45.30897" lon="5.64812">
        <ele>374.09</ele>
        <time>2018-06-01T08:16:20Z</time>
      </trkpt>
      <trkpt lat="45.30897" lon="5.64815">
        <ele>374.57</ele>
        <time>2018-06-01T08:16:21Z</time>
      </trkpt>
      <trkpt lat="45.30895" lon="5.64819">
        <ele>374.57</ele>
        <time>2018-06-01T08:16:22Z</time>
      </trkpt>
      <trkpt lat="45.30894" lon="5.64823">
        <ele>375.05</ele>
        <time>2018-06-01T08:16:23Z</time>
      </trkpt>
      <trkpt lat="45.30893" lon="5.64827">
        <ele>375.05</ele>
        <time>2018-06-01T08:16:24Z</time>
      </trkpt>
      <trkpt lat="45.30892" lon="5.64831">
        <ele>375.53</ele>
        <time>2018-06-01T08:16:25Z</time>
      </trkpt>
      <trkpt lat="45.30891" lon="5.64834">
        <ele>375.53</ele>
        <time>2018-06-01T08:16:26Z</time>
      </trkpt>
      <trkpt lat="45.30891" lon="5.64836">
        <ele>375.53</ele>
        <time>2018-06-01T08:16:27Z</time>
      </trkpt>
      <trkpt lat="45.3089" lon="5.64846">
        <ele>376.97</ele>
        <time>2018-06-01T08:16:31Z</time>
      </trkpt>
      <trkpt lat="45.30887" lon="5.64852">
        <ele>377.45</ele>
        <time>2018-06-01T08:16:34Z</time>
      </trkpt>
      <trkpt lat="45.30883" lon="5.64883">
        <ele>380.34</ele>
        <time>2018-06-01T08:16:46Z</time>
      </trkpt>
      <trkpt lat="45.30866" lon="5.64931">
        <ele>383.22</ele>
        <time>2018-06-01T08:17:02Z</time>
      </trkpt>
      <trkpt lat="45.30866" lon="5.64933">
        <ele>383.22</ele>
        <time>2018-06-01T08:17:03Z</time>
      </trkpt>
      <trkpt lat="45.30866" lon="5.64936">
        <ele>383.7</ele>
        <time>2018-06-01T08:17:04Z</time>
      </trkpt>
      <trkpt lat="45.30867" lon="5.64938">
        <ele>383.7</ele>
        <time>2018-06-01T08:17:05Z</time>
      </trkpt>
      <trkpt lat="45.30867" lon="5.64941">
        <ele>384.18</ele>
        <time>2018-06-01T08:17:06Z</time>
      </trkpt>
      <trkpt lat="45.30866" lon="5.64944">
        <ele>384.18</ele>
        <time>2018-06-01T08:17:07Z</time>
      </trkpt>
      <trkpt lat="45.30866" lon="5.64947">
        <ele>384.18</ele>
        <time>2018-06-01T08:17:08Z</time>
      </trkpt>
      <trkpt lat="45.30865" lon="5.64961">
        <ele>385.63</ele>
        <time>2018-06-01T08:17:14Z</time>
      </trkpt>
      <trkpt lat="45.30864" lon="5.64963">
        <ele>386.11</ele>
        <time>2018-06-01T08:17:15Z</time>
      </trkpt>
      <trkpt lat="45.30864" lon="5.64965">
        <ele>386.11</ele>
        <time>2018-06-01T08:17:16Z</time>
      </trkpt>
      <trkpt lat="45.30865" lon="5.64972">
        <ele>386.59</ele>
        <time>2018-06-01T08:17:19Z</time>
      </trkpt>
      <trkpt lat="45.30866" lon="5.64974">
        <ele>386.59</ele>
        <time>2018-06-01T08:17:20Z</time>
      </trkpt>
      <trkpt lat="45.30868" lon="5.64981">
        <ele>387.55</ele>
        <time>2018-06-01T08:17:24Z</time>
      </trkpt>
      <trkpt lat="45.30868" lon="5.64983">
        <ele>387.55</ele>
        <time>2018-06-01T08:17:25Z</time>
      </trkpt>
      <trkpt lat="45.30869" lon="5.64985">
        <ele>387.55</ele>
        <time>2018-06-01T08:17:26Z</time>
      </trkpt>
      <trkpt lat="45.30869" lon="5.64986">
        <ele>388.51</ele>
        <time>2018-06-01T08:17:27Z</time>
      </trkpt>
      <trkpt lat="45.3087" lon="5.64988">
        <ele>388.51</ele>
        <time>2018-06-01T08:17:28Z</time>
      </trkpt>
      <trkpt lat="45.30871" lon="5.6499">
        <ele>388.51</ele>
        <time>2018-06-01T08:17:29Z</time>
      </trkpt>
      <trkpt lat="45.30885" lon="5.65029">
        <ele>391.87</ele>
        <time>2018-06-01T08:17:45Z</time>
      </trkpt>
      <trkpt lat="45.30893" lon="5.65052">
        <ele>393.8</ele>
        <time>2018-06-01T08:17:55Z</time>
      </trkpt>
      <trkpt lat="45.30893" lon="5.65053">
        <ele>393.8</ele>
        <time>2018-06-01T08:17:56Z</time>
      </trkpt>
      <trkpt lat="45.30894" lon="5.65055">
        <ele>393.8</ele>
        <time>2018-06-01T08:17:57Z</time>
      </trkpt>
      <trkpt lat="45.30896" lon="5.65058">
        <ele>394.76</ele>
        <time>2018-06-01T08:17:58Z</time>
      </trkpt>
      <trkpt lat="45.30896" lon="5.6506">
        <ele>394.76</ele>
        <time>2018-06-01T08:17:59Z</time>
      </trkpt>
      <trkpt lat="45.30897" lon="5.65062">
        <ele>395.24</ele>
        <time>2018-06-01T08:18:00Z</time>
      </trkpt>
      <trkpt lat="45.30898" lon="5.65064">
        <ele>395.24</ele>
        <time>2018-06-01T08:18:01Z</time>
      </trkpt>
      <trkpt lat="45.30899" lon="5.65066">
        <ele>395.24</ele>
        <time>2018-06-01T08:18:02Z</time>
      </trkpt>
      <trkpt lat="45.30901" lon="5.65068">
        <ele>395.24</ele>
        <time>2018-06-01T08:18:03Z</time>
      </trkpt>
      <trkpt lat="45.30902" lon="5.6507">
        <ele>395.72</ele>
        <time>2018-06-01T08:18:04Z</time>
      </trkpt>
      <trkpt lat="45.30904" lon="5.65072">
        <ele>395.72</ele>
        <time>2018-06-01T08:18:05Z</time>
      </trkpt>
      <trkpt lat="45.30911" lon="5.65084">
        <ele>396.2</ele>
        <time>2018-06-01T08:18:11Z</time>
      </trkpt>
      <trkpt lat="45.30913" lon="5.65085">
        <ele>396.2</ele>
        <time>2018-06-01T08:18:12Z</time>
      </trkpt>
      <trkpt lat="45.3092" lon="5.6509">
        <ele>396.2</ele>
        <time>2018-06-01T08:18:16Z</time>
      </trkpt>
      <trkpt lat="45.30921" lon="5.65092">
        <ele>396.2</ele>
        <time>2018-06-01T08:18:17Z</time>
      </trkpt>
      <trkpt lat="45.30951" lon="5.65109">
        <ele>398.6</ele>
        <time>2018-06-01T08:18:32Z</time>
      </trkpt>
      <trkpt lat="45.3096" lon="5.65119">
        <ele>399.57</ele>
        <time>2018-06-01T08:18:38Z</time>
      </trkpt>
      <trkpt lat="45.3096" lon="5.6512">
        <ele>399.57</ele>
        <time>2018-06-01T08:18:39Z</time>
      </trkpt>
      <trkpt lat="45.30963" lon="5.65131">
        <ele>400.53</ele>
        <time>2018-06-01T08:18:44Z</time>
      </trkpt>
      <trkpt lat="45.30964" lon="5.65133">
        <ele>401.01</ele>
        <time>2018-06-01T08:18:45Z</time>
      </trkpt>
      <trkpt lat="45.30968" lon="5.65164">
        <ele>403.41</ele>
        <time>2018-06-01T08:19:01Z</time>
      </trkpt>
      <trkpt lat="45.30968" lon="5.65168">
        <ele>403.89</ele>
        <time>2018-06-01T08:19:03Z</time>
      </trkpt>
      <trkpt lat="45.30966" lon="5.65186">
        <ele>405.33</ele>
        <time>2018-06-01T08:19:13Z</time>
      </trkpt>
      <trkpt lat="45.30964" lon="5.652">
        <ele>406.77</ele>
        <time>2018-06-01T08:19:19Z</time>
      </trkpt>
      <trkpt lat="45.30964" lon="5.65206">
        <ele>406.77</ele>
        <time>2018-06-01T08:19:21Z</time>
      </trkpt>
      <trkpt lat="45.30962" lon="5.65209">
        <ele>407.26</ele>
        <time>2018-06-01T08:19:23Z</time>
      </trkpt>
      <trkpt lat="45.30954" lon="5.65244">
        <ele>409.66</ele>
        <time>2018-06-01T08:19:40Z</time>
      </trkpt>
      <trkpt lat="45.30944" lon="5.6527">
        <ele>412.06</ele>
        <time>2018-06-01T08:19:53Z</time>
      </trkpt>
      <trkpt lat="45.30941" lon="5.6528">
        <ele>412.54</ele>
        <time>2018-06-01T08:19:57Z</time>
      </trkpt>
      <trkpt lat="45.3094" lon="5.65284">
        <ele>413.02</ele>
        <time>2018-06-01T08:19:59Z</time>
      </trkpt>
      <trkpt lat="45.30937" lon="5.65293">
        <ele>413.98</ele>
        <time>2018-06-01T08:20:03Z</time>
      </trkpt>
      <trkpt lat="45.30935" lon="5.65307">
        <ele>414.95</ele>
        <time>2018-06-01T08:20:09Z</time>
      </trkpt>
      <trkpt lat="45.30933" lon="5.65318">
        <ele>416.39</ele>
        <time>2018-06-01T08:20:14Z</time>
      </trkpt>
      <trkpt lat="45.30934" lon="5.65344">
        <ele>419.27</ele>
        <time>2018-06-01T08:20:30Z</time>
      </trkpt>
      <trkpt lat="45.30932" lon="5.65351">
        <ele>420.23</ele>
        <time>2018-06-01T08:20:34Z</time>
      </trkpt>
      <trkpt lat="45.30929" lon="5.6536">
        <ele>421.19</ele>
        <time>2018-06-01T08:20:38Z</time>
      </trkpt>
      <trkpt lat="45.30926" lon="5.65393">
        <ele>424.56</ele>
        <time>2018-06-01T08:20:53Z</time>
      </trkpt>
      <trkpt lat="45.30924" lon="5.65397">
        <ele>425.52</ele>
        <time>2018-06-01T08:20:56Z</time>
      </trkpt>
      <trkpt lat="45.30917" lon="5.65427">
        <ele>428.4</ele>
        <time>2018-06-01T08:21:13Z</time>
      </trkpt>
      <trkpt lat="45.30917" lon="5.65431">
        <ele>428.89</ele>
        <time>2018-06-01T08:21:15Z</time>
      </trkpt>
      <trkpt lat="45.30918" lon="5.6545">
        <ele>430.81</ele>
        <time>2018-06-01T08:21:26Z</time>
      </trkpt>
      <trkpt lat="45.3092" lon="5.65469">
        <ele>433.21</ele>
        <time>2018-06-01T08:21:37Z</time>
      </trkpt>
      <trkpt lat="45.30919" lon="5.65479">
        <ele>434.65</ele>
        <time>2018-06-01T08:21:42Z</time>
      </trkpt>
      <trkpt lat="45.30911" lon="5.65495">
        <ele>437.06</ele>
        <time>2018-06-01T08:21:56Z</time>
      </trkpt>
      <trkpt lat="45.30907" lon="5.65507">
        <ele>439.94</ele>
        <time>2018-06-01T08:22:09Z</time>
      </trkpt>
      <trkpt lat="45.30905" lon="5.65516">
        <ele>441.38</ele>
        <time>2018-06-01T08:22:15Z</time>
      </trkpt>
      <trkpt lat="45.30904" lon="5.65529">
        <ele>442.82</ele>
        <time>2018-06-01T08:22:22Z</time>
      </trkpt>
      <trkpt lat="45.30905" lon="5.65548">
        <ele>446.19</ele>
        <time>2018-06-01T08:22:33Z</time>
      </trkpt>
      <trkpt lat="45.30907" lon="5.65556">
        <ele>447.63</ele>
        <time>2018-06-01T08:22:47Z</time>
      </trkpt>
      <trkpt lat="45.30911" lon="5.65558">
        <ele>449.07</ele>
        <time>2018-06-01T08:23:03Z</time>
      </trkpt>
      <trkpt lat="45.30917" lon="5.65558">
        <ele>451.48</ele>
        <time>2018-06-01T08:23:20Z</time>
      </trkpt>
      <trkpt lat="45.30924" lon="5.65554">
        <ele>453.4</ele>
        <time>2018-06-01T08:23:39Z</time>
      </trkpt>
      <trkpt lat="45.30932" lon="5.65551">
        <ele>456.28</ele>
        <time>2018-06-01T08:23:54Z</time>
      </trkpt>
      <trkpt lat="45.30935" lon="5.65549">
        <ele>457.24</ele>
        <time>2018-06-01T08:24:12Z</time>
      </trkpt>
      <trkpt lat="45.30947" lon="5.65538">
        <ele>459.17</ele>
        <time>2018-06-01T08:24:29Z</time>
      </trkpt>
      <trkpt lat="45.30966" lon="5.65533">
        <ele>462.53</ele>
        <time>2018-06-01T08:24:46Z</time>
      </trkpt>
      <trkpt lat="45.30976" lon="5.65526">
        <ele>464.93</ele>
        <time>2018-06-01T08:24:59Z</time>
      </trkpt>
      <trkpt lat="45.30988" lon="5.65522">
        <ele>467.82</ele>
        <time>2018-06-01T08:25:13Z</time>
      </trkpt>
      <trkpt lat="45.31" lon="5.65513">
        <ele>470.22</ele>
        <time>2018-06-01T08:25:27Z</time>
      </trkpt>
      <trkpt lat="45.31017" lon="5.655">
        <ele>473.11</ele>
        <time>2018-06-01T08:25:43Z</time>
      </trkpt>
      <trkpt lat="45.31023" lon="5.65495">
        <ele>474.07</ele>
        <time>2018-06-01T08:25:50Z</time>
      </trkpt>
      <trkpt lat="45.31038" lon="5.65481">
        <ele>476.47</ele>
        <time>2018-06-01T08:26:05Z</time>
      </trkpt>
      <trkpt lat="45.31044" lon="5.65477">
        <ele>477.91</ele>
        <time>2018-06-01T08:26:11Z</time>
      </trkpt>
      <trkpt lat="45.3105" lon="5.65475">
        <ele>478.87</ele>
        <time>2018-06-01T08:26:16Z</time>
      </trkpt>
      <trkpt lat="45.31057" lon="5.65473">
        <ele>479.35</ele>
        <time>2018-06-01T08:26:19Z</time>
      </trkpt>
      <trkpt lat="45.3108" lon="5.65474">
        <ele>481.76</ele>
        <time>2018-06-01T08:26:35Z</time>
      </trkpt>
      <trkpt lat="45.31092" lon="5.65473">
        <ele>483.68</ele>
        <time>2018-06-01T08:26:44Z</time>
      </trkpt>
      <trkpt lat="45.31097" lon="5.65473">
        <ele>484.16</ele>
        <time>2018-06-01T08:26:47Z</time>
      </trkpt>
      <trkpt lat="45.31111" lon="5.65473">
        <ele>485.12</ele>
        <time>2018-06-01T08:26:57Z</time>
      </trkpt>
      <trkpt lat="45.31135" lon="5.65486">
        <ele>487.53</ele>
        <time>2018-06-01T08:27:16Z</time>
      </trkpt>
      <trkpt lat="45.31154" lon="5.65502">
        <ele>490.41</ele>
        <time>2018-06-01T08:27:34Z</time>
      </trkpt>
      <trkpt lat="45.31162" lon="5.65511">
        <ele>490.89</ele>
        <time>2018-06-01T08:27:41Z</time>
      </trkpt>
      <trkpt lat="45.31176" lon="5.65531">
        <ele>492.33</ele>
        <time>2018-06-01T08:28:01Z</time>
      </trkpt>
      <trkpt lat="45.31178" lon="5.65533">
        <ele>492.33</ele>
        <time>2018-06-01T08:28:03Z</time>
      </trkpt>
      <trkpt lat="45.31192" lon="5.65546">
        <ele>494.74</ele>
        <time>2018-06-01T08:28:20Z</time>
      </trkpt>
      <trkpt lat="45.3121" lon="5.65565">
        <ele>497.14</ele>
        <time>2018-06-01T08:28:41Z</time>
      </trkpt>
      <trkpt lat="45.31224" lon="5.6558">
        <ele>499.54</ele>
        <time>2018-06-01T08:28:56Z</time>
      </trkpt>
      <trkpt lat="45.31232" lon="5.65587">
        <ele>500.98</ele>
        <time>2018-06-01T08:29:03Z</time>
      </trkpt>
      <trkpt lat="45.31243" lon="5.65598">
        <ele>503.87</ele>
        <time>2018-06-01T08:29:14Z</time>
      </trkpt>
      <trkpt lat="45.31245" lon="5.656">
        <ele>503.87</ele>
        <time>2018-06-01T08:29:16Z</time>
      </trkpt>
      <trkpt lat="45.31261" lon="5.65623">
        <ele>507.23</ele>
        <time>2018-06-01T08:29:34Z</time>
      </trkpt>
      <trkpt lat="45.31263" lon="5.65627">
        <ele>507.71</ele>
        <time>2018-06-01T08:29:38Z</time>
      </trkpt>
      <trkpt lat="45.31267" lon="5.6563">
        <ele>508.67</ele>
        <time>2018-06-01T08:29:41Z</time>
      </trkpt>
      <trkpt lat="45.31277" lon="5.65633">
        <ele>509.64</ele>
        <time>2018-06-01T08:29:47Z</time>
      </trkpt>
      <trkpt lat="45.31283" lon="5.65637">
        <ele>510.12</ele>
        <time>2018-06-01T08:29:52Z</time>
      </trkpt>
      <trkpt lat="45.31298" lon="5.65642">
        <ele>513</ele>
        <time>2018-06-01T08:30:07Z</time>
      </trkpt>
      <trkpt lat="45.31304" lon="5.65643">
        <ele>513.48</ele>
        <time>2018-06-01T08:30:13Z</time>
      </trkpt>
      <trkpt lat="45.31318" lon="5.65648">
        <ele>515.88</ele>
        <time>2018-06-01T08:30:28Z</time>
      </trkpt>
      <trkpt lat="45.31336" lon="5.65649">
        <ele>516.85</ele>
        <time>2018-06-01T08:30:45Z</time>
      </trkpt>
      <trkpt lat="45.31337" lon="5.65648">
        <ele>517.33</ele>
        <time>2018-06-01T08:31:17Z</time>
      </trkpt>
      <trkpt lat="45.31337" lon="5.65649">
        <ele>517.33</ele>
        <time>2018-06-01T08:31:39Z</time>
      </trkpt>
      <trkpt lat="45.31337" lon="5.65649">
        <ele>517.33</ele>
        <time>2018-06-01T08:31:40Z</time>
      </trkpt>
      <trkpt lat="45.31348" lon="5.65646">
        <ele>517.33</ele>
        <time>2018-06-01T08:31:45Z</time>
      </trkpt>
      <trkpt lat="45.31371" lon="5.65641">
        <ele>513.96</ele>
        <time>2018-06-01T08:31:50Z</time>
      </trkpt>
      <trkpt lat="45.31454" lon="5.65654">
        <ele>514.44</ele>
        <time>2018-06-01T08:32:06Z</time>
      </trkpt>
      <trkpt lat="45.31493" lon="5.6566">
        <ele>517.81</ele>
        <time>2018-06-01T08:32:17Z</time>
      </trkpt>
      <trkpt lat="45.31532" lon="5.65683">
        <ele>520.21</ele>
        <time>2018-06-01T08:32:33Z</time>
      </trkpt>
      <trkpt lat="45.31563" lon="5.65705">
        <ele>522.61</ele>
        <time>2018-06-01T08:32:48Z</time>
      </trkpt>
      <trkpt lat="45.31594" lon="5.65716">
        <ele>525.5</ele>
        <time>2018-06-01T08:33:01Z</time>
      </trkpt>
      <trkpt lat="45.31638" lon="5.65738">
        <ele>528.38</ele>
        <time>2018-06-01T08:33:20Z</time>
      </trkpt>
      <trkpt lat="45.31695" lon="5.6578">
        <ele>528.38</ele>
        <time>2018-06-01T08:33:38Z</time>
      </trkpt>
      <trkpt lat="45.31746" lon="5.65803">
        <ele>530.3</ele>
        <time>2018-06-01T08:33:54Z</time>
      </trkpt>
      <trkpt lat="45.31791" lon="5.65812">
        <ele>531.27</ele>
        <time>2018-06-01T08:34:09Z</time>
      </trkpt>
      <trkpt lat="45.31852" lon="5.65815">
        <ele>528.38</ele>
        <time>2018-06-01T08:34:23Z</time>
      </trkpt>
      <trkpt lat="45.31952" lon="5.65813">
        <ele>526.94</ele>
        <time>2018-06-01T08:34:41Z</time>
      </trkpt>
      <trkpt lat="45.32037" lon="5.65811">
        <ele>524.54</ele>
        <time>2018-06-01T08:34:55Z</time>
      </trkpt>
      <trkpt lat="45.32052" lon="5.65811">
        <ele>525.98</ele>
        <time>2018-06-01T08:34:58Z</time>
      </trkpt>
      <trkpt lat="45.32141" lon="5.65814">
        <ele>526.46</ele>
        <time>2018-06-01T08:35:16Z</time>
      </trkpt>
      <trkpt lat="45.32223" lon="5.65807">
        <ele>524.54</ele>
        <time>2018-06-01T08:35:30Z</time>
      </trkpt>
      <trkpt lat="45.32238" lon="5.65802">
        <ele>525.02</ele>
        <time>2018-06-01T08:35:33Z</time>
      </trkpt>
      <trkpt lat="45.32294" lon="5.6578">
        <ele>527.9</ele>
        <time>2018-06-01T08:35:47Z</time>
      </trkpt>
      <trkpt lat="45.3233" lon="5.65772">
        <ele>527.9</ele>
        <time>2018-06-01T08:35:56Z</time>
      </trkpt>
      <trkpt lat="45.32402" lon="5.65782">
        <ele>530.79</ele>
        <time>2018-06-01T08:36:15Z</time>
      </trkpt>
      <trkpt lat="45.32434" lon="5.65789">
        <ele>534.15</ele>
        <time>2018-06-01T08:36:27Z</time>
      </trkpt>
      <trkpt lat="45.32466" lon="5.65791">
        <ele>537.51</ele>
        <time>2018-06-01T08:36:40Z</time>
      </trkpt>
      <trkpt lat="45.32502" lon="5.65787">
        <ele>540.4</ele>
        <time>2018-06-01T08:36:56Z</time>
      </trkpt>
      <trkpt lat="45.32534" lon="5.65782">
        <ele>543.76</ele>
        <time>2018-06-01T08:37:11Z</time>
      </trkpt>
      <trkpt lat="45.32562" lon="5.65785">
        <ele>546.65</ele>
        <time>2018-06-01T08:37:25Z</time>
      </trkpt>
      <trkpt lat="45.32576" lon="5.65792">
        <ele>548.09</ele>
        <time>2018-06-01T08:37:34Z</time>
      </trkpt>
      <trkpt lat="45.32577" lon="5.65794">
        <ele>548.57</ele>
        <time>2018-06-01T08:37:35Z</time>
      </trkpt>
      <trkpt lat="45.32578" lon="5.65795">
        <ele>548.57</ele>
        <time>2018-06-01T08:37:36Z</time>
      </trkpt>
      <trkpt lat="45.32587" lon="5.65817">
        <ele>550.97</ele>
        <time>2018-06-01T08:37:50Z</time>
      </trkpt>
      <trkpt lat="45.32588" lon="5.6582">
        <ele>551.93</ele>
        <time>2018-06-01T08:37:52Z</time>
      </trkpt>
      <trkpt lat="45.32594" lon="5.65838">
        <ele>553.38</ele>
        <time>2018-06-01T08:38:01Z</time>
      </trkpt>
      <trkpt lat="45.32599" lon="5.65852">
        <ele>554.82</ele>
        <time>2018-06-01T08:38:10Z</time>
      </trkpt>
      <trkpt lat="45.32611" lon="5.65873">
        <ele>557.22</ele>
        <time>2018-06-01T08:38:24Z</time>
      </trkpt>
      <trkpt lat="45.3262" lon="5.6589">
        <ele>560.59</ele>
        <time>2018-06-01T08:38:38Z</time>
      </trkpt>
      <trkpt lat="45.32624" lon="5.65899">
        <ele>561.55</ele>
        <time>2018-06-01T08:38:45Z</time>
      </trkpt>
      <trkpt lat="45.32633" lon="5.65916">
        <ele>564.43</ele>
        <time>2018-06-01T08:39:00Z</time>
      </trkpt>
      <trkpt lat="45.32638" lon="5.65923">
        <ele>565.39</ele>
        <time>2018-06-01T08:39:05Z</time>
      </trkpt>
      <trkpt lat="45.32644" lon="5.6594">
        <ele>567.32</ele>
        <time>2018-06-01T08:39:18Z</time>
      </trkpt>
      <trkpt lat="45.3265" lon="5.6595">
        <ele>568.28</ele>
        <time>2018-06-01T08:39:37Z</time>
      </trkpt>
      <trkpt lat="45.32653" lon="5.65965">
        <ele>570.68</ele>
        <time>2018-06-01T08:39:51Z</time>
      </trkpt>
      <trkpt lat="45.32653" lon="5.65982">
        <ele>573.08</ele>
        <time>2018-06-01T08:40:00Z</time>
      </trkpt>
      <trkpt lat="45.32649" lon="5.66">
        <ele>575.97</ele>
        <time>2018-06-01T08:40:13Z</time>
      </trkpt>
      <trkpt lat="45.3264" lon="5.66029">
        <ele>579.33</ele>
        <time>2018-06-01T08:40:28Z</time>
      </trkpt>
      <trkpt lat="45.3264" lon="5.66061">
        <ele>581.25</ele>
        <time>2018-06-01T08:40:46Z</time>
      </trkpt>
      <trkpt lat="45.3264" lon="5.66067">
        <ele>581.73</ele>
        <time>2018-06-01T08:40:49Z</time>
      </trkpt>
      <trkpt lat="45.32662" lon="5.66081">
        <ele>584.14</ele>
        <time>2018-06-01T08:41:06Z</time>
      </trkpt>
      <trkpt lat="45.32697" lon="5.66095">
        <ele>586.06</ele>
        <time>2018-06-01T08:41:24Z</time>
      </trkpt>
      <trkpt lat="45.32731" lon="5.66084">
        <ele>587.5</ele>
        <time>2018-06-01T08:41:42Z</time>
      </trkpt>
      <trkpt lat="45.32751" lon="5.66058">
        <ele>589.43</ele>
        <time>2018-06-01T08:41:58Z</time>
      </trkpt>
      <trkpt lat="45.32757" lon="5.6605">
        <ele>589.43</ele>
        <time>2018-06-01T08:42:12Z</time>
      </trkpt>
      <trkpt lat="45.32758" lon="5.6605">
        <ele>589.43</ele>
        <time>2018-06-01T08:42:51Z</time>
      </trkpt>
      <trkpt lat="45.32758" lon="5.6605">
        <ele>589.43</ele>
        <time>2018-06-01T08:43:05Z</time>
      </trkpt>
      <trkpt lat="45.32757" lon="5.66051">
        <ele>589.43</ele>
        <time>2018-06-01T08:43:38Z</time>
      </trkpt>
      <trkpt lat="45.32757" lon="5.66051">
        <ele>589.43</ele>
        <time>2018-06-01T08:43:53Z</time>
      </trkpt>
      <trkpt lat="45.32757" lon="5.66049">
        <ele>589.91</ele>
        <time>2018-06-01T08:44:14Z</time>
      </trkpt>
      <trkpt lat="45.32761" lon="5.6605">
        <ele>589.91</ele>
        <time>2018-06-01T08:44:47Z</time>
      </trkpt>
      <trkpt lat="45.32759" lon="5.66051">
        <ele>589.91</ele>
        <time>2018-06-01T08:45:16Z</time>
      </trkpt>
      <trkpt lat="45.32755" lon="5.66047">
        <ele>590.39</ele>
        <time>2018-06-01T08:45:47Z</time>
      </trkpt>
      <trkpt lat="45.32756" lon="5.6605">
        <ele>588.95</ele>
        <time>2018-06-01T08:46:00Z</time>
      </trkpt>
      <trkpt lat="45.32756" lon="5.66051">
        <ele>590.39</ele>
        <time>2018-06-01T08:46:02Z</time>
      </trkpt>
      <trkpt lat="45.32759" lon="5.66049">
        <ele>590.39</ele>
        <time>2018-06-01T08:46:25Z</time>
      </trkpt>
      <trkpt lat="45.32757" lon="5.66048">
        <ele>590.39</ele>
        <time>2018-06-01T08:46:49Z</time>
      </trkpt>
      <trkpt lat="45.32758" lon="5.66047">
        <ele>589.43</ele>
        <time>2018-06-01T08:47:17Z</time>
      </trkpt>
      <trkpt lat="45.32762" lon="5.66049">
        <ele>589.43</ele>
        <time>2018-06-01T08:47:50Z</time>
      </trkpt>
      <trkpt lat="45.32758" lon="5.6605">
        <ele>589.91</ele>
        <time>2018-06-01T08:48:11Z</time>
      </trkpt>
      <trkpt lat="45.32755" lon="5.66051">
        <ele>589.91</ele>
        <time>2018-06-01T08:48:22Z</time>
      </trkpt>
      <trkpt lat="45.32755" lon="5.66052">
        <ele>590.87</ele>
        <time>2018-06-01T08:48:29Z</time>
      </trkpt>
      <trkpt lat="45.32753" lon="5.66054">
        <ele>590.87</ele>
        <time>2018-06-01T08:48:43Z</time>
      </trkpt>
      <trkpt lat="45.32752" lon="5.66061">
        <ele>590.87</ele>
        <time>2018-06-01T08:48:47Z</time>
      </trkpt>
      <trkpt lat="45.3274" lon="5.66123">
        <ele>591.83</ele>
        <time>2018-06-01T08:49:07Z</time>
      </trkpt>
      <trkpt lat="45.32707" lon="5.66158">
        <ele>595.67</ele>
        <time>2018-06-01T08:49:22Z</time>
      </trkpt>
      <trkpt lat="45.32678" lon="5.66188">
        <ele>598.08</ele>
        <time>2018-06-01T08:49:37Z</time>
      </trkpt>
      <trkpt lat="45.32642" lon="5.66208">
        <ele>601.44</ele>
        <time>2018-06-01T08:49:53Z</time>
      </trkpt>
      <trkpt lat="45.32599" lon="5.66204">
        <ele>604.81</ele>
        <time>2018-06-01T08:50:11Z</time>
      </trkpt>
      <trkpt lat="45.32562" lon="5.66204">
        <ele>607.21</ele>
        <time>2018-06-01T08:50:28Z</time>
      </trkpt>
      <trkpt lat="45.32524" lon="5.66219">
        <ele>610.57</ele>
        <time>2018-06-01T08:50:45Z</time>
      </trkpt>
      <trkpt lat="45.32518" lon="5.66238">
        <ele>612.02</ele>
        <time>2018-06-01T08:50:53Z</time>
      </trkpt>
      <trkpt lat="45.3252" lon="5.66239">
        <ele>612.02</ele>
        <time>2018-06-01T08:50:54Z</time>
      </trkpt>
      <trkpt lat="45.32521" lon="5.66241">
        <ele>612.02</ele>
        <time>2018-06-01T08:50:55Z</time>
      </trkpt>
      <trkpt lat="45.32523" lon="5.66243">
        <ele>612.02</ele>
        <time>2018-06-01T08:50:56Z</time>
      </trkpt>
      <trkpt lat="45.32525" lon="5.66244">
        <ele>612.98</ele>
        <time>2018-06-01T08:50:57Z</time>
      </trkpt>
      <trkpt lat="45.32563" lon="5.66255">
        <ele>614.9</ele>
        <time>2018-06-01T08:51:14Z</time>
      </trkpt>
      <trkpt lat="45.32603" lon="5.6626">
        <ele>617.78</ele>
        <time>2018-06-01T08:51:31Z</time>
      </trkpt>
      <trkpt lat="45.32643" lon="5.66292">
        <ele>621.15</ele>
        <time>2018-06-01T08:51:51Z</time>
      </trkpt>
      <trkpt lat="45.32684" lon="5.66321">
        <ele>623.55</ele>
        <time>2018-06-01T08:52:10Z</time>
      </trkpt>
      <trkpt lat="45.32721" lon="5.66334">
        <ele>626.92</ele>
        <time>2018-06-01T08:52:27Z</time>
      </trkpt>
      <trkpt lat="45.32763" lon="5.66347">
        <ele>630.28</ele>
        <time>2018-06-01T08:52:47Z</time>
      </trkpt>
      <trkpt lat="45.32807" lon="5.66358">
        <ele>633.65</ele>
        <time>2018-06-01T08:53:07Z</time>
      </trkpt>
      <trkpt lat="45.32853" lon="5.66347">
        <ele>637.01</ele>
        <time>2018-06-01T08:53:27Z</time>
      </trkpt>
      <trkpt lat="45.3289" lon="5.66338">
        <ele>639.41</ele>
        <time>2018-06-01T08:53:43Z</time>
      </trkpt>
      <trkpt lat="45.32933" lon="5.66332">
        <ele>642.3</ele>
        <time>2018-06-01T08:54:01Z</time>
      </trkpt>
      <trkpt lat="45.32972" lon="5.6635">
        <ele>645.66</ele>
        <time>2018-06-01T08:54:18Z</time>
      </trkpt>
      <trkpt lat="45.33008" lon="5.66382">
        <ele>648.55</ele>
        <time>2018-06-01T08:54:37Z</time>
      </trkpt>
      <trkpt lat="45.33017" lon="5.66414">
        <ele>651.91</ele>
        <time>2018-06-01T08:54:49Z</time>
      </trkpt>
      <trkpt lat="45.33023" lon="5.66438">
        <ele>655.28</ele>
        <time>2018-06-01T08:54:59Z</time>
      </trkpt>
      <trkpt lat="45.33025" lon="5.66448">
        <ele>656.24</ele>
        <time>2018-06-01T08:55:03Z</time>
      </trkpt>
      <trkpt lat="45.33026" lon="5.66449">
        <ele>656.24</ele>
        <time>2018-06-01T08:55:04Z</time>
      </trkpt>
      <trkpt lat="45.33028" lon="5.66451">
        <ele>656.72</ele>
        <time>2018-06-01T08:55:05Z</time>
      </trkpt>
      <trkpt lat="45.33029" lon="5.66452">
        <ele>656.72</ele>
        <time>2018-06-01T08:55:06Z</time>
      </trkpt>
      <trkpt lat="45.3303" lon="5.66454">
        <ele>657.2</ele>
        <time>2018-06-01T08:55:07Z</time>
      </trkpt>
      <trkpt lat="45.33032" lon="5.66455">
        <ele>657.68</ele>
        <time>2018-06-01T08:55:08Z</time>
      </trkpt>
      <trkpt lat="45.33033" lon="5.66457">
        <ele>657.68</ele>
        <time>2018-06-01T08:55:09Z</time>
      </trkpt>
      <trkpt lat="45.33034" lon="5.66459">
        <ele>657.68</ele>
        <time>2018-06-01T08:55:10Z</time>
      </trkpt>
      <trkpt lat="45.33033" lon="5.66461">
        <ele>658.16</ele>
        <time>2018-06-01T08:55:11Z</time>
      </trkpt>
      <trkpt lat="45.33033" lon="5.66464">
        <ele>658.64</ele>
        <time>2018-06-01T08:55:12Z</time>
      </trkpt>
      <trkpt lat="45.33032" lon="5.66466">
        <ele>658.64</ele>
        <time>2018-06-01T08:55:13Z</time>
      </trkpt>
      <trkpt lat="45.33032" lon="5.66469">
        <ele>658.64</ele>
        <time>2018-06-01T08:55:14Z</time>
      </trkpt>
      <trkpt lat="45.33033" lon="5.66471">
        <ele>659.12</ele>
        <time>2018-06-01T08:55:15Z</time>
      </trkpt>
      <trkpt lat="45.33034" lon="5.66473">
        <ele>659.12</ele>
        <time>2018-06-01T08:55:16Z</time>
      </trkpt>
      <trkpt lat="45.33035" lon="5.66475">
        <ele>659.6</ele>
        <time>2018-06-01T08:55:17Z</time>
      </trkpt>
      <trkpt lat="45.33035" lon="5.66477">
        <ele>659.6</ele>
        <time>2018-06-01T08:55:18Z</time>
      </trkpt>
      <trkpt lat="45.33036" lon="5.66479">
        <ele>660.08</ele>
        <time>2018-06-01T08:55:19Z</time>
      </trkpt>
      <trkpt lat="45.33037" lon="5.66481">
        <ele>660.08</ele>
        <time>2018-06-01T08:55:20Z</time>
      </trkpt>
      <trkpt lat="45.33043" lon="5.66502">
        <ele>663.45</ele>
        <time>2018-06-01T08:55:30Z</time>
      </trkpt>
      <trkpt lat="45.33046" lon="5.6651">
        <ele>664.89</ele>
        <time>2018-06-01T08:55:34Z</time>
      </trkpt>
      <trkpt lat="45.33047" lon="5.66512">
        <ele>664.89</ele>
        <time>2018-06-01T08:55:35Z</time>
      </trkpt>
      <trkpt lat="45.33048" lon="5.66513">
        <ele>665.37</ele>
        <time>2018-06-01T08:55:36Z</time>
      </trkpt>
      <trkpt lat="45.33051" lon="5.66522">
        <ele>666.33</ele>
        <time>2018-06-01T08:55:40Z</time>
      </trkpt>
      <trkpt lat="45.3305" lon="5.66524">
        <ele>666.81</ele>
        <time>2018-06-01T08:55:41Z</time>
      </trkpt>
      <trkpt lat="45.3305" lon="5.66526">
        <ele>666.81</ele>
        <time>2018-06-01T08:55:42Z</time>
      </trkpt>
      <trkpt lat="45.33049" lon="5.66528">
        <ele>667.29</ele>
        <time>2018-06-01T08:55:43Z</time>
      </trkpt>
      <trkpt lat="45.33049" lon="5.6653">
        <ele>667.29</ele>
        <time>2018-06-01T08:55:44Z</time>
      </trkpt>
      <trkpt lat="45.33049" lon="5.66532">
        <ele>667.77</ele>
        <time>2018-06-01T08:55:45Z</time>
      </trkpt>
      <trkpt lat="45.3305" lon="5.66534">
        <ele>667.77</ele>
        <time>2018-06-01T08:55:46Z</time>
      </trkpt>
      <trkpt lat="45.33051" lon="5.66535">
        <ele>667.77</ele>
        <time>2018-06-01T08:55:47Z</time>
      </trkpt>
      <trkpt lat="45.33053" lon="5.66536">
        <ele>668.25</ele>
        <time>2018-06-01T08:55:48Z</time>
      </trkpt>
      <trkpt lat="45.33054" lon="5.66537">
        <ele>668.25</ele>
        <time>2018-06-01T08:55:49Z</time>
      </trkpt>
      <trkpt lat="45.33056" lon="5.66538">
        <ele>668.25</ele>
        <time>2018-06-01T08:55:50Z</time>
      </trkpt>
      <trkpt lat="45.33057" lon="5.66538">
        <ele>668.25</ele>
        <time>2018-06-01T08:55:51Z</time>
      </trkpt>
      <trkpt lat="45.33058" lon="5.66538">
        <ele>668.25</ele>
        <time>2018-06-01T08:55:52Z</time>
      </trkpt>
      <trkpt lat="45.33059" lon="5.66537">
        <ele>668.25</ele>
        <time>2018-06-01T08:55:53Z</time>
      </trkpt>
      <trkpt lat="45.33061" lon="5.66537">
        <ele>668.73</ele>
        <time>2018-06-01T08:55:54Z</time>
      </trkpt>
      <trkpt lat="45.33084" lon="5.66529">
        <ele>671.62</ele>
        <time>2018-06-01T08:56:11Z</time>
      </trkpt>
      <trkpt lat="45.33108" lon="5.66514">
        <ele>673.54</ele>
        <time>2018-06-01T08:56:28Z</time>
      </trkpt>
      <trkpt lat="45.33123" lon="5.66502">
        <ele>676.42</ele>
        <time>2018-06-01T08:56:40Z</time>
      </trkpt>
      <trkpt lat="45.33124" lon="5.66501">
        <ele>676.42</ele>
        <time>2018-06-01T08:56:41Z</time>
      </trkpt>
      <trkpt lat="45.33125" lon="5.665">
        <ele>676.42</ele>
        <time>2018-06-01T08:56:42Z</time>
      </trkpt>
      <trkpt lat="45.3315" lon="5.66486">
        <ele>679.31</ele>
        <time>2018-06-01T08:56:58Z</time>
      </trkpt>
      <trkpt lat="45.33176" lon="5.66473">
        <ele>682.19</ele>
        <time>2018-06-01T08:57:15Z</time>
      </trkpt>
      <trkpt lat="45.33203" lon="5.66471">
        <ele>685.56</ele>
        <time>2018-06-01T08:57:31Z</time>
      </trkpt>
      <trkpt lat="45.3321" lon="5.66482">
        <ele>687.96</ele>
        <time>2018-06-01T08:57:38Z</time>
      </trkpt>
      <trkpt lat="45.33204" lon="5.66492">
        <ele>688.44</ele>
        <time>2018-06-01T08:57:45Z</time>
      </trkpt>
      <trkpt lat="45.33204" lon="5.66502">
        <ele>688.44</ele>
        <time>2018-06-01T08:57:51Z</time>
      </trkpt>
      <trkpt lat="45.33205" lon="5.66517">
        <ele>688.92</ele>
        <time>2018-06-01T08:58:00Z</time>
      </trkpt>
      <trkpt lat="45.3321" lon="5.66515">
        <ele>689.4</ele>
        <time>2018-06-01T08:58:07Z</time>
      </trkpt>
      <trkpt lat="45.33207" lon="5.6651">
        <ele>689.4</ele>
        <time>2018-06-01T08:58:11Z</time>
      </trkpt>
      <trkpt lat="45.33207" lon="5.66506">
        <ele>689.4</ele>
        <time>2018-06-01T08:58:14Z</time>
      </trkpt>
      <trkpt lat="45.33208" lon="5.66499">
        <ele>689.4</ele>
        <time>2018-06-01T08:58:19Z</time>
      </trkpt>
      <trkpt lat="45.33209" lon="5.6651">
        <ele>689.4</ele>
        <time>2018-06-01T08:58:32Z</time>
      </trkpt>
      <trkpt lat="45.33204" lon="5.66516">
        <ele>689.4</ele>
        <time>2018-06-01T08:58:43Z</time>
      </trkpt>
      <trkpt lat="45.33209" lon="5.66497">
        <ele>689.4</ele>
        <time>2018-06-01T08:58:52Z</time>
      </trkpt>
      <trkpt lat="45.33213" lon="5.6649">
        <ele>689.88</ele>
        <time>2018-06-01T08:58:56Z</time>
      </trkpt>
      <trkpt lat="45.33224" lon="5.66496">
        <ele>690.36</ele>
        <time>2018-06-01T08:59:04Z</time>
      </trkpt>
      <trkpt lat="45.33229" lon="5.66498">
        <ele>691.81</ele>
        <time>2018-06-01T08:59:10Z</time>
      </trkpt>
      <trkpt lat="45.33245" lon="5.66494">
        <ele>695.17</ele>
        <time>2018-06-01T08:59:24Z</time>
      </trkpt>
      <trkpt lat="45.33258" lon="5.66501">
        <ele>698.53</ele>
        <time>2018-06-01T08:59:39Z</time>
      </trkpt>
      <trkpt lat="45.33265" lon="5.66512">
        <ele>701.9</ele>
        <time>2018-06-01T08:59:50Z</time>
      </trkpt>
      <trkpt lat="45.33266" lon="5.66516">
        <ele>702.38</ele>
        <time>2018-06-01T08:59:52Z</time>
      </trkpt>
      <trkpt lat="45.33267" lon="5.66538">
        <ele>704.78</ele>
        <time>2018-06-01T09:00:06Z</time>
      </trkpt>
      <trkpt lat="45.33268" lon="5.66542">
        <ele>704.78</ele>
        <time>2018-06-01T09:00:09Z</time>
      </trkpt>
      <trkpt lat="45.33272" lon="5.66536">
        <ele>704.78</ele>
        <time>2018-06-01T09:00:24Z</time>
      </trkpt>
      <trkpt lat="45.33271" lon="5.66535">
        <ele>704.78</ele>
        <time>2018-06-01T09:00:25Z</time>
      </trkpt>
      <trkpt lat="45.33266" lon="5.66545">
        <ele>704.78</ele>
        <time>2018-06-01T09:00:34Z</time>
      </trkpt>
      <trkpt lat="45.3326" lon="5.66553">
        <ele>706.23</ele>
        <time>2018-06-01T09:00:41Z</time>
      </trkpt>
      <trkpt lat="45.33251" lon="5.66576">
        <ele>709.59</ele>
        <time>2018-06-01T09:00:59Z</time>
      </trkpt>
      <trkpt lat="45.33247" lon="5.66592">
        <ele>711.51</ele>
        <time>2018-06-01T09:01:11Z</time>
      </trkpt>
      <trkpt lat="45.33238" lon="5.6661">
        <ele>713.92</ele>
        <time>2018-06-01T09:01:26Z</time>
      </trkpt>
      <trkpt lat="45.33236" lon="5.66615">
        <ele>714.4</ele>
        <time>2018-06-01T09:01:29Z</time>
      </trkpt>
      <trkpt lat="45.33225" lon="5.66632">
        <ele>716.8</ele>
        <time>2018-06-01T09:01:45Z</time>
      </trkpt>
      <trkpt lat="45.33216" lon="5.66644">
        <ele>718.72</ele>
        <time>2018-06-01T09:01:56Z</time>
      </trkpt>
      <trkpt lat="45.33211" lon="5.66651">
        <ele>719.2</ele>
        <time>2018-06-01T09:02:00Z</time>
      </trkpt>
      <trkpt lat="45.33197" lon="5.6667">
        <ele>722.09</ele>
        <time>2018-06-01T09:02:15Z</time>
      </trkpt>
      <trkpt lat="45.33184" lon="5.66684">
        <ele>725.45</ele>
        <time>2018-06-01T09:02:28Z</time>
      </trkpt>
      <trkpt lat="45.33173" lon="5.66701">
        <ele>728.34</ele>
        <time>2018-06-01T09:02:43Z</time>
      </trkpt>
      <trkpt lat="45.33157" lon="5.66718">
        <ele>730.74</ele>
        <time>2018-06-01T09:02:58Z</time>
      </trkpt>
      <trkpt lat="45.33141" lon="5.66732">
        <ele>731.7</ele>
        <time>2018-06-01T09:03:14Z</time>
      </trkpt>
      <trkpt lat="45.33138" lon="5.66735">
        <ele>731.7</ele>
        <time>2018-06-01T09:03:18Z</time>
      </trkpt>
      <trkpt lat="45.33136" lon="5.66737">
        <ele>731.7</ele>
        <time>2018-06-01T09:03:20Z</time>
      </trkpt>
      <trkpt lat="45.33119" lon="5.66748">
        <ele>732.66</ele>
        <time>2018-06-01T09:03:36Z</time>
      </trkpt>
      <trkpt lat="45.33103" lon="5.66765">
        <ele>735.07</ele>
        <time>2018-06-01T09:03:51Z</time>
      </trkpt>
      <trkpt lat="45.33101" lon="5.66766">
        <ele>735.07</ele>
        <time>2018-06-01T09:03:52Z</time>
      </trkpt>
      <trkpt lat="45.33087" lon="5.66779">
        <ele>736.51</ele>
        <time>2018-06-01T09:04:06Z</time>
      </trkpt>
      <trkpt lat="45.33084" lon="5.66782">
        <ele>736.99</ele>
        <time>2018-06-01T09:04:09Z</time>
      </trkpt>
      <trkpt lat="45.33082" lon="5.66785">
        <ele>737.47</ele>
        <time>2018-06-01T09:04:12Z</time>
      </trkpt>
      <trkpt lat="45.3308" lon="5.66788">
        <ele>737.95</ele>
        <time>2018-06-01T09:04:14Z</time>
      </trkpt>
      <trkpt lat="45.3307" lon="5.66805">
        <ele>739.39</ele>
        <time>2018-06-01T09:04:29Z</time>
      </trkpt>
      <trkpt lat="45.3306" lon="5.66814">
        <ele>740.35</ele>
        <time>2018-06-01T09:04:37Z</time>
      </trkpt>
      <trkpt lat="45.33056" lon="5.66818">
        <ele>740.35</ele>
        <time>2018-06-01T09:04:42Z</time>
      </trkpt>
      <trkpt lat="45.33027" lon="5.66838">
        <ele>741.31</ele>
        <time>2018-06-01T09:05:00Z</time>
      </trkpt>
      <trkpt lat="45.33003" lon="5.66858">
        <ele>742.76</ele>
        <time>2018-06-01T09:05:14Z</time>
      </trkpt>
      <trkpt lat="45.32992" lon="5.6687">
        <ele>744.68</ele>
        <time>2018-06-01T09:05:26Z</time>
      </trkpt>
      <trkpt lat="45.32986" lon="5.66878">
        <ele>745.64</ele>
        <time>2018-06-01T09:05:32Z</time>
      </trkpt>
      <trkpt lat="45.32984" lon="5.66881">
        <ele>746.12</ele>
        <time>2018-06-01T09:05:34Z</time>
      </trkpt>
      <trkpt lat="45.32983" lon="5.66882">
        <ele>746.12</ele>
        <time>2018-06-01T09:05:35Z</time>
      </trkpt>
      <trkpt lat="45.32978" lon="5.66886">
        <ele>747.08</ele>
        <time>2018-06-01T09:05:38Z</time>
      </trkpt>
      <trkpt lat="45.32957" lon="5.66902">
        <ele>749.49</ele>
        <time>2018-06-01T09:05:52Z</time>
      </trkpt>
      <trkpt lat="45.32937" lon="5.66923">
        <ele>751.89</ele>
        <time>2018-06-01T09:06:06Z</time>
      </trkpt>
      <trkpt lat="45.32936" lon="5.66925">
        <ele>752.85</ele>
        <time>2018-06-01T09:06:07Z</time>
      </trkpt>
      <trkpt lat="45.3292" lon="5.66952">
        <ele>755.73</ele>
        <time>2018-06-01T09:06:23Z</time>
      </trkpt>
      <trkpt lat="45.32915" lon="5.66958">
        <ele>756.21</ele>
        <time>2018-06-01T09:06:28Z</time>
      </trkpt>
      <trkpt lat="45.32914" lon="5.66959">
        <ele>756.69</ele>
        <time>2018-06-01T09:06:29Z</time>
      </trkpt>
      <trkpt lat="45.32913" lon="5.6696">
        <ele>756.69</ele>
        <time>2018-06-01T09:06:30Z</time>
      </trkpt>
      <trkpt lat="45.32896" lon="5.66975">
        <ele>759.1</ele>
        <time>2018-06-01T09:06:44Z</time>
      </trkpt>
      <trkpt lat="45.32872" lon="5.66988">
        <ele>761.98</ele>
        <time>2018-06-01T09:07:02Z</time>
      </trkpt>
      <trkpt lat="45.32868" lon="5.6699">
        <ele>762.46</ele>
        <time>2018-06-01T09:07:05Z</time>
      </trkpt>
      <trkpt lat="45.32844" lon="5.67005">
        <ele>762.94</ele>
        <time>2018-06-01T09:07:20Z</time>
      </trkpt>
      <trkpt lat="45.32812" lon="5.67024">
        <ele>763.42</ele>
        <time>2018-06-01T09:07:37Z</time>
      </trkpt>
      <trkpt lat="45.32783" lon="5.67031">
        <ele>764.39</ele>
        <time>2018-06-01T09:07:51Z</time>
      </trkpt>
      <trkpt lat="45.32758" lon="5.67035">
        <ele>765.35</ele>
        <time>2018-06-01T09:08:06Z</time>
      </trkpt>
      <trkpt lat="45.3275" lon="5.6704">
        <ele>766.31</ele>
        <time>2018-06-01T09:08:12Z</time>
      </trkpt>
      <trkpt lat="45.32749" lon="5.6704">
        <ele>766.79</ele>
        <time>2018-06-01T09:08:13Z</time>
      </trkpt>
      <trkpt lat="45.32747" lon="5.67041">
        <ele>766.79</ele>
        <time>2018-06-01T09:08:14Z</time>
      </trkpt>
      <trkpt lat="45.32722" lon="5.67054">
        <ele>767.75</ele>
        <time>2018-06-01T09:08:28Z</time>
      </trkpt>
      <trkpt lat="45.3272" lon="5.67056">
        <ele>767.75</ele>
        <time>2018-06-01T09:08:29Z</time>
      </trkpt>
      <trkpt lat="45.32697" lon="5.67068">
        <ele>769.19</ele>
        <time>2018-06-01T09:08:42Z</time>
      </trkpt>
      <trkpt lat="45.32666" lon="5.67085">
        <ele>770.63</ele>
        <time>2018-06-01T09:08:57Z</time>
      </trkpt>
      <trkpt lat="45.32654" lon="5.67094">
        <ele>771.6</ele>
        <time>2018-06-01T09:09:03Z</time>
      </trkpt>
      <trkpt lat="45.32652" lon="5.67095">
        <ele>771.6</ele>
        <time>2018-06-01T09:09:04Z</time>
      </trkpt>
      <trkpt lat="45.3265" lon="5.67096">
        <ele>771.6</ele>
        <time>2018-06-01T09:09:05Z</time>
      </trkpt>
      <trkpt lat="45.32628" lon="5.67123">
        <ele>771.6</ele>
        <time>2018-06-01T09:09:17Z</time>
      </trkpt>
      <trkpt lat="45.32629" lon="5.67124">
        <ele>771.6</ele>
        <time>2018-06-01T09:09:18Z</time>
      </trkpt>
      <trkpt lat="45.32634" lon="5.67113">
        <ele>771.6</ele>
        <time>2018-06-01T09:09:31Z</time>
      </trkpt>
      <trkpt lat="45.32635" lon="5.67118">
        <ele>771.6</ele>
        <time>2018-06-01T09:09:53Z</time>
      </trkpt>
      <trkpt lat="45.32635" lon="5.67116">
        <ele>771.6</ele>
        <time>2018-06-01T09:10:21Z</time>
      </trkpt>
      <trkpt lat="45.32632" lon="5.67117">
        <ele>772.56</ele>
        <time>2018-06-01T09:10:31Z</time>
      </trkpt>
      <trkpt lat="45.32624" lon="5.67125">
        <ele>771.11</ele>
        <time>2018-06-01T09:10:36Z</time>
      </trkpt>
      <trkpt lat="45.32598" lon="5.67146">
        <ele>770.15</ele>
        <time>2018-06-01T09:10:45Z</time>
      </trkpt>
      <trkpt lat="45.3255" lon="5.67157">
        <ele>767.27</ele>
        <time>2018-06-01T09:10:54Z</time>
      </trkpt>
      <trkpt lat="45.32544" lon="5.67157">
        <ele>767.27</ele>
        <time>2018-06-01T09:10:55Z</time>
      </trkpt>
      <trkpt lat="45.32517" lon="5.67156">
        <ele>765.35</ele>
        <time>2018-06-01T09:10:59Z</time>
      </trkpt>
      <trkpt lat="45.32423" lon="5.67138">
        <ele>764.39</ele>
        <time>2018-06-01T09:11:15Z</time>
      </trkpt>
      <trkpt lat="45.32411" lon="5.67132">
        <ele>765.83</ele>
        <time>2018-06-01T09:11:20Z</time>
      </trkpt>
      <trkpt lat="45.32411" lon="5.67132">
        <ele>765.83</ele>
        <time>2018-06-01T09:11:40Z</time>
      </trkpt>
      <trkpt lat="45.32411" lon="5.67132">
        <ele>765.83</ele>
        <time>2018-06-01T09:12:03Z</time>
      </trkpt>
      <trkpt lat="45.32412" lon="5.67131">
        <ele>765.83</ele>
        <time>2018-06-01T09:12:34Z</time>
      </trkpt>
      <trkpt lat="45.3241" lon="5.67133">
        <ele>765.83</ele>
        <time>2018-06-01T09:12:38Z</time>
      </trkpt>
      <trkpt lat="45.3241" lon="5.67135">
        <ele>765.83</ele>
        <time>2018-06-01T09:12:39Z</time>
      </trkpt>
      <trkpt lat="45.32411" lon="5.67137">
        <ele>765.83</ele>
        <time>2018-06-01T09:12:40Z</time>
      </trkpt>
      <trkpt lat="45.32411" lon="5.67139">
        <ele>765.83</ele>
        <time>2018-06-01T09:12:41Z</time>
      </trkpt>
      <trkpt lat="45.32411" lon="5.67142">
        <ele>765.83</ele>
        <time>2018-06-01T09:12:42Z</time>
      </trkpt>
      <trkpt lat="45.32411" lon="5.67145">
        <ele>765.83</ele>
        <time>2018-06-01T09:12:43Z</time>
      </trkpt>
      <trkpt lat="45.32409" lon="5.67148">
        <ele>765.83</ele>
        <time>2018-06-01T09:12:44Z</time>
      </trkpt>
      <trkpt lat="45.32408" lon="5.67152">
        <ele>765.83</ele>
        <time>2018-06-01T09:12:45Z</time>
      </trkpt>
      <trkpt lat="45.32407" lon="5.67156">
        <ele>765.83</ele>
        <time>2018-06-01T09:12:46Z</time>
      </trkpt>
      <trkpt lat="45.32399" lon="5.67226">
        <ele>766.79</ele>
        <time>2018-06-01T09:13:00Z</time>
      </trkpt>
      <trkpt lat="45.32415" lon="5.67295">
        <ele>768.71</ele>
        <time>2018-06-01T09:13:17Z</time>
      </trkpt>
      <trkpt lat="45.3242" lon="5.67349">
        <ele>771.11</ele>
        <time>2018-06-01T09:13:32Z</time>
      </trkpt>
      <trkpt lat="45.3242" lon="5.67401">
        <ele>774</ele>
        <time>2018-06-01T09:13:46Z</time>
      </trkpt>
      <trkpt lat="45.32423" lon="5.67465">
        <ele>777.36</ele>
        <time>2018-06-01T09:14:01Z</time>
      </trkpt>
      <trkpt lat="45.32424" lon="5.6752">
        <ele>779.29</ele>
        <time>2018-06-01T09:14:16Z</time>
      </trkpt>
      <trkpt lat="45.3242" lon="5.6757">
        <ele>780.73</ele>
        <time>2018-06-01T09:14:30Z</time>
      </trkpt>
      <trkpt lat="45.32421" lon="5.67598">
        <ele>781.69</ele>
        <time>2018-06-01T09:14:36Z</time>
      </trkpt>
      <trkpt lat="45.3242" lon="5.67602">
        <ele>781.69</ele>
        <time>2018-06-01T09:14:37Z</time>
      </trkpt>
      <trkpt lat="45.3242" lon="5.67606">
        <ele>782.17</ele>
        <time>2018-06-01T09:14:38Z</time>
      </trkpt>
      <trkpt lat="45.32419" lon="5.6761">
        <ele>782.17</ele>
        <time>2018-06-01T09:14:39Z</time>
      </trkpt>
      <trkpt lat="45.32418" lon="5.67613">
        <ele>782.17</ele>
        <time>2018-06-01T09:14:40Z</time>
      </trkpt>
      <trkpt lat="45.32424" lon="5.6768">
        <ele>784.09</ele>
        <time>2018-06-01T09:14:53Z</time>
      </trkpt>
      <trkpt lat="45.32426" lon="5.6769">
        <ele>785.05</ele>
        <time>2018-06-01T09:14:56Z</time>
      </trkpt>
      <trkpt lat="45.32425" lon="5.67693">
        <ele>785.05</ele>
        <time>2018-06-01T09:14:57Z</time>
      </trkpt>
      <trkpt lat="45.32424" lon="5.67696">
        <ele>785.53</ele>
        <time>2018-06-01T09:14:58Z</time>
      </trkpt>
      <trkpt lat="45.32424" lon="5.677">
        <ele>785.53</ele>
        <time>2018-06-01T09:14:59Z</time>
      </trkpt>
      <trkpt lat="45.32423" lon="5.67704">
        <ele>785.53</ele>
        <time>2018-06-01T09:15:00Z</time>
      </trkpt>
      <trkpt lat="45.32423" lon="5.67715">
        <ele>786.02</ele>
        <time>2018-06-01T09:15:03Z</time>
      </trkpt>
      <trkpt lat="45.32423" lon="5.67719">
        <ele>786.02</ele>
        <time>2018-06-01T09:15:04Z</time>
      </trkpt>
      <trkpt lat="45.32407" lon="5.67764">
        <ele>788.9</ele>
        <time>2018-06-01T09:15:15Z</time>
      </trkpt>
      <trkpt lat="45.32415" lon="5.67827">
        <ele>789.86</ele>
        <time>2018-06-01T09:15:30Z</time>
      </trkpt>
      <trkpt lat="45.32427" lon="5.67883">
        <ele>787.46</ele>
        <time>2018-06-01T09:15:42Z</time>
      </trkpt>
      <trkpt lat="45.32435" lon="5.67934">
        <ele>785.05</ele>
        <time>2018-06-01T09:15:49Z</time>
      </trkpt>
      <trkpt lat="45.32437" lon="5.67941">
        <ele>784.57</ele>
        <time>2018-06-01T09:15:50Z</time>
      </trkpt>
      <trkpt lat="45.32441" lon="5.67948">
        <ele>784.09</ele>
        <time>2018-06-01T09:15:51Z</time>
      </trkpt>
      <trkpt lat="45.32449" lon="5.67962">
        <ele>783.61</ele>
        <time>2018-06-01T09:15:53Z</time>
      </trkpt>
      <trkpt lat="45.32454" lon="5.67968">
        <ele>783.61</ele>
        <time>2018-06-01T09:15:54Z</time>
      </trkpt>
      <trkpt lat="45.3246" lon="5.67974">
        <ele>783.61</ele>
        <time>2018-06-01T09:15:55Z</time>
      </trkpt>
      <trkpt lat="45.32466" lon="5.6798">
        <ele>782.65</ele>
        <time>2018-06-01T09:15:56Z</time>
      </trkpt>
      <trkpt lat="45.32471" lon="5.67985">
        <ele>782.65</ele>
        <time>2018-06-01T09:15:57Z</time>
      </trkpt>
      <trkpt lat="45.32477" lon="5.6799">
        <ele>782.65</ele>
        <time>2018-06-01T09:15:58Z</time>
      </trkpt>
      <trkpt lat="45.32482" lon="5.67995">
        <ele>781.69</ele>
        <time>2018-06-01T09:15:59Z</time>
      </trkpt>
      <trkpt lat="45.32487" lon="5.67998">
        <ele>781.69</ele>
        <time>2018-06-01T09:16:00Z</time>
      </trkpt>
      <trkpt lat="45.32492" lon="5.68">
        <ele>781.69</ele>
        <time>2018-06-01T09:16:01Z</time>
      </trkpt>
      <trkpt lat="45.32498" lon="5.68001">
        <ele>781.69</ele>
        <time>2018-06-01T09:16:02Z</time>
      </trkpt>
      <trkpt lat="45.32504" lon="5.68">
        <ele>781.69</ele>
        <time>2018-06-01T09:16:03Z</time>
      </trkpt>
      <trkpt lat="45.3251" lon="5.67998">
        <ele>781.69</ele>
        <time>2018-06-01T09:16:04Z</time>
      </trkpt>
      <trkpt lat="45.32515" lon="5.67994">
        <ele>782.17</ele>
        <time>2018-06-01T09:16:05Z</time>
      </trkpt>
      <trkpt lat="45.32519" lon="5.6799">
        <ele>782.17</ele>
        <time>2018-06-01T09:16:06Z</time>
      </trkpt>
      <trkpt lat="45.32532" lon="5.67977">
        <ele>782.17</ele>
        <time>2018-06-01T09:16:09Z</time>
      </trkpt>
      <trkpt lat="45.32537" lon="5.67974">
        <ele>782.17</ele>
        <time>2018-06-01T09:16:10Z</time>
      </trkpt>
      <trkpt lat="45.32542" lon="5.67972">
        <ele>782.17</ele>
        <time>2018-06-01T09:16:11Z</time>
      </trkpt>
      <trkpt lat="45.32546" lon="5.67969">
        <ele>782.17</ele>
        <time>2018-06-01T09:16:12Z</time>
      </trkpt>
      <trkpt lat="45.3255" lon="5.67964">
        <ele>782.17</ele>
        <time>2018-06-01T09:16:13Z</time>
      </trkpt>
      <trkpt lat="45.32554" lon="5.67961">
        <ele>782.17</ele>
        <time>2018-06-01T09:16:14Z</time>
      </trkpt>
      <trkpt lat="45.32558" lon="5.67957">
        <ele>782.17</ele>
        <time>2018-06-01T09:16:15Z</time>
      </trkpt>
      <trkpt lat="45.32561" lon="5.67953">
        <ele>782.17</ele>
        <time>2018-06-01T09:16:16Z</time>
      </trkpt>
      <trkpt lat="45.32565" lon="5.67949">
        <ele>782.17</ele>
        <time>2018-06-01T09:16:17Z</time>
      </trkpt>
      <trkpt lat="45.32569" lon="5.67945">
        <ele>782.17</ele>
        <time>2018-06-01T09:16:18Z</time>
      </trkpt>
      <trkpt lat="45.32573" lon="5.67941">
        <ele>782.17</ele>
        <time>2018-06-01T09:16:19Z</time>
      </trkpt>
      <trkpt lat="45.32575" lon="5.67936">
        <ele>782.17</ele>
        <time>2018-06-01T09:16:20Z</time>
      </trkpt>
      <trkpt lat="45.32585" lon="5.6792">
        <ele>781.69</ele>
        <time>2018-06-01T09:16:23Z</time>
      </trkpt>
      <trkpt lat="45.32589" lon="5.67915">
        <ele>781.69</ele>
        <time>2018-06-01T09:16:24Z</time>
      </trkpt>
      <trkpt lat="45.32593" lon="5.6791">
        <ele>781.21</ele>
        <time>2018-06-01T09:16:25Z</time>
      </trkpt>
      <trkpt lat="45.32597" lon="5.67905">
        <ele>781.21</ele>
        <time>2018-06-01T09:16:26Z</time>
      </trkpt>
      <trkpt lat="45.32601" lon="5.67899">
        <ele>781.21</ele>
        <time>2018-06-01T09:16:27Z</time>
      </trkpt>
      <trkpt lat="45.32608" lon="5.67889">
        <ele>780.25</ele>
        <time>2018-06-01T09:16:29Z</time>
      </trkpt>
      <trkpt lat="45.32612" lon="5.67884">
        <ele>780.25</ele>
        <time>2018-06-01T09:16:30Z</time>
      </trkpt>
      <trkpt lat="45.32616" lon="5.67879">
        <ele>780.25</ele>
        <time>2018-06-01T09:16:31Z</time>
      </trkpt>
      <trkpt lat="45.3262" lon="5.67875">
        <ele>779.77</ele>
        <time>2018-06-01T09:16:32Z</time>
      </trkpt>
      <trkpt lat="45.32624" lon="5.6787">
        <ele>779.77</ele>
        <time>2018-06-01T09:16:33Z</time>
      </trkpt>
      <trkpt lat="45.32631" lon="5.6786">
        <ele>778.81</ele>
        <time>2018-06-01T09:16:35Z</time>
      </trkpt>
      <trkpt lat="45.32634" lon="5.67854">
        <ele>778.81</ele>
        <time>2018-06-01T09:16:36Z</time>
      </trkpt>
      <trkpt lat="45.32636" lon="5.67849">
        <ele>778.81</ele>
        <time>2018-06-01T09:16:37Z</time>
      </trkpt>
      <trkpt lat="45.32638" lon="5.67843">
        <ele>778.81</ele>
        <time>2018-06-01T09:16:38Z</time>
      </trkpt>
      <trkpt lat="45.32641" lon="5.67838">
        <ele>778.32</ele>
        <time>2018-06-01T09:16:39Z</time>
      </trkpt>
      <trkpt lat="45.3267" lon="5.67788">
        <ele>775.92</ele>
        <time>2018-06-01T09:16:50Z</time>
      </trkpt>
      <trkpt lat="45.32689" lon="5.67761">
        <ele>774.48</ele>
        <time>2018-06-01T09:16:55Z</time>
      </trkpt>
      <trkpt lat="45.32691" lon="5.67752">
        <ele>774.48</ele>
        <time>2018-06-01T09:16:56Z</time>
      </trkpt>
      <trkpt lat="45.32716" lon="5.67707">
        <ele>771.6</ele>
        <time>2018-06-01T09:17:02Z</time>
      </trkpt>
      <trkpt lat="45.32733" lon="5.67687">
        <ele>769.19</ele>
        <time>2018-06-01T09:17:05Z</time>
      </trkpt>
      <trkpt lat="45.32767" lon="5.6766">
        <ele>768.71</ele>
        <time>2018-06-01T09:17:10Z</time>
      </trkpt>
      <trkpt lat="45.32795" lon="5.6764">
        <ele>768.71</ele>
        <time>2018-06-01T09:17:15Z</time>
      </trkpt>
      <trkpt lat="45.32803" lon="5.67633">
        <ele>767.75</ele>
        <time>2018-06-01T09:17:17Z</time>
      </trkpt>
      <trkpt lat="45.32839" lon="5.67607">
        <ele>766.79</ele>
        <time>2018-06-01T09:17:23Z</time>
      </trkpt>
      <trkpt lat="45.32845" lon="5.67604">
        <ele>766.31</ele>
        <time>2018-06-01T09:17:24Z</time>
      </trkpt>
      <trkpt lat="45.32862" lon="5.67595">
        <ele>766.31</ele>
        <time>2018-06-01T09:17:27Z</time>
      </trkpt>
      <trkpt lat="45.32868" lon="5.67591">
        <ele>766.31</ele>
        <time>2018-06-01T09:17:28Z</time>
      </trkpt>
      <trkpt lat="45.32878" lon="5.67584">
        <ele>766.31</ele>
        <time>2018-06-01T09:17:30Z</time>
      </trkpt>
      <trkpt lat="45.32883" lon="5.6758">
        <ele>767.75</ele>
        <time>2018-06-01T09:17:31Z</time>
      </trkpt>
      <trkpt lat="45.32887" lon="5.67577">
        <ele>767.75</ele>
        <time>2018-06-01T09:17:32Z</time>
      </trkpt>
      <trkpt lat="45.32891" lon="5.67573">
        <ele>768.71</ele>
        <time>2018-06-01T09:17:33Z</time>
      </trkpt>
      <trkpt lat="45.32895" lon="5.6757">
        <ele>769.19</ele>
        <time>2018-06-01T09:17:34Z</time>
      </trkpt>
      <trkpt lat="45.32912" lon="5.67535">
        <ele>769.19</ele>
        <time>2018-06-01T09:17:42Z</time>
      </trkpt>
      <trkpt lat="45.32915" lon="5.67532">
        <ele>769.19</ele>
        <time>2018-06-01T09:17:43Z</time>
      </trkpt>
      <trkpt lat="45.32917" lon="5.67528">
        <ele>769.19</ele>
        <time>2018-06-01T09:17:44Z</time>
      </trkpt>
      <trkpt lat="45.32929" lon="5.67501">
        <ele>767.27</ele>
        <time>2018-06-01T09:17:49Z</time>
      </trkpt>
      <trkpt lat="45.32933" lon="5.67496">
        <ele>766.31</ele>
        <time>2018-06-01T09:17:50Z</time>
      </trkpt>
      <trkpt lat="45.32945" lon="5.67476">
        <ele>765.35</ele>
        <time>2018-06-01T09:17:54Z</time>
      </trkpt>
      <trkpt lat="45.32949" lon="5.67473">
        <ele>765.35</ele>
        <time>2018-06-01T09:17:55Z</time>
      </trkpt>
      <trkpt lat="45.32959" lon="5.67459">
        <ele>765.35</ele>
        <time>2018-06-01T09:18:00Z</time>
      </trkpt>
      <trkpt lat="45.32962" lon="5.67455">
        <ele>765.35</ele>
        <time>2018-06-01T09:18:04Z</time>
      </trkpt>
      <trkpt lat="45.32963" lon="5.67454">
        <ele>765.35</ele>
        <time>2018-06-01T09:18:05Z</time>
      </trkpt>
      <trkpt lat="45.32965" lon="5.6745">
        <ele>765.35</ele>
        <time>2018-06-01T09:18:14Z</time>
      </trkpt>
      <trkpt lat="45.32967" lon="5.67448">
        <ele>765.35</ele>
        <time>2018-06-01T09:18:15Z</time>
      </trkpt>
      <trkpt lat="45.32968" lon="5.67447">
        <ele>765.35</ele>
        <time>2018-06-01T09:18:16Z</time>
      </trkpt>
      <trkpt lat="45.33003" lon="5.67407">
        <ele>765.35</ele>
        <time>2018-06-01T09:18:36Z</time>
      </trkpt>
      <trkpt lat="45.33007" lon="5.67395">
        <ele>766.79</ele>
        <time>2018-06-01T09:18:40Z</time>
      </trkpt>
      <trkpt lat="45.33036" lon="5.67345">
        <ele>764.39</ele>
        <time>2018-06-01T09:18:54Z</time>
      </trkpt>
      <trkpt lat="45.33066" lon="5.67332">
        <ele>765.83</ele>
        <time>2018-06-01T09:19:04Z</time>
      </trkpt>
      <trkpt lat="45.33069" lon="5.67331">
        <ele>765.83</ele>
        <time>2018-06-01T09:19:05Z</time>
      </trkpt>
      <trkpt lat="45.33081" lon="5.67326">
        <ele>766.79</ele>
        <time>2018-06-01T09:19:10Z</time>
      </trkpt>
      <trkpt lat="45.33096" lon="5.67318">
        <ele>767.75</ele>
        <time>2018-06-01T09:19:17Z</time>
      </trkpt>
      <trkpt lat="45.33115" lon="5.67309">
        <ele>767.75</ele>
        <time>2018-06-01T09:19:25Z</time>
      </trkpt>
      <trkpt lat="45.33129" lon="5.67305">
        <ele>769.19</ele>
        <time>2018-06-01T09:19:31Z</time>
      </trkpt>
      <trkpt lat="45.33167" lon="5.67292">
        <ele>770.15</ele>
        <time>2018-06-01T09:19:47Z</time>
      </trkpt>
      <trkpt lat="45.33184" lon="5.67283">
        <ele>770.15</ele>
        <time>2018-06-01T09:19:54Z</time>
      </trkpt>
      <trkpt lat="45.33215" lon="5.67272">
        <ele>772.08</ele>
        <time>2018-06-01T09:20:06Z</time>
      </trkpt>
      <trkpt lat="45.33234" lon="5.67256">
        <ele>770.63</ele>
        <time>2018-06-01T09:20:12Z</time>
      </trkpt>
      <trkpt lat="45.33262" lon="5.67242">
        <ele>772.56</ele>
        <time>2018-06-01T09:20:22Z</time>
      </trkpt>
      <trkpt lat="45.33266" lon="5.67239">
        <ele>773.52</ele>
        <time>2018-06-01T09:20:24Z</time>
      </trkpt>
      <trkpt lat="45.33282" lon="5.67234">
        <ele>774.48</ele>
        <time>2018-06-01T09:20:32Z</time>
      </trkpt>
      <trkpt lat="45.33307" lon="5.67227">
        <ele>775.92</ele>
        <time>2018-06-01T09:20:46Z</time>
      </trkpt>
      <trkpt lat="45.3332" lon="5.6723">
        <ele>777.84</ele>
        <time>2018-06-01T09:20:57Z</time>
      </trkpt>
      <trkpt lat="45.33371" lon="5.6721">
        <ele>780.25</ele>
        <time>2018-06-01T09:21:08Z</time>
      </trkpt>
      <trkpt lat="45.33391" lon="5.67215">
        <ele>783.61</ele>
        <time>2018-06-01T09:21:19Z</time>
      </trkpt>
      <trkpt lat="45.33395" lon="5.67218">
        <ele>783.61</ele>
        <time>2018-06-01T09:21:21Z</time>
      </trkpt>
      <trkpt lat="45.334" lon="5.67225">
        <ele>785.05</ele>
        <time>2018-06-01T09:21:26Z</time>
      </trkpt>
      <trkpt lat="45.3343" lon="5.67238">
        <ele>785.53</ele>
        <time>2018-06-01T09:21:41Z</time>
      </trkpt>
      <trkpt lat="45.33461" lon="5.67258">
        <ele>786.02</ele>
        <time>2018-06-01T09:21:55Z</time>
      </trkpt>
      <trkpt lat="45.33467" lon="5.67266">
        <ele>787.46</ele>
        <time>2018-06-01T09:21:59Z</time>
      </trkpt>
      <trkpt lat="45.33469" lon="5.6727">
        <ele>787.94</ele>
        <time>2018-06-01T09:22:01Z</time>
      </trkpt>
      <trkpt lat="45.33477" lon="5.67284">
        <ele>787.94</ele>
        <time>2018-06-01T09:22:08Z</time>
      </trkpt>
      <trkpt lat="45.33484" lon="5.67308">
        <ele>784.57</ele>
        <time>2018-06-01T09:22:17Z</time>
      </trkpt>
      <trkpt lat="45.33484" lon="5.67317">
        <ele>781.69</ele>
        <time>2018-06-01T09:22:18Z</time>
      </trkpt>
      <trkpt lat="45.33497" lon="5.67348">
        <ele>780.25</ele>
        <time>2018-06-01T09:22:22Z</time>
      </trkpt>
      <trkpt lat="45.335" lon="5.67357">
        <ele>780.25</ele>
        <time>2018-06-01T09:22:23Z</time>
      </trkpt>
      <trkpt lat="45.33509" lon="5.67381">
        <ele>783.13</ele>
        <time>2018-06-01T09:22:27Z</time>
      </trkpt>
      <trkpt lat="45.33514" lon="5.67394">
        <ele>784.09</ele>
        <time>2018-06-01T09:22:30Z</time>
      </trkpt>
      <trkpt lat="45.33521" lon="5.67438">
        <ele>785.53</ele>
        <time>2018-06-01T09:22:42Z</time>
      </trkpt>
      <trkpt lat="45.33524" lon="5.67464">
        <ele>786.98</ele>
        <time>2018-06-01T09:22:52Z</time>
      </trkpt>
      <trkpt lat="45.33526" lon="5.67482">
        <ele>786.98</ele>
        <time>2018-06-01T09:22:58Z</time>
      </trkpt>
      <trkpt lat="45.33527" lon="5.67487">
        <ele>785.53</ele>
        <time>2018-06-01T09:23:00Z</time>
      </trkpt>
      <trkpt lat="45.33539" lon="5.67488">
        <ele>785.05</ele>
        <time>2018-06-01T09:23:05Z</time>
      </trkpt>
      <trkpt lat="45.33574" lon="5.67488">
        <ele>785.53</ele>
        <time>2018-06-01T09:23:20Z</time>
      </trkpt>
      <trkpt lat="45.33583" lon="5.67491">
        <ele>786.5</ele>
        <time>2018-06-01T09:23:24Z</time>
      </trkpt>
      <trkpt lat="45.33617" lon="5.67508">
        <ele>785.05</ele>
        <time>2018-06-01T09:23:34Z</time>
      </trkpt>
      <trkpt lat="45.33665" lon="5.67522">
        <ele>781.21</ele>
        <time>2018-06-01T09:23:47Z</time>
      </trkpt>
      <trkpt lat="45.3367" lon="5.67524">
        <ele>781.21</ele>
        <time>2018-06-01T09:23:48Z</time>
      </trkpt>
      <trkpt lat="45.33699" lon="5.67538">
        <ele>779.77</ele>
        <time>2018-06-01T09:23:53Z</time>
      </trkpt>
      <trkpt lat="45.33725" lon="5.67553">
        <ele>777.84</ele>
        <time>2018-06-01T09:23:58Z</time>
      </trkpt>
      <trkpt lat="45.33731" lon="5.67561">
        <ele>778.81</ele>
        <time>2018-06-01T09:24:01Z</time>
      </trkpt>
      <trkpt lat="45.33734" lon="5.67563">
        <ele>778.81</ele>
        <time>2018-06-01T09:24:02Z</time>
      </trkpt>
      <trkpt lat="45.33747" lon="5.67568">
        <ele>775.44</ele>
        <time>2018-06-01T09:24:06Z</time>
      </trkpt>
      <trkpt lat="45.33749" lon="5.67571">
        <ele>774.96</ele>
        <time>2018-06-01T09:24:07Z</time>
      </trkpt>
      <trkpt lat="45.33749" lon="5.67586">
        <ele>771.6</ele>
        <time>2018-06-01T09:24:12Z</time>
      </trkpt>
      <trkpt lat="45.33736" lon="5.6761">
        <ele>771.6</ele>
        <time>2018-06-01T09:24:20Z</time>
      </trkpt>
      <trkpt lat="45.3374" lon="5.67615">
        <ele>773.04</ele>
        <time>2018-06-01T09:24:24Z</time>
      </trkpt>
      <trkpt lat="45.33761" lon="5.67633">
        <ele>775.92</ele>
        <time>2018-06-01T09:24:38Z</time>
      </trkpt>
      <trkpt lat="45.33764" lon="5.67634">
        <ele>776.4</ele>
        <time>2018-06-01T09:24:40Z</time>
      </trkpt>
      <trkpt lat="45.33769" lon="5.67639">
        <ele>777.84</ele>
        <time>2018-06-01T09:24:57Z</time>
      </trkpt>
      <trkpt lat="45.33773" lon="5.6764">
        <ele>777.84</ele>
        <time>2018-06-01T09:25:04Z</time>
      </trkpt>
      <trkpt lat="45.33781" lon="5.67644">
        <ele>778.32</ele>
        <time>2018-06-01T09:25:09Z</time>
      </trkpt>
      <trkpt lat="45.33785" lon="5.67645">
        <ele>778.32</ele>
        <time>2018-06-01T09:25:12Z</time>
      </trkpt>
      <trkpt lat="45.33787" lon="5.67643">
        <ele>778.81</ele>
        <time>2018-06-01T09:25:14Z</time>
      </trkpt>
      <trkpt lat="45.33795" lon="5.67637">
        <ele>781.69</ele>
        <time>2018-06-01T09:25:21Z</time>
      </trkpt>
      <trkpt lat="45.33798" lon="5.67635">
        <ele>782.65</ele>
        <time>2018-06-01T09:25:33Z</time>
      </trkpt>
      <trkpt lat="45.33806" lon="5.67633">
        <ele>785.05</ele>
        <time>2018-06-01T09:25:47Z</time>
      </trkpt>
      <trkpt lat="45.33812" lon="5.67627">
        <ele>788.42</ele>
        <time>2018-06-01T09:26:03Z</time>
      </trkpt>
      <trkpt lat="45.33819" lon="5.6762">
        <ele>791.78</ele>
        <time>2018-06-01T09:26:18Z</time>
      </trkpt>
      <trkpt lat="45.33829" lon="5.67616">
        <ele>794.67</ele>
        <time>2018-06-01T09:26:34Z</time>
      </trkpt>
      <trkpt lat="45.33839" lon="5.67614">
        <ele>797.55</ele>
        <time>2018-06-01T09:26:49Z</time>
      </trkpt>
      <trkpt lat="45.33848" lon="5.67609">
        <ele>800.44</ele>
        <time>2018-06-01T09:27:04Z</time>
      </trkpt>
      <trkpt lat="45.33861" lon="5.67608">
        <ele>803.32</ele>
        <time>2018-06-01T09:27:21Z</time>
      </trkpt>
      <trkpt lat="45.3387" lon="5.67601">
        <ele>806.2</ele>
        <time>2018-06-01T09:27:37Z</time>
      </trkpt>
      <trkpt lat="45.33881" lon="5.67596">
        <ele>809.09</ele>
        <time>2018-06-01T09:27:52Z</time>
      </trkpt>
      <trkpt lat="45.33893" lon="5.67593">
        <ele>811.01</ele>
        <time>2018-06-01T09:28:08Z</time>
      </trkpt>
      <trkpt lat="45.339" lon="5.67593">
        <ele>811.97</ele>
        <time>2018-06-01T09:28:16Z</time>
      </trkpt>
      <trkpt lat="45.33915" lon="5.67591">
        <ele>813.89</ele>
        <time>2018-06-01T09:28:34Z</time>
      </trkpt>
      <trkpt lat="45.3392" lon="5.67591">
        <ele>813.89</ele>
        <time>2018-06-01T09:29:04Z</time>
      </trkpt>
      <trkpt lat="45.33922" lon="5.6758">
        <ele>814.37</ele>
        <time>2018-06-01T09:29:34Z</time>
      </trkpt>
      <trkpt lat="45.33922" lon="5.67579">
        <ele>814.37</ele>
        <time>2018-06-01T09:29:36Z</time>
      </trkpt>
      <trkpt lat="45.33917" lon="5.67585">
        <ele>814.37</ele>
        <time>2018-06-01T09:29:40Z</time>
      </trkpt>
      <trkpt lat="45.33911" lon="5.67587">
        <ele>811.97</ele>
        <time>2018-06-01T09:29:42Z</time>
      </trkpt>
      <trkpt lat="45.33894" lon="5.67592">
        <ele>809.09</ele>
        <time>2018-06-01T09:29:47Z</time>
      </trkpt>
      <trkpt lat="45.33877" lon="5.67596">
        <ele>804.28</ele>
        <time>2018-06-01T09:29:50Z</time>
      </trkpt>
      <trkpt lat="45.33868" lon="5.67599">
        <ele>802.36</ele>
        <time>2018-06-01T09:29:52Z</time>
      </trkpt>
      <trkpt lat="45.33853" lon="5.67607">
        <ele>797.55</ele>
        <time>2018-06-01T09:29:56Z</time>
      </trkpt>
      <trkpt lat="45.33842" lon="5.67611">
        <ele>795.63</ele>
        <time>2018-06-01T09:29:59Z</time>
      </trkpt>
      <trkpt lat="45.33826" lon="5.67623">
        <ele>792.74</ele>
        <time>2018-06-01T09:30:10Z</time>
      </trkpt>
      <trkpt lat="45.33814" lon="5.67627">
        <ele>789.38</ele>
        <time>2018-06-01T09:30:14Z</time>
      </trkpt>
      <trkpt lat="45.33805" lon="5.67634">
        <ele>785.53</ele>
        <time>2018-06-01T09:30:19Z</time>
      </trkpt>
      <trkpt lat="45.33805" lon="5.67636">
        <ele>785.53</ele>
        <time>2018-06-01T09:30:20Z</time>
      </trkpt>
      <trkpt lat="45.33794" lon="5.67644">
        <ele>782.65</ele>
        <time>2018-06-01T09:30:26Z</time>
      </trkpt>
      <trkpt lat="45.33792" lon="5.67649">
        <ele>782.17</ele>
        <time>2018-06-01T09:30:33Z</time>
      </trkpt>
      <trkpt lat="45.33773" lon="5.67642">
        <ele>781.69</ele>
        <time>2018-06-01T09:30:44Z</time>
      </trkpt>
      <trkpt lat="45.33778" lon="5.67646">
        <ele>781.21</ele>
        <time>2018-06-01T09:31:04Z</time>
      </trkpt>
      <trkpt lat="45.33775" lon="5.67643">
        <ele>781.69</ele>
        <time>2018-06-01T09:31:29Z</time>
      </trkpt>
      <trkpt lat="45.33777" lon="5.67652">
        <ele>783.13</ele>
        <time>2018-06-01T09:31:54Z</time>
      </trkpt>
      <trkpt lat="45.33778" lon="5.67653">
        <ele>783.61</ele>
        <time>2018-06-01T09:31:55Z</time>
      </trkpt>
      <trkpt lat="45.33782" lon="5.67659">
        <ele>786.02</ele>
        <time>2018-06-01T09:32:05Z</time>
      </trkpt>
      <trkpt lat="45.33784" lon="5.67664">
        <ele>787.46</ele>
        <time>2018-06-01T09:32:11Z</time>
      </trkpt>
      <trkpt lat="45.33784" lon="5.67672">
        <ele>788.9</ele>
        <time>2018-06-01T09:32:18Z</time>
      </trkpt>
      <trkpt lat="45.33782" lon="5.67683">
        <ele>791.3</ele>
        <time>2018-06-01T09:32:30Z</time>
      </trkpt>
      <trkpt lat="45.33776" lon="5.6769">
        <ele>794.19</ele>
        <time>2018-06-01T09:32:42Z</time>
      </trkpt>
      <trkpt lat="45.33775" lon="5.67697">
        <ele>795.15</ele>
        <time>2018-06-01T09:32:57Z</time>
      </trkpt>
      <trkpt lat="45.3377" lon="5.67709">
        <ele>797.55</ele>
        <time>2018-06-01T09:33:13Z</time>
      </trkpt>
      <trkpt lat="45.33765" lon="5.67719">
        <ele>800.44</ele>
        <time>2018-06-01T09:33:29Z</time>
      </trkpt>
      <trkpt lat="45.33758" lon="5.67727">
        <ele>802.84</ele>
        <time>2018-06-01T09:33:42Z</time>
      </trkpt>
      <trkpt lat="45.33755" lon="5.6773">
        <ele>805.72</ele>
        <time>2018-06-01T09:33:59Z</time>
      </trkpt>
      <trkpt lat="45.33749" lon="5.67743">
        <ele>807.64</ele>
        <time>2018-06-01T09:34:15Z</time>
      </trkpt>
      <trkpt lat="45.33744" lon="5.67761">
        <ele>810.53</ele>
        <time>2018-06-01T09:34:32Z</time>
      </trkpt>
      <trkpt lat="45.33734" lon="5.67775">
        <ele>812.93</ele>
        <time>2018-06-01T09:34:44Z</time>
      </trkpt>
      <trkpt lat="45.33725" lon="5.67781">
        <ele>815.34</ele>
        <time>2018-06-01T09:35:00Z</time>
      </trkpt>
      <trkpt lat="45.33723" lon="5.6779">
        <ele>817.26</ele>
        <time>2018-06-01T09:35:10Z</time>
      </trkpt>
      <trkpt lat="45.33714" lon="5.67798">
        <ele>819.66</ele>
        <time>2018-06-01T09:35:24Z</time>
      </trkpt>
      <trkpt lat="45.33705" lon="5.67806">
        <ele>822.55</ele>
        <time>2018-06-01T09:35:39Z</time>
      </trkpt>
      <trkpt lat="45.33697" lon="5.67817">
        <ele>825.43</ele>
        <time>2018-06-01T09:35:54Z</time>
      </trkpt>
      <trkpt lat="45.33692" lon="5.67827">
        <ele>827.83</ele>
        <time>2018-06-01T09:36:08Z</time>
      </trkpt>
      <trkpt lat="45.33698" lon="5.67841">
        <ele>830.24</ele>
        <time>2018-06-01T09:36:25Z</time>
      </trkpt>
      <trkpt lat="45.33698" lon="5.67852">
        <ele>832.64</ele>
        <time>2018-06-01T09:36:39Z</time>
      </trkpt>
      <trkpt lat="45.33694" lon="5.67863">
        <ele>834.08</ele>
        <time>2018-06-01T09:36:52Z</time>
      </trkpt>
      <trkpt lat="45.33687" lon="5.67867">
        <ele>836.96</ele>
        <time>2018-06-01T09:37:05Z</time>
      </trkpt>
      <trkpt lat="45.3368" lon="5.6787">
        <ele>837.93</ele>
        <time>2018-06-01T09:37:20Z</time>
      </trkpt>
      <trkpt lat="45.33673" lon="5.67878">
        <ele>840.33</ele>
        <time>2018-06-01T09:37:33Z</time>
      </trkpt>
      <trkpt lat="45.33673" lon="5.67886">
        <ele>842.73</ele>
        <time>2018-06-01T09:37:46Z</time>
      </trkpt>
      <trkpt lat="45.33675" lon="5.67895">
        <ele>845.62</ele>
        <time>2018-06-01T09:38:00Z</time>
      </trkpt>
      <trkpt lat="45.33678" lon="5.67898">
        <ele>846.1</ele>
        <time>2018-06-01T09:38:05Z</time>
      </trkpt>
      <trkpt lat="45.33691" lon="5.67907">
        <ele>849.46</ele>
        <time>2018-06-01T09:38:23Z</time>
      </trkpt>
      <trkpt lat="45.33696" lon="5.67907">
        <ele>851.87</ele>
        <time>2018-06-01T09:38:36Z</time>
      </trkpt>
      <trkpt lat="45.33706" lon="5.67916">
        <ele>854.75</ele>
        <time>2018-06-01T09:38:53Z</time>
      </trkpt>
      <trkpt lat="45.33713" lon="5.67922">
        <ele>856.67</ele>
        <time>2018-06-01T09:39:08Z</time>
      </trkpt>
      <trkpt lat="45.33721" lon="5.67934">
        <ele>859.08</ele>
        <time>2018-06-01T09:39:26Z</time>
      </trkpt>
      <trkpt lat="45.33725" lon="5.67941">
        <ele>861</ele>
        <time>2018-06-01T09:39:41Z</time>
      </trkpt>
      <trkpt lat="45.3373" lon="5.67951">
        <ele>862.92</ele>
        <time>2018-06-01T09:39:57Z</time>
      </trkpt>
      <trkpt lat="45.33736" lon="5.67963">
        <ele>864.36</ele>
        <time>2018-06-01T09:40:06Z</time>
      </trkpt>
      <trkpt lat="45.33739" lon="5.67974">
        <ele>865.8</ele>
        <time>2018-06-01T09:40:15Z</time>
      </trkpt>
      <trkpt lat="45.33747" lon="5.67987">
        <ele>868.69</ele>
        <time>2018-06-01T09:40:34Z</time>
      </trkpt>
      <trkpt lat="45.33759" lon="5.67999">
        <ele>871.09</ele>
        <time>2018-06-01T09:40:52Z</time>
      </trkpt>
      <trkpt lat="45.33766" lon="5.68008">
        <ele>874.46</ele>
        <time>2018-06-01T09:41:10Z</time>
      </trkpt>
      <trkpt lat="45.3377" lon="5.68013">
        <ele>876.38</ele>
        <time>2018-06-01T09:41:26Z</time>
      </trkpt>
      <trkpt lat="45.33772" lon="5.68009">
        <ele>878.78</ele>
        <time>2018-06-01T09:41:44Z</time>
      </trkpt>
      <trkpt lat="45.33774" lon="5.68">
        <ele>881.19</ele>
        <time>2018-06-01T09:42:00Z</time>
      </trkpt>
      <trkpt lat="45.33786" lon="5.67986">
        <ele>884.55</ele>
        <time>2018-06-01T09:42:20Z</time>
      </trkpt>
      <trkpt lat="45.33804" lon="5.67986">
        <ele>886.47</ele>
        <time>2018-06-01T09:42:37Z</time>
      </trkpt>
      <trkpt lat="45.33819" lon="5.67983">
        <ele>888.88</ele>
        <time>2018-06-01T09:42:54Z</time>
      </trkpt>
      <trkpt lat="45.33824" lon="5.67989">
        <ele>891.76</ele>
        <time>2018-06-01T09:43:12Z</time>
      </trkpt>
      <trkpt lat="45.33829" lon="5.67997">
        <ele>893.68</ele>
        <time>2018-06-01T09:43:28Z</time>
      </trkpt>
      <trkpt lat="45.33836" lon="5.68004">
        <ele>897.05</ele>
        <time>2018-06-01T09:43:42Z</time>
      </trkpt>
      <trkpt lat="45.33845" lon="5.68018">
        <ele>900.41</ele>
        <time>2018-06-01T09:43:59Z</time>
      </trkpt>
      <trkpt lat="45.3385" lon="5.68027">
        <ele>902.82</ele>
        <time>2018-06-01T09:44:18Z</time>
      </trkpt>
      <trkpt lat="45.33859" lon="5.68037">
        <ele>905.7</ele>
        <time>2018-06-01T09:44:35Z</time>
      </trkpt>
      <trkpt lat="45.33863" lon="5.68047">
        <ele>908.1</ele>
        <time>2018-06-01T09:44:51Z</time>
      </trkpt>
      <trkpt lat="45.33869" lon="5.68059">
        <ele>910.99</ele>
        <time>2018-06-01T09:45:08Z</time>
      </trkpt>
      <trkpt lat="45.33873" lon="5.68065">
        <ele>913.39</ele>
        <time>2018-06-01T09:45:25Z</time>
      </trkpt>
      <trkpt lat="45.33881" lon="5.68073">
        <ele>916.75</ele>
        <time>2018-06-01T09:45:44Z</time>
      </trkpt>
      <trkpt lat="45.33883" lon="5.68078">
        <ele>919.16</ele>
        <time>2018-06-01T09:46:02Z</time>
      </trkpt>
      <trkpt lat="45.33885" lon="5.68084">
        <ele>920.12</ele>
        <time>2018-06-01T09:46:24Z</time>
      </trkpt>
      <trkpt lat="45.33896" lon="5.68091">
        <ele>920.12</ele>
        <time>2018-06-01T09:46:53Z</time>
      </trkpt>
      <trkpt lat="45.33904" lon="5.68093">
        <ele>921.08</ele>
        <time>2018-06-01T09:47:10Z</time>
      </trkpt>
      <trkpt lat="45.33913" lon="5.68095">
        <ele>922.04</ele>
        <time>2018-06-01T09:47:19Z</time>
      </trkpt>
      <trkpt lat="45.33933" lon="5.681">
        <ele>924.45</ele>
        <time>2018-06-01T09:47:36Z</time>
      </trkpt>
      <trkpt lat="45.33934" lon="5.681">
        <ele>924.93</ele>
        <time>2018-06-01T09:47:37Z</time>
      </trkpt>
      <trkpt lat="45.3395" lon="5.68099">
        <ele>927.81</ele>
        <time>2018-06-01T09:47:53Z</time>
      </trkpt>
      <trkpt lat="45.33953" lon="5.68098">
        <ele>928.29</ele>
        <time>2018-06-01T09:47:56Z</time>
      </trkpt>
      <trkpt lat="45.33961" lon="5.68093">
        <ele>929.73</ele>
        <time>2018-06-01T09:48:11Z</time>
      </trkpt>
      <trkpt lat="45.33968" lon="5.68094">
        <ele>930.69</ele>
        <time>2018-06-01T09:48:28Z</time>
      </trkpt>
      <trkpt lat="45.33973" lon="5.68091">
        <ele>932.62</ele>
        <time>2018-06-01T09:48:43Z</time>
      </trkpt>
      <trkpt lat="45.33984" lon="5.68088">
        <ele>935.5</ele>
        <time>2018-06-01T09:49:02Z</time>
      </trkpt>
      <trkpt lat="45.33989" lon="5.68083">
        <ele>938.86</ele>
        <time>2018-06-01T09:49:17Z</time>
      </trkpt>
      <trkpt lat="45.33996" lon="5.68074">
        <ele>941.75</ele>
        <time>2018-06-01T09:49:34Z</time>
      </trkpt>
      <trkpt lat="45.34009" lon="5.68069">
        <ele>943.19</ele>
        <time>2018-06-01T09:49:50Z</time>
      </trkpt>
      <trkpt lat="45.34023" lon="5.68065">
        <ele>945.59</ele>
        <time>2018-06-01T09:50:06Z</time>
      </trkpt>
      <trkpt lat="45.34033" lon="5.6805">
        <ele>948.48</ele>
        <time>2018-06-01T09:50:26Z</time>
      </trkpt>
      <trkpt lat="45.34038" lon="5.68041">
        <ele>951.36</ele>
        <time>2018-06-01T09:50:44Z</time>
      </trkpt>
      <trkpt lat="45.34046" lon="5.68037">
        <ele>954.25</ele>
        <time>2018-06-01T09:51:03Z</time>
      </trkpt>
      <trkpt lat="45.34055" lon="5.68035">
        <ele>956.65</ele>
        <time>2018-06-01T09:51:20Z</time>
      </trkpt>
      <trkpt lat="45.34067" lon="5.68039">
        <ele>959.53</ele>
        <time>2018-06-01T09:51:39Z</time>
      </trkpt>
      <trkpt lat="45.34072" lon="5.68037">
        <ele>962.42</ele>
        <time>2018-06-01T09:51:55Z</time>
      </trkpt>
      <trkpt lat="45.34081" lon="5.68042">
        <ele>964.82</ele>
        <time>2018-06-01T09:52:09Z</time>
      </trkpt>
      <trkpt lat="45.34088" lon="5.68048">
        <ele>967.22</ele>
        <time>2018-06-01T09:52:27Z</time>
      </trkpt>
      <trkpt lat="45.34092" lon="5.68051">
        <ele>967.7</ele>
        <time>2018-06-01T09:52:44Z</time>
      </trkpt>
      <trkpt lat="45.34097" lon="5.68056">
        <ele>967.7</ele>
        <time>2018-06-01T09:53:20Z</time>
      </trkpt>
      <trkpt lat="45.34093" lon="5.68056">
        <ele>968.67</ele>
        <time>2018-06-01T09:53:48Z</time>
      </trkpt>
      <trkpt lat="45.34096" lon="5.68053">
        <ele>968.67</ele>
        <time>2018-06-01T09:54:07Z</time>
      </trkpt>
      <trkpt lat="45.34098" lon="5.68049">
        <ele>968.67</ele>
        <time>2018-06-01T09:54:44Z</time>
      </trkpt>
      <trkpt lat="45.34097" lon="5.68052">
        <ele>968.67</ele>
        <time>2018-06-01T09:55:02Z</time>
      </trkpt>
      <trkpt lat="45.34096" lon="5.68056">
        <ele>968.67</ele>
        <time>2018-06-01T09:55:19Z</time>
      </trkpt>
      <trkpt lat="45.34093" lon="5.68059">
        <ele>969.15</ele>
        <time>2018-06-01T09:55:46Z</time>
      </trkpt>
      <trkpt lat="45.34095" lon="5.6806">
        <ele>969.15</ele>
        <time>2018-06-01T09:55:51Z</time>
      </trkpt>
      <trkpt lat="45.34094" lon="5.68084">
        <ele>966.74</ele>
        <time>2018-06-01T09:55:57Z</time>
      </trkpt>
      <trkpt lat="45.34102" lon="5.68119">
        <ele>963.38</ele>
        <time>2018-06-01T09:56:06Z</time>
      </trkpt>
      <trkpt lat="45.3412" lon="5.68157">
        <ele>960.49</ele>
        <time>2018-06-01T09:56:16Z</time>
      </trkpt>
      <trkpt lat="45.34145" lon="5.68186">
        <ele>956.65</ele>
        <time>2018-06-01T09:56:25Z</time>
      </trkpt>
      <trkpt lat="45.34155" lon="5.68193">
        <ele>954.73</ele>
        <time>2018-06-01T09:56:29Z</time>
      </trkpt>
      <trkpt lat="45.34158" lon="5.68197">
        <ele>953.77</ele>
        <time>2018-06-01T09:56:30Z</time>
      </trkpt>
      <trkpt lat="45.34163" lon="5.68201">
        <ele>952.8</ele>
        <time>2018-06-01T09:56:31Z</time>
      </trkpt>
      <trkpt lat="45.34169" lon="5.68204">
        <ele>951.36</ele>
        <time>2018-06-01T09:56:32Z</time>
      </trkpt>
      <trkpt lat="45.34171" lon="5.68205">
        <ele>950.88</ele>
        <time>2018-06-01T09:56:33Z</time>
      </trkpt>
      <trkpt lat="45.34197" lon="5.68217">
        <ele>947.04</ele>
        <time>2018-06-01T09:56:37Z</time>
      </trkpt>
      <trkpt lat="45.34218" lon="5.68226">
        <ele>943.67</ele>
        <time>2018-06-01T09:56:40Z</time>
      </trkpt>
      <trkpt lat="45.3425" lon="5.68262">
        <ele>941.75</ele>
        <time>2018-06-01T09:56:44Z</time>
      </trkpt>
      <trkpt lat="45.34286" lon="5.68318">
        <ele>937.42</ele>
        <time>2018-06-01T09:56:50Z</time>
      </trkpt>
      <trkpt lat="45.34309" lon="5.68351">
        <ele>934.54</ele>
        <time>2018-06-01T09:56:57Z</time>
      </trkpt>
      <trkpt lat="45.34332" lon="5.68374">
        <ele>930.69</ele>
        <time>2018-06-01T09:57:07Z</time>
      </trkpt>
      <trkpt lat="45.34345" lon="5.68386">
        <ele>931.17</ele>
        <time>2018-06-01T09:57:18Z</time>
      </trkpt>
      <trkpt lat="45.34354" lon="5.68404">
        <ele>930.69</ele>
        <time>2018-06-01T09:57:31Z</time>
      </trkpt>
      <trkpt lat="45.34356" lon="5.68412">
        <ele>929.73</ele>
        <time>2018-06-01T09:57:46Z</time>
      </trkpt>
      <trkpt lat="45.34357" lon="5.68425">
        <ele>930.21</ele>
        <time>2018-06-01T09:57:57Z</time>
      </trkpt>
      <trkpt lat="45.34356" lon="5.68432">
        <ele>929.25</ele>
        <time>2018-06-01T09:58:06Z</time>
      </trkpt>
      <trkpt lat="45.34357" lon="5.68445">
        <ele>928.29</ele>
        <time>2018-06-01T09:58:12Z</time>
      </trkpt>
      <trkpt lat="45.34355" lon="5.6847">
        <ele>925.41</ele>
        <time>2018-06-01T09:58:17Z</time>
      </trkpt>
      <trkpt lat="45.34354" lon="5.68484">
        <ele>923.48</ele>
        <time>2018-06-01T09:58:19Z</time>
      </trkpt>
      <trkpt lat="45.34354" lon="5.68503">
        <ele>920.6</ele>
        <time>2018-06-01T09:58:21Z</time>
      </trkpt>
      <trkpt lat="45.34362" lon="5.68553">
        <ele>916.75</ele>
        <time>2018-06-01T09:58:27Z</time>
      </trkpt>
      <trkpt lat="45.34363" lon="5.68566">
        <ele>915.31</ele>
        <time>2018-06-01T09:58:29Z</time>
      </trkpt>
      <trkpt lat="45.34365" lon="5.68593">
        <ele>913.39</ele>
        <time>2018-06-01T09:58:32Z</time>
      </trkpt>
      <trkpt lat="45.34366" lon="5.68597">
        <ele>913.39</ele>
        <time>2018-06-01T09:58:33Z</time>
      </trkpt>
      <trkpt lat="45.34372" lon="5.68612">
        <ele>912.91</ele>
        <time>2018-06-01T09:58:35Z</time>
      </trkpt>
      <trkpt lat="45.34376" lon="5.6862">
        <ele>911.95</ele>
        <time>2018-06-01T09:58:36Z</time>
      </trkpt>
      <trkpt lat="45.34381" lon="5.68632">
        <ele>911.47</ele>
        <time>2018-06-01T09:58:38Z</time>
      </trkpt>
      <trkpt lat="45.34383" lon="5.68642">
        <ele>910.51</ele>
        <time>2018-06-01T09:58:40Z</time>
      </trkpt>
      <trkpt lat="45.3439" lon="5.68667">
        <ele>907.14</ele>
        <time>2018-06-01T09:58:44Z</time>
      </trkpt>
      <trkpt lat="45.34395" lon="5.68692">
        <ele>905.22</ele>
        <time>2018-06-01T09:58:47Z</time>
      </trkpt>
      <trkpt lat="45.34399" lon="5.68701">
        <ele>904.26</ele>
        <time>2018-06-01T09:58:48Z</time>
      </trkpt>
      <trkpt lat="45.34403" lon="5.6871">
        <ele>903.3</ele>
        <time>2018-06-01T09:58:49Z</time>
      </trkpt>
      <trkpt lat="45.34408" lon="5.68718">
        <ele>902.33</ele>
        <time>2018-06-01T09:58:50Z</time>
      </trkpt>
      <trkpt lat="45.34422" lon="5.68742">
        <ele>899.45</ele>
        <time>2018-06-01T09:58:53Z</time>
      </trkpt>
      <trkpt lat="45.34426" lon="5.68752">
        <ele>898.49</ele>
        <time>2018-06-01T09:58:54Z</time>
      </trkpt>
      <trkpt lat="45.34433" lon="5.68772">
        <ele>897.05</ele>
        <time>2018-06-01T09:58:56Z</time>
      </trkpt>
      <trkpt lat="45.34436" lon="5.68783">
        <ele>896.09</ele>
        <time>2018-06-01T09:58:57Z</time>
      </trkpt>
      <trkpt lat="45.3444" lon="5.68794">
        <ele>895.12</ele>
        <time>2018-06-01T09:58:58Z</time>
      </trkpt>
      <trkpt lat="45.34445" lon="5.68804">
        <ele>894.16</ele>
        <time>2018-06-01T09:58:59Z</time>
      </trkpt>
      <trkpt lat="45.34459" lon="5.68836">
        <ele>891.28</ele>
        <time>2018-06-01T09:59:02Z</time>
      </trkpt>
      <trkpt lat="45.34475" lon="5.68869">
        <ele>887.91</ele>
        <time>2018-06-01T09:59:05Z</time>
      </trkpt>
      <trkpt lat="45.34488" lon="5.68887">
        <ele>885.99</ele>
        <time>2018-06-01T09:59:07Z</time>
      </trkpt>
      <trkpt lat="45.3451" lon="5.68914">
        <ele>883.11</ele>
        <time>2018-06-01T09:59:10Z</time>
      </trkpt>
      <trkpt lat="45.34524" lon="5.68927">
        <ele>881.67</ele>
        <time>2018-06-01T09:59:12Z</time>
      </trkpt>
      <trkpt lat="45.34529" lon="5.68934">
        <ele>882.15</ele>
        <time>2018-06-01T09:59:13Z</time>
      </trkpt>
      <trkpt lat="45.34534" lon="5.68941">
        <ele>882.15</ele>
        <time>2018-06-01T09:59:14Z</time>
      </trkpt>
      <trkpt lat="45.34539" lon="5.68949">
        <ele>880.22</ele>
        <time>2018-06-01T09:59:15Z</time>
      </trkpt>
      <trkpt lat="45.34544" lon="5.68958">
        <ele>879.26</ele>
        <time>2018-06-01T09:59:16Z</time>
      </trkpt>
      <trkpt lat="45.34549" lon="5.68965">
        <ele>878.3</ele>
        <time>2018-06-01T09:59:17Z</time>
      </trkpt>
      <trkpt lat="45.34553" lon="5.68968">
        <ele>878.3</ele>
        <time>2018-06-01T09:59:18Z</time>
      </trkpt>
      <trkpt lat="45.34555" lon="5.68968">
        <ele>878.3</ele>
        <time>2018-06-01T09:59:19Z</time>
      </trkpt>
      <trkpt lat="45.34552" lon="5.68967">
        <ele>878.3</ele>
        <time>2018-06-01T09:59:23Z</time>
      </trkpt>
      <trkpt lat="45.34551" lon="5.68967">
        <ele>877.82</ele>
        <time>2018-06-01T09:59:24Z</time>
      </trkpt>
      <trkpt lat="45.34552" lon="5.68965">
        <ele>877.82</ele>
        <time>2018-06-01T09:59:25Z</time>
      </trkpt>
      <trkpt lat="45.3458" lon="5.68956">
        <ele>877.34</ele>
        <time>2018-06-01T09:59:37Z</time>
      </trkpt>
      <trkpt lat="45.34612" lon="5.68975">
        <ele>876.86</ele>
        <time>2018-06-01T09:59:52Z</time>
      </trkpt>
      <trkpt lat="45.34641" lon="5.68998">
        <ele>876.86</ele>
        <time>2018-06-01T10:00:05Z</time>
      </trkpt>
      <trkpt lat="45.34652" lon="5.68999">
        <ele>876.86</ele>
        <time>2018-06-01T10:00:20Z</time>
      </trkpt>
      <trkpt lat="45.34653" lon="5.68999">
        <ele>876.86</ele>
        <time>2018-06-01T10:00:21Z</time>
      </trkpt>
      <trkpt lat="45.34655" lon="5.68999">
        <ele>876.86</ele>
        <time>2018-06-01T10:00:22Z</time>
      </trkpt>
      <trkpt lat="45.34656" lon="5.69">
        <ele>876.86</ele>
        <time>2018-06-01T10:00:23Z</time>
      </trkpt>
      <trkpt lat="45.34657" lon="5.69001">
        <ele>878.3</ele>
        <time>2018-06-01T10:00:24Z</time>
      </trkpt>
      <trkpt lat="45.34666" lon="5.69003">
        <ele>878.78</ele>
        <time>2018-06-01T10:00:29Z</time>
      </trkpt>
      <trkpt lat="45.34672" lon="5.69006">
        <ele>878.78</ele>
        <time>2018-06-01T10:00:32Z</time>
      </trkpt>
      <trkpt lat="45.347" lon="5.69019">
        <ele>880.22</ele>
        <time>2018-06-01T10:00:45Z</time>
      </trkpt>
      <trkpt lat="45.34701" lon="5.69019">
        <ele>880.22</ele>
        <time>2018-06-01T10:00:46Z</time>
      </trkpt>
      <trkpt lat="45.34736" lon="5.69026">
        <ele>881.67</ele>
        <time>2018-06-01T10:01:01Z</time>
      </trkpt>
      <trkpt lat="45.34772" lon="5.69026">
        <ele>883.11</ele>
        <time>2018-06-01T10:01:16Z</time>
      </trkpt>
      <trkpt lat="45.34807" lon="5.6902">
        <ele>885.03</ele>
        <time>2018-06-01T10:01:31Z</time>
      </trkpt>
      <trkpt lat="45.34834" lon="5.69014">
        <ele>885.99</ele>
        <time>2018-06-01T10:01:44Z</time>
      </trkpt>
      <trkpt lat="45.34846" lon="5.6902">
        <ele>886.95</ele>
        <time>2018-06-01T10:01:49Z</time>
      </trkpt>
      <trkpt lat="45.34847" lon="5.69018">
        <ele>886.95</ele>
        <time>2018-06-01T10:01:50Z</time>
      </trkpt>
      <trkpt lat="45.34859" lon="5.69009">
        <ele>887.43</ele>
        <time>2018-06-01T10:01:56Z</time>
      </trkpt>
      <trkpt lat="45.34863" lon="5.69009">
        <ele>887.43</ele>
        <time>2018-06-01T10:01:58Z</time>
      </trkpt>
      <trkpt lat="45.34866" lon="5.6901">
        <ele>887.43</ele>
        <time>2018-06-01T10:01:59Z</time>
      </trkpt>
      <trkpt lat="45.34877" lon="5.69">
        <ele>888.4</ele>
        <time>2018-06-01T10:02:05Z</time>
      </trkpt>
      <trkpt lat="45.3488" lon="5.69001">
        <ele>888.4</ele>
        <time>2018-06-01T10:02:06Z</time>
      </trkpt>
      <trkpt lat="45.34903" lon="5.68989">
        <ele>889.36</ele>
        <time>2018-06-01T10:02:18Z</time>
      </trkpt>
      <trkpt lat="45.34938" lon="5.68979">
        <ele>890.32</ele>
        <time>2018-06-01T10:02:31Z</time>
      </trkpt>
      <trkpt lat="45.34963" lon="5.68969">
        <ele>891.76</ele>
        <time>2018-06-01T10:02:42Z</time>
      </trkpt>
      <trkpt lat="45.3497" lon="5.68969">
        <ele>891.76</ele>
        <time>2018-06-01T10:02:44Z</time>
      </trkpt>
      <trkpt lat="45.34987" lon="5.68964">
        <ele>892.72</ele>
        <time>2018-06-01T10:02:50Z</time>
      </trkpt>
      <trkpt lat="45.34989" lon="5.68963">
        <ele>892.72</ele>
        <time>2018-06-01T10:02:51Z</time>
      </trkpt>
      <trkpt lat="45.35022" lon="5.68954">
        <ele>894.64</ele>
        <time>2018-06-01T10:03:03Z</time>
      </trkpt>
      <trkpt lat="45.35029" lon="5.68952">
        <ele>895.12</ele>
        <time>2018-06-01T10:03:05Z</time>
      </trkpt>
      <trkpt lat="45.3506" lon="5.68927">
        <ele>896.09</ele>
        <time>2018-06-01T10:03:17Z</time>
      </trkpt>
      <trkpt lat="45.35085" lon="5.68898">
        <ele>898.01</ele>
        <time>2018-06-01T10:03:30Z</time>
      </trkpt>
      <trkpt lat="45.35111" lon="5.68874">
        <ele>899.45</ele>
        <time>2018-06-01T10:03:41Z</time>
      </trkpt>
      <trkpt lat="45.35135" lon="5.6883">
        <ele>900.89</ele>
        <time>2018-06-01T10:03:54Z</time>
      </trkpt>
      <trkpt lat="45.35157" lon="5.68777">
        <ele>903.78</ele>
        <time>2018-06-01T10:04:09Z</time>
      </trkpt>
      <trkpt lat="45.35173" lon="5.68749">
        <ele>904.26</ele>
        <time>2018-06-01T10:04:18Z</time>
      </trkpt>
      <trkpt lat="45.35174" lon="5.68746">
        <ele>904.26</ele>
        <time>2018-06-01T10:04:19Z</time>
      </trkpt>
      <trkpt lat="45.35209" lon="5.68702">
        <ele>905.7</ele>
        <time>2018-06-01T10:04:35Z</time>
      </trkpt>
      <trkpt lat="45.35217" lon="5.68696">
        <ele>906.18</ele>
        <time>2018-06-01T10:04:38Z</time>
      </trkpt>
      <trkpt lat="45.35255" lon="5.68712">
        <ele>907.62</ele>
        <time>2018-06-01T10:04:53Z</time>
      </trkpt>
      <trkpt lat="45.35283" lon="5.68763">
        <ele>907.62</ele>
        <time>2018-06-01T10:05:08Z</time>
      </trkpt>
      <trkpt lat="45.35291" lon="5.6883">
        <ele>909.06</ele>
        <time>2018-06-01T10:05:22Z</time>
      </trkpt>
      <trkpt lat="45.35298" lon="5.68894">
        <ele>911.47</ele>
        <time>2018-06-01T10:05:35Z</time>
      </trkpt>
      <trkpt lat="45.3532" lon="5.68949">
        <ele>912.43</ele>
        <time>2018-06-01T10:05:48Z</time>
      </trkpt>
      <trkpt lat="45.35355" lon="5.68987">
        <ele>913.39</ele>
        <time>2018-06-01T10:06:00Z</time>
      </trkpt>
      <trkpt lat="45.3537" lon="5.69047">
        <ele>915.31</ele>
        <time>2018-06-01T10:06:13Z</time>
      </trkpt>
      <trkpt lat="45.35392" lon="5.69098">
        <ele>916.27</ele>
        <time>2018-06-01T10:06:28Z</time>
      </trkpt>
      <trkpt lat="45.35398" lon="5.69102">
        <ele>916.75</ele>
        <time>2018-06-01T10:06:31Z</time>
      </trkpt>
      <trkpt lat="45.35431" lon="5.69092">
        <ele>917.72</ele>
        <time>2018-06-01T10:06:43Z</time>
      </trkpt>
      <trkpt lat="45.35455" lon="5.69076">
        <ele>918.68</ele>
        <time>2018-06-01T10:06:52Z</time>
      </trkpt>
      <trkpt lat="45.35499" lon="5.69051">
        <ele>919.16</ele>
        <time>2018-06-01T10:07:05Z</time>
      </trkpt>
      <trkpt lat="45.35536" lon="5.69022">
        <ele>920.12</ele>
        <time>2018-06-01T10:07:18Z</time>
      </trkpt>
      <trkpt lat="45.35555" lon="5.69013">
        <ele>920.6</ele>
        <time>2018-06-01T10:07:25Z</time>
      </trkpt>
      <trkpt lat="45.35556" lon="5.69014">
        <ele>920.6</ele>
        <time>2018-06-01T10:07:26Z</time>
      </trkpt>
      <trkpt lat="45.3559" lon="5.69052">
        <ele>921.56</ele>
        <time>2018-06-01T10:07:40Z</time>
      </trkpt>
      <trkpt lat="45.35624" lon="5.69064">
        <ele>922.04</ele>
        <time>2018-06-01T10:07:53Z</time>
      </trkpt>
      <trkpt lat="45.35654" lon="5.69059">
        <ele>922.52</ele>
        <time>2018-06-01T10:08:00Z</time>
      </trkpt>
      <trkpt lat="45.35657" lon="5.69062">
        <ele>922.52</ele>
        <time>2018-06-01T10:08:01Z</time>
      </trkpt>
      <trkpt lat="45.35662" lon="5.69069">
        <ele>922.52</ele>
        <time>2018-06-01T10:08:03Z</time>
      </trkpt>
      <trkpt lat="45.35665" lon="5.69135">
        <ele>922.52</ele>
        <time>2018-06-01T10:08:19Z</time>
      </trkpt>
      <trkpt lat="45.35668" lon="5.69207">
        <ele>922.52</ele>
        <time>2018-06-01T10:08:33Z</time>
      </trkpt>
      <trkpt lat="45.35677" lon="5.69286">
        <ele>922.52</ele>
        <time>2018-06-01T10:08:48Z</time>
      </trkpt>
      <trkpt lat="45.357" lon="5.69341">
        <ele>922.52</ele>
        <time>2018-06-01T10:09:01Z</time>
      </trkpt>
      <trkpt lat="45.35702" lon="5.69357">
        <ele>922.52</ele>
        <time>2018-06-01T10:09:04Z</time>
      </trkpt>
      <trkpt lat="45.35716" lon="5.69411">
        <ele>922.52</ele>
        <time>2018-06-01T10:09:15Z</time>
      </trkpt>
      <trkpt lat="45.35741" lon="5.69461">
        <ele>922.52</ele>
        <time>2018-06-01T10:09:26Z</time>
      </trkpt>
      <trkpt lat="45.35744" lon="5.69466">
        <ele>922.52</ele>
        <time>2018-06-01T10:09:27Z</time>
      </trkpt>
      <trkpt lat="45.35747" lon="5.69471">
        <ele>922.52</ele>
        <time>2018-06-01T10:09:28Z</time>
      </trkpt>
      <trkpt lat="45.35754" lon="5.69479">
        <ele>922.52</ele>
        <time>2018-06-01T10:09:30Z</time>
      </trkpt>
      <trkpt lat="45.35779" lon="5.69504">
        <ele>922.52</ele>
        <time>2018-06-01T10:09:37Z</time>
      </trkpt>
      <trkpt lat="45.35783" lon="5.69506">
        <ele>922.52</ele>
        <time>2018-06-01T10:09:38Z</time>
      </trkpt>
      <trkpt lat="45.3583" lon="5.69506">
        <ele>921.08</ele>
        <time>2018-06-01T10:09:48Z</time>
      </trkpt>
      <trkpt lat="45.35853" lon="5.69504">
        <ele>921.08</ele>
        <time>2018-06-01T10:09:53Z</time>
      </trkpt>
      <trkpt lat="45.35858" lon="5.69504">
        <ele>921.08</ele>
        <time>2018-06-01T10:09:54Z</time>
      </trkpt>
      <trkpt lat="45.35904" lon="5.69498">
        <ele>921.08</ele>
        <time>2018-06-01T10:10:05Z</time>
      </trkpt>
      <trkpt lat="45.35914" lon="5.69502">
        <ele>921.08</ele>
        <time>2018-06-01T10:10:07Z</time>
      </trkpt>
      <trkpt lat="45.35934" lon="5.69507">
        <ele>920.6</ele>
        <time>2018-06-01T10:10:11Z</time>
      </trkpt>
      <trkpt lat="45.35938" lon="5.69507">
        <ele>920.6</ele>
        <time>2018-06-01T10:10:12Z</time>
      </trkpt>
      <trkpt lat="45.35961" lon="5.6951">
        <ele>920.6</ele>
        <time>2018-06-01T10:10:17Z</time>
      </trkpt>
      <trkpt lat="45.3597" lon="5.6951">
        <ele>920.6</ele>
        <time>2018-06-01T10:10:19Z</time>
      </trkpt>
      <trkpt lat="45.35979" lon="5.69513">
        <ele>920.6</ele>
        <time>2018-06-01T10:10:21Z</time>
      </trkpt>
      <trkpt lat="45.35984" lon="5.69517">
        <ele>919.64</ele>
        <time>2018-06-01T10:10:22Z</time>
      </trkpt>
      <trkpt lat="45.35988" lon="5.69523">
        <ele>919.16</ele>
        <time>2018-06-01T10:10:23Z</time>
      </trkpt>
      <trkpt lat="45.3599" lon="5.69529">
        <ele>918.68</ele>
        <time>2018-06-01T10:10:24Z</time>
      </trkpt>
      <trkpt lat="45.35993" lon="5.69537">
        <ele>917.72</ele>
        <time>2018-06-01T10:10:25Z</time>
      </trkpt>
      <trkpt lat="45.35994" lon="5.69543">
        <ele>917.72</ele>
        <time>2018-06-01T10:10:26Z</time>
      </trkpt>
      <trkpt lat="45.35996" lon="5.69552">
        <ele>916.75</ele>
        <time>2018-06-01T10:10:27Z</time>
      </trkpt>
      <trkpt lat="45.35998" lon="5.69571">
        <ele>914.83</ele>
        <time>2018-06-01T10:10:29Z</time>
      </trkpt>
      <trkpt lat="45.36004" lon="5.69615">
        <ele>911.47</ele>
        <time>2018-06-01T10:10:33Z</time>
      </trkpt>
      <trkpt lat="45.36007" lon="5.6964">
        <ele>910.03</ele>
        <time>2018-06-01T10:10:35Z</time>
      </trkpt>
      <trkpt lat="45.3601" lon="5.69649">
        <ele>909.06</ele>
        <time>2018-06-01T10:10:36Z</time>
      </trkpt>
      <trkpt lat="45.36014" lon="5.69658">
        <ele>908.1</ele>
        <time>2018-06-01T10:10:37Z</time>
      </trkpt>
      <trkpt lat="45.36019" lon="5.69662">
        <ele>908.58</ele>
        <time>2018-06-01T10:10:38Z</time>
      </trkpt>
      <trkpt lat="45.36052" lon="5.69675">
        <ele>904.74</ele>
        <time>2018-06-01T10:10:42Z</time>
      </trkpt>
      <trkpt lat="45.3606" lon="5.69675">
        <ele>903.78</ele>
        <time>2018-06-01T10:10:43Z</time>
      </trkpt>
      <trkpt lat="45.36075" lon="5.69673">
        <ele>903.3</ele>
        <time>2018-06-01T10:10:45Z</time>
      </trkpt>
      <trkpt lat="45.36099" lon="5.69672">
        <ele>902.33</ele>
        <time>2018-06-01T10:10:48Z</time>
      </trkpt>
      <trkpt lat="45.36107" lon="5.69673">
        <ele>901.85</ele>
        <time>2018-06-01T10:10:49Z</time>
      </trkpt>
      <trkpt lat="45.36114" lon="5.69678">
        <ele>901.85</ele>
        <time>2018-06-01T10:10:50Z</time>
      </trkpt>
      <trkpt lat="45.36119" lon="5.69684">
        <ele>901.37</ele>
        <time>2018-06-01T10:10:51Z</time>
      </trkpt>
      <trkpt lat="45.36124" lon="5.69693">
        <ele>901.37</ele>
        <time>2018-06-01T10:10:52Z</time>
      </trkpt>
      <trkpt lat="45.36127" lon="5.69703">
        <ele>901.37</ele>
        <time>2018-06-01T10:10:53Z</time>
      </trkpt>
      <trkpt lat="45.36128" lon="5.69709">
        <ele>901.37</ele>
        <time>2018-06-01T10:10:54Z</time>
      </trkpt>
      <trkpt lat="45.36128" lon="5.69722">
        <ele>900.89</ele>
        <time>2018-06-01T10:10:55Z</time>
      </trkpt>
      <trkpt lat="45.36128" lon="5.69732">
        <ele>900.89</ele>
        <time>2018-06-01T10:10:56Z</time>
      </trkpt>
      <trkpt lat="45.36125" lon="5.6976">
        <ele>900.89</ele>
        <time>2018-06-01T10:10:59Z</time>
      </trkpt>
      <trkpt lat="45.36123" lon="5.69777">
        <ele>900.89</ele>
        <time>2018-06-01T10:11:01Z</time>
      </trkpt>
      <trkpt lat="45.36121" lon="5.69786">
        <ele>900.41</ele>
        <time>2018-06-01T10:11:02Z</time>
      </trkpt>
      <trkpt lat="45.36118" lon="5.69793">
        <ele>900.41</ele>
        <time>2018-06-01T10:11:03Z</time>
      </trkpt>
      <trkpt lat="45.36113" lon="5.69798">
        <ele>900.41</ele>
        <time>2018-06-01T10:11:04Z</time>
      </trkpt>
      <trkpt lat="45.36109" lon="5.69802">
        <ele>899.93</ele>
        <time>2018-06-01T10:11:05Z</time>
      </trkpt>
      <trkpt lat="45.36103" lon="5.69805">
        <ele>899.45</ele>
        <time>2018-06-01T10:11:06Z</time>
      </trkpt>
      <trkpt lat="45.36097" lon="5.69807">
        <ele>899.45</ele>
        <time>2018-06-01T10:11:07Z</time>
      </trkpt>
      <trkpt lat="45.36092" lon="5.6981">
        <ele>899.45</ele>
        <time>2018-06-01T10:11:08Z</time>
      </trkpt>
      <trkpt lat="45.36087" lon="5.69814">
        <ele>899.45</ele>
        <time>2018-06-01T10:11:09Z</time>
      </trkpt>
      <trkpt lat="45.36058" lon="5.6984">
        <ele>898.49</ele>
        <time>2018-06-01T10:11:15Z</time>
      </trkpt>
      <trkpt lat="45.36055" lon="5.69847">
        <ele>897.53</ele>
        <time>2018-06-01T10:11:16Z</time>
      </trkpt>
      <trkpt lat="45.36042" lon="5.6989">
        <ele>895.12</ele>
        <time>2018-06-01T10:11:21Z</time>
      </trkpt>
      <trkpt lat="45.3604" lon="5.69901">
        <ele>894.64</ele>
        <time>2018-06-01T10:11:22Z</time>
      </trkpt>
      <trkpt lat="45.3604" lon="5.69911">
        <ele>894.64</ele>
        <time>2018-06-01T10:11:23Z</time>
      </trkpt>
      <trkpt lat="45.3604" lon="5.69922">
        <ele>893.2</ele>
        <time>2018-06-01T10:11:24Z</time>
      </trkpt>
      <trkpt lat="45.3604" lon="5.69933">
        <ele>892.72</ele>
        <time>2018-06-01T10:11:25Z</time>
      </trkpt>
      <trkpt lat="45.36041" lon="5.69945">
        <ele>892.24</ele>
        <time>2018-06-01T10:11:26Z</time>
      </trkpt>
      <trkpt lat="45.36047" lon="5.69979">
        <ele>889.84</ele>
        <time>2018-06-01T10:11:29Z</time>
      </trkpt>
      <trkpt lat="45.36062" lon="5.70027">
        <ele>886.47</ele>
        <time>2018-06-01T10:11:33Z</time>
      </trkpt>
      <trkpt lat="45.36067" lon="5.70039">
        <ele>885.99</ele>
        <time>2018-06-01T10:11:34Z</time>
      </trkpt>
      <trkpt lat="45.36072" lon="5.70049">
        <ele>885.03</ele>
        <time>2018-06-01T10:11:35Z</time>
      </trkpt>
      <trkpt lat="45.36096" lon="5.7009">
        <ele>881.67</ele>
        <time>2018-06-01T10:11:39Z</time>
      </trkpt>
      <trkpt lat="45.36122" lon="5.70139">
        <ele>878.3</ele>
        <time>2018-06-01T10:11:43Z</time>
      </trkpt>
      <trkpt lat="45.3615" lon="5.70176">
        <ele>875.42</ele>
        <time>2018-06-01T10:11:47Z</time>
      </trkpt>
      <trkpt lat="45.36157" lon="5.70184">
        <ele>875.42</ele>
        <time>2018-06-01T10:11:48Z</time>
      </trkpt>
      <trkpt lat="45.36188" lon="5.70216">
        <ele>871.57</ele>
        <time>2018-06-01T10:11:52Z</time>
      </trkpt>
      <trkpt lat="45.36232" lon="5.70281">
        <ele>869.17</ele>
        <time>2018-06-01T10:11:59Z</time>
      </trkpt>
      <trkpt lat="45.36239" lon="5.70287">
        <ele>869.65</ele>
        <time>2018-06-01T10:12:00Z</time>
      </trkpt>
      <trkpt lat="45.36265" lon="5.70314">
        <ele>871.09</ele>
        <time>2018-06-01T10:12:05Z</time>
      </trkpt>
      <trkpt lat="45.36269" lon="5.70319">
        <ele>871.09</ele>
        <time>2018-06-01T10:12:06Z</time>
      </trkpt>
      <trkpt lat="45.36273" lon="5.70324">
        <ele>871.09</ele>
        <time>2018-06-01T10:12:07Z</time>
      </trkpt>
      <trkpt lat="45.36277" lon="5.70329">
        <ele>871.57</ele>
        <time>2018-06-01T10:12:08Z</time>
      </trkpt>
      <trkpt lat="45.36281" lon="5.70333">
        <ele>871.57</ele>
        <time>2018-06-01T10:12:09Z</time>
      </trkpt>
      <trkpt lat="45.36292" lon="5.70346">
        <ele>871.57</ele>
        <time>2018-06-01T10:12:12Z</time>
      </trkpt>
      <trkpt lat="45.36295" lon="5.7035">
        <ele>871.57</ele>
        <time>2018-06-01T10:12:13Z</time>
      </trkpt>
      <trkpt lat="45.36299" lon="5.70354">
        <ele>871.57</ele>
        <time>2018-06-01T10:12:14Z</time>
      </trkpt>
      <trkpt lat="45.36315" lon="5.7037">
        <ele>871.57</ele>
        <time>2018-06-01T10:12:18Z</time>
      </trkpt>
      <trkpt lat="45.36323" lon="5.70382">
        <ele>871.57</ele>
        <time>2018-06-01T10:12:20Z</time>
      </trkpt>
      <trkpt lat="45.36326" lon="5.70388">
        <ele>870.13</ele>
        <time>2018-06-01T10:12:21Z</time>
      </trkpt>
      <trkpt lat="45.36329" lon="5.70396">
        <ele>870.13</ele>
        <time>2018-06-01T10:12:22Z</time>
      </trkpt>
      <trkpt lat="45.36331" lon="5.70403">
        <ele>869.65</ele>
        <time>2018-06-01T10:12:23Z</time>
      </trkpt>
      <trkpt lat="45.36333" lon="5.70412">
        <ele>868.69</ele>
        <time>2018-06-01T10:12:24Z</time>
      </trkpt>
      <trkpt lat="45.36334" lon="5.7042">
        <ele>868.69</ele>
        <time>2018-06-01T10:12:25Z</time>
      </trkpt>
      <trkpt lat="45.3634" lon="5.70459">
        <ele>864.36</ele>
        <time>2018-06-01T10:12:29Z</time>
      </trkpt>
      <trkpt lat="45.36343" lon="5.70469">
        <ele>863.4</ele>
        <time>2018-06-01T10:12:30Z</time>
      </trkpt>
      <trkpt lat="45.36347" lon="5.7048">
        <ele>862.92</ele>
        <time>2018-06-01T10:12:31Z</time>
      </trkpt>
      <trkpt lat="45.36352" lon="5.705">
        <ele>861</ele>
        <time>2018-06-01T10:12:33Z</time>
      </trkpt>
      <trkpt lat="45.36352" lon="5.70509">
        <ele>861</ele>
        <time>2018-06-01T10:12:34Z</time>
      </trkpt>
      <trkpt lat="45.36352" lon="5.70516">
        <ele>859.56</ele>
        <time>2018-06-01T10:12:35Z</time>
      </trkpt>
      <trkpt lat="45.3635" lon="5.70536">
        <ele>856.19</ele>
        <time>2018-06-01T10:12:37Z</time>
      </trkpt>
      <trkpt lat="45.36347" lon="5.70552">
        <ele>854.75</ele>
        <time>2018-06-01T10:12:39Z</time>
      </trkpt>
      <trkpt lat="45.36343" lon="5.70562">
        <ele>853.31</ele>
        <time>2018-06-01T10:12:40Z</time>
      </trkpt>
      <trkpt lat="45.36336" lon="5.70571">
        <ele>852.83</ele>
        <time>2018-06-01T10:12:41Z</time>
      </trkpt>
      <trkpt lat="45.3632" lon="5.7059">
        <ele>849.46</ele>
        <time>2018-06-01T10:12:43Z</time>
      </trkpt>
      <trkpt lat="45.36312" lon="5.70601">
        <ele>848.02</ele>
        <time>2018-06-01T10:12:44Z</time>
      </trkpt>
      <trkpt lat="45.36306" lon="5.70612">
        <ele>846.58</ele>
        <time>2018-06-01T10:12:45Z</time>
      </trkpt>
      <trkpt lat="45.36294" lon="5.70635">
        <ele>845.14</ele>
        <time>2018-06-01T10:12:47Z</time>
      </trkpt>
      <trkpt lat="45.36273" lon="5.70649">
        <ele>844.66</ele>
        <time>2018-06-01T10:12:49Z</time>
      </trkpt>
      <trkpt lat="45.36255" lon="5.70659">
        <ele>843.21</ele>
        <time>2018-06-01T10:12:52Z</time>
      </trkpt>
      <trkpt lat="45.36251" lon="5.70663">
        <ele>842.25</ele>
        <time>2018-06-01T10:12:53Z</time>
      </trkpt>
      <trkpt lat="45.36249" lon="5.70667">
        <ele>842.25</ele>
        <time>2018-06-01T10:12:54Z</time>
      </trkpt>
      <trkpt lat="45.36248" lon="5.70672">
        <ele>841.29</ele>
        <time>2018-06-01T10:12:55Z</time>
      </trkpt>
      <trkpt lat="45.36247" lon="5.70679">
        <ele>840.81</ele>
        <time>2018-06-01T10:12:56Z</time>
      </trkpt>
      <trkpt lat="45.36246" lon="5.70686">
        <ele>839.85</ele>
        <time>2018-06-01T10:12:57Z</time>
      </trkpt>
      <trkpt lat="45.36241" lon="5.70724">
        <ele>836</ele>
        <time>2018-06-01T10:13:01Z</time>
      </trkpt>
      <trkpt lat="45.36232" lon="5.70752">
        <ele>832.64</ele>
        <time>2018-06-01T10:13:04Z</time>
      </trkpt>
      <trkpt lat="45.36226" lon="5.70763">
        <ele>831.2</ele>
        <time>2018-06-01T10:13:05Z</time>
      </trkpt>
      <trkpt lat="45.3622" lon="5.70773">
        <ele>829.76</ele>
        <time>2018-06-01T10:13:06Z</time>
      </trkpt>
      <trkpt lat="45.36199" lon="5.70803">
        <ele>825.91</ele>
        <time>2018-06-01T10:13:09Z</time>
      </trkpt>
      <trkpt lat="45.36194" lon="5.70815">
        <ele>824.95</ele>
        <time>2018-06-01T10:13:10Z</time>
      </trkpt>
      <trkpt lat="45.36188" lon="5.70828">
        <ele>823.51</ele>
        <time>2018-06-01T10:13:11Z</time>
      </trkpt>
      <trkpt lat="45.36183" lon="5.70839">
        <ele>823.03</ele>
        <time>2018-06-01T10:13:12Z</time>
      </trkpt>
      <trkpt lat="45.36176" lon="5.70847">
        <ele>822.06</ele>
        <time>2018-06-01T10:13:13Z</time>
      </trkpt>
      <trkpt lat="45.36167" lon="5.70854">
        <ele>820.62</ele>
        <time>2018-06-01T10:13:14Z</time>
      </trkpt>
      <trkpt lat="45.36158" lon="5.70859">
        <ele>819.66</ele>
        <time>2018-06-01T10:13:15Z</time>
      </trkpt>
      <trkpt lat="45.36149" lon="5.70862">
        <ele>818.22</ele>
        <time>2018-06-01T10:13:16Z</time>
      </trkpt>
      <trkpt lat="45.3614" lon="5.70865">
        <ele>817.26</ele>
        <time>2018-06-01T10:13:17Z</time>
      </trkpt>
      <trkpt lat="45.3613" lon="5.70871">
        <ele>815.82</ele>
        <time>2018-06-01T10:13:18Z</time>
      </trkpt>
      <trkpt lat="45.36121" lon="5.7088">
        <ele>814.37</ele>
        <time>2018-06-01T10:13:19Z</time>
      </trkpt>
      <trkpt lat="45.36115" lon="5.7089">
        <ele>812.45</ele>
        <time>2018-06-01T10:13:20Z</time>
      </trkpt>
      <trkpt lat="45.36109" lon="5.70904">
        <ele>811.97</ele>
        <time>2018-06-01T10:13:21Z</time>
      </trkpt>
      <trkpt lat="45.36106" lon="5.70917">
        <ele>810.53</ele>
        <time>2018-06-01T10:13:22Z</time>
      </trkpt>
      <trkpt lat="45.36105" lon="5.70932">
        <ele>809.09</ele>
        <time>2018-06-01T10:13:23Z</time>
      </trkpt>
      <trkpt lat="45.36106" lon="5.70945">
        <ele>808.61</ele>
        <time>2018-06-01T10:13:24Z</time>
      </trkpt>
      <trkpt lat="45.36108" lon="5.70958">
        <ele>807.16</ele>
        <time>2018-06-01T10:13:25Z</time>
      </trkpt>
      <trkpt lat="45.36109" lon="5.70969">
        <ele>806.68</ele>
        <time>2018-06-01T10:13:26Z</time>
      </trkpt>
      <trkpt lat="45.3611" lon="5.70981">
        <ele>805.72</ele>
        <time>2018-06-01T10:13:27Z</time>
      </trkpt>
      <trkpt lat="45.3611" lon="5.70986">
        <ele>805.72</ele>
        <time>2018-06-01T10:13:28Z</time>
      </trkpt>
      <trkpt lat="45.3611" lon="5.70999">
        <ele>803.8</ele>
        <time>2018-06-01T10:13:29Z</time>
      </trkpt>
      <trkpt lat="45.36106" lon="5.71026">
        <ele>800.44</ele>
        <time>2018-06-01T10:13:31Z</time>
      </trkpt>
      <trkpt lat="45.36098" lon="5.71063">
        <ele>797.07</ele>
        <time>2018-06-01T10:13:34Z</time>
      </trkpt>
      <trkpt lat="45.36092" lon="5.71091">
        <ele>794.19</ele>
        <time>2018-06-01T10:13:36Z</time>
      </trkpt>
      <trkpt lat="45.36089" lon="5.71105">
        <ele>793.22</ele>
        <time>2018-06-01T10:13:37Z</time>
      </trkpt>
      <trkpt lat="45.36085" lon="5.71133">
        <ele>791.3</ele>
        <time>2018-06-01T10:13:39Z</time>
      </trkpt>
      <trkpt lat="45.3608" lon="5.71149">
        <ele>788.9</ele>
        <time>2018-06-01T10:13:40Z</time>
      </trkpt>
      <trkpt lat="45.36073" lon="5.71196">
        <ele>785.53</ele>
        <time>2018-06-01T10:13:43Z</time>
      </trkpt>
      <trkpt lat="45.3607" lon="5.71212">
        <ele>784.57</ele>
        <time>2018-06-01T10:13:44Z</time>
      </trkpt>
      <trkpt lat="45.36069" lon="5.71226">
        <ele>783.61</ele>
        <time>2018-06-01T10:13:45Z</time>
      </trkpt>
      <trkpt lat="45.36067" lon="5.7125">
        <ele>782.65</ele>
        <time>2018-06-01T10:13:47Z</time>
      </trkpt>
      <trkpt lat="45.36066" lon="5.71259">
        <ele>782.65</ele>
        <time>2018-06-01T10:13:48Z</time>
      </trkpt>
      <trkpt lat="45.36064" lon="5.71263">
        <ele>782.65</ele>
        <time>2018-06-01T10:13:49Z</time>
      </trkpt>
      <trkpt lat="45.36062" lon="5.71265">
        <ele>782.65</ele>
        <time>2018-06-01T10:13:50Z</time>
      </trkpt>
      <trkpt lat="45.36059" lon="5.71261">
        <ele>783.13</ele>
        <time>2018-06-01T10:14:05Z</time>
      </trkpt>
      <trkpt lat="45.36058" lon="5.71261">
        <ele>783.13</ele>
        <time>2018-06-01T10:14:07Z</time>
      </trkpt>
      <trkpt lat="45.36059" lon="5.71261">
        <ele>783.13</ele>
        <time>2018-06-01T10:14:08Z</time>
      </trkpt>
      <trkpt lat="45.36049" lon="5.71262">
        <ele>782.17</ele>
        <time>2018-06-01T10:14:18Z</time>
      </trkpt>
      <trkpt lat="45.36039" lon="5.71264">
        <ele>782.17</ele>
        <time>2018-06-01T10:14:40Z</time>
      </trkpt>
      <trkpt lat="45.36025" lon="5.7127">
        <ele>782.17</ele>
        <time>2018-06-01T10:15:04Z</time>
      </trkpt>
      <trkpt lat="45.36027" lon="5.7127">
        <ele>782.65</ele>
        <time>2018-06-01T10:15:16Z</time>
      </trkpt>
      <trkpt lat="45.36038" lon="5.71257">
        <ele>780.73</ele>
        <time>2018-06-01T10:15:21Z</time>
      </trkpt>
      <trkpt lat="45.36043" lon="5.71252">
        <ele>780.25</ele>
        <time>2018-06-01T10:15:22Z</time>
      </trkpt>
      <trkpt lat="45.36047" lon="5.71247">
        <ele>780.25</ele>
        <time>2018-06-01T10:15:23Z</time>
      </trkpt>
      <trkpt lat="45.36058" lon="5.71233">
        <ele>778.81</ele>
        <time>2018-06-01T10:15:26Z</time>
      </trkpt>
      <trkpt lat="45.36062" lon="5.71228">
        <ele>777.84</ele>
        <time>2018-06-01T10:15:27Z</time>
      </trkpt>
      <trkpt lat="45.36071" lon="5.71213">
        <ele>774.96</ele>
        <time>2018-06-01T10:15:30Z</time>
      </trkpt>
      <trkpt lat="45.3608" lon="5.71197">
        <ele>772.08</ele>
        <time>2018-06-01T10:15:33Z</time>
      </trkpt>
      <trkpt lat="45.36085" lon="5.7119">
        <ele>771.11</ele>
        <time>2018-06-01T10:15:34Z</time>
      </trkpt>
      <trkpt lat="45.36104" lon="5.7117">
        <ele>767.27</ele>
        <time>2018-06-01T10:15:37Z</time>
      </trkpt>
      <trkpt lat="45.36127" lon="5.7115">
        <ele>764.39</ele>
        <time>2018-06-01T10:15:40Z</time>
      </trkpt>
      <trkpt lat="45.36148" lon="5.71129">
        <ele>761.02</ele>
        <time>2018-06-01T10:15:44Z</time>
      </trkpt>
      <trkpt lat="45.3615" lon="5.71125">
        <ele>760.54</ele>
        <time>2018-06-01T10:15:45Z</time>
      </trkpt>
      <trkpt lat="45.36152" lon="5.71122">
        <ele>760.06</ele>
        <time>2018-06-01T10:15:46Z</time>
      </trkpt>
      <trkpt lat="45.36154" lon="5.7112">
        <ele>759.58</ele>
        <time>2018-06-01T10:15:47Z</time>
      </trkpt>
      <trkpt lat="45.36157" lon="5.71119">
        <ele>759.1</ele>
        <time>2018-06-01T10:15:48Z</time>
      </trkpt>
      <trkpt lat="45.36161" lon="5.71116">
        <ele>759.1</ele>
        <time>2018-06-01T10:15:49Z</time>
      </trkpt>
      <trkpt lat="45.36165" lon="5.71112">
        <ele>757.66</ele>
        <time>2018-06-01T10:15:50Z</time>
      </trkpt>
      <trkpt lat="45.36169" lon="5.71109">
        <ele>758.14</ele>
        <time>2018-06-01T10:15:51Z</time>
      </trkpt>
      <trkpt lat="45.36172" lon="5.71107">
        <ele>757.66</ele>
        <time>2018-06-01T10:15:52Z</time>
      </trkpt>
      <trkpt lat="45.36176" lon="5.71104">
        <ele>757.66</ele>
        <time>2018-06-01T10:15:53Z</time>
      </trkpt>
      <trkpt lat="45.36179" lon="5.71101">
        <ele>757.66</ele>
        <time>2018-06-01T10:15:54Z</time>
      </trkpt>
      <trkpt lat="45.36181" lon="5.71097">
        <ele>758.14</ele>
        <time>2018-06-01T10:15:55Z</time>
      </trkpt>
      <trkpt lat="45.36183" lon="5.71094">
        <ele>758.14</ele>
        <time>2018-06-01T10:15:56Z</time>
      </trkpt>
      <trkpt lat="45.36186" lon="5.71091">
        <ele>758.14</ele>
        <time>2018-06-01T10:15:57Z</time>
      </trkpt>
      <trkpt lat="45.36194" lon="5.71083">
        <ele>757.18</ele>
        <time>2018-06-01T10:15:59Z</time>
      </trkpt>
      <trkpt lat="45.3621" lon="5.71074">
        <ele>753.81</ele>
        <time>2018-06-01T10:16:03Z</time>
      </trkpt>
      <trkpt lat="45.36215" lon="5.71074">
        <ele>752.85</ele>
        <time>2018-06-01T10:16:04Z</time>
      </trkpt>
      <trkpt lat="45.36221" lon="5.71074">
        <ele>751.89</ele>
        <time>2018-06-01T10:16:05Z</time>
      </trkpt>
      <trkpt lat="45.36226" lon="5.71073">
        <ele>750.45</ele>
        <time>2018-06-01T10:16:06Z</time>
      </trkpt>
      <trkpt lat="45.36231" lon="5.71071">
        <ele>749</ele>
        <time>2018-06-01T10:16:07Z</time>
      </trkpt>
      <trkpt lat="45.36235" lon="5.71069">
        <ele>747.56</ele>
        <time>2018-06-01T10:16:08Z</time>
      </trkpt>
      <trkpt lat="45.3624" lon="5.71066">
        <ele>746.6</ele>
        <time>2018-06-01T10:16:09Z</time>
      </trkpt>
      <trkpt lat="45.36253" lon="5.71056">
        <ele>742.76</ele>
        <time>2018-06-01T10:16:13Z</time>
      </trkpt>
      <trkpt lat="45.36257" lon="5.71055">
        <ele>740.83</ele>
        <time>2018-06-01T10:16:14Z</time>
      </trkpt>
      <trkpt lat="45.36262" lon="5.71054">
        <ele>739.39</ele>
        <time>2018-06-01T10:16:15Z</time>
      </trkpt>
      <trkpt lat="45.36268" lon="5.71054">
        <ele>737.95</ele>
        <time>2018-06-01T10:16:16Z</time>
      </trkpt>
      <trkpt lat="45.36281" lon="5.71052">
        <ele>734.1</ele>
        <time>2018-06-01T10:16:19Z</time>
      </trkpt>
      <trkpt lat="45.36286" lon="5.71051">
        <ele>732.66</ele>
        <time>2018-06-01T10:16:20Z</time>
      </trkpt>
      <trkpt lat="45.36292" lon="5.71049">
        <ele>730.74</ele>
        <time>2018-06-01T10:16:21Z</time>
      </trkpt>
      <trkpt lat="45.36297" lon="5.71046">
        <ele>728.82</ele>
        <time>2018-06-01T10:16:22Z</time>
      </trkpt>
      <trkpt lat="45.36309" lon="5.71039">
        <ele>725.45</ele>
        <time>2018-06-01T10:16:25Z</time>
      </trkpt>
      <trkpt lat="45.36318" lon="5.71036">
        <ele>721.61</ele>
        <time>2018-06-01T10:16:27Z</time>
      </trkpt>
      <trkpt lat="45.36329" lon="5.71031">
        <ele>718.72</ele>
        <time>2018-06-01T10:16:29Z</time>
      </trkpt>
      <trkpt lat="45.36339" lon="5.71024">
        <ele>715.84</ele>
        <time>2018-06-01T10:16:31Z</time>
      </trkpt>
      <trkpt lat="45.36345" lon="5.71021">
        <ele>714.4</ele>
        <time>2018-06-01T10:16:32Z</time>
      </trkpt>
      <trkpt lat="45.3635" lon="5.71018">
        <ele>712.47</ele>
        <time>2018-06-01T10:16:33Z</time>
      </trkpt>
      <trkpt lat="45.36354" lon="5.71015">
        <ele>711.51</ele>
        <time>2018-06-01T10:16:34Z</time>
      </trkpt>
      <trkpt lat="45.36359" lon="5.71011">
        <ele>709.59</ele>
        <time>2018-06-01T10:16:35Z</time>
      </trkpt>
      <trkpt lat="45.36365" lon="5.71008">
        <ele>708.63</ele>
        <time>2018-06-01T10:16:36Z</time>
      </trkpt>
      <trkpt lat="45.36382" lon="5.71002">
        <ele>705.26</ele>
        <time>2018-06-01T10:16:39Z</time>
      </trkpt>
      <trkpt lat="45.36387" lon="5.71">
        <ele>704.3</ele>
        <time>2018-06-01T10:16:40Z</time>
      </trkpt>
      <trkpt lat="45.36392" lon="5.71">
        <ele>702.86</ele>
        <time>2018-06-01T10:16:41Z</time>
      </trkpt>
      <trkpt lat="45.36407" lon="5.70994">
        <ele>699.02</ele>
        <time>2018-06-01T10:16:44Z</time>
      </trkpt>
      <trkpt lat="45.36416" lon="5.70996">
        <ele>695.17</ele>
        <time>2018-06-01T10:16:47Z</time>
      </trkpt>
      <trkpt lat="45.3642" lon="5.70998">
        <ele>692.29</ele>
        <time>2018-06-01T10:16:49Z</time>
      </trkpt>
      <trkpt lat="45.36427" lon="5.71003">
        <ele>687.48</ele>
        <time>2018-06-01T10:16:52Z</time>
      </trkpt>
      <trkpt lat="45.36438" lon="5.71008">
        <ele>683.63</ele>
        <time>2018-06-01T10:16:55Z</time>
      </trkpt>
      <trkpt lat="45.36449" lon="5.71011">
        <ele>680.27</ele>
        <time>2018-06-01T10:16:58Z</time>
      </trkpt>
      <trkpt lat="45.36455" lon="5.71012">
        <ele>679.31</ele>
        <time>2018-06-01T10:17:00Z</time>
      </trkpt>
      <trkpt lat="45.36476" lon="5.71012">
        <ele>678.35</ele>
        <time>2018-06-01T10:17:15Z</time>
      </trkpt>
      <trkpt lat="45.36486" lon="5.71017">
        <ele>675.46</ele>
        <time>2018-06-01T10:17:37Z</time>
      </trkpt>
      <trkpt lat="45.36488" lon="5.71018">
        <ele>674.5</ele>
        <time>2018-06-01T10:17:38Z</time>
      </trkpt>
      <trkpt lat="45.36491" lon="5.71018">
        <ele>674.02</ele>
        <time>2018-06-01T10:17:39Z</time>
      </trkpt>
      <trkpt lat="45.36493" lon="5.71017">
        <ele>673.54</ele>
        <time>2018-06-01T10:17:40Z</time>
      </trkpt>
      <trkpt lat="45.36495" lon="5.71016">
        <ele>673.06</ele>
        <time>2018-06-01T10:17:41Z</time>
      </trkpt>
      <trkpt lat="45.36498" lon="5.71015">
        <ele>672.1</ele>
        <time>2018-06-01T10:17:42Z</time>
      </trkpt>
      <trkpt lat="45.365" lon="5.71015">
        <ele>670.66</ele>
        <time>2018-06-01T10:17:43Z</time>
      </trkpt>
      <trkpt lat="45.36503" lon="5.71014">
        <ele>669.22</ele>
        <time>2018-06-01T10:17:44Z</time>
      </trkpt>
      <trkpt lat="45.36506" lon="5.71015">
        <ele>668.25</ele>
        <time>2018-06-01T10:17:45Z</time>
      </trkpt>
      <trkpt lat="45.36513" lon="5.71014">
        <ele>665.85</ele>
        <time>2018-06-01T10:17:47Z</time>
      </trkpt>
      <trkpt lat="45.36523" lon="5.71012">
        <ele>662.97</ele>
        <time>2018-06-01T10:17:49Z</time>
      </trkpt>
      <trkpt lat="45.36529" lon="5.71008">
        <ele>662.97</ele>
        <time>2018-06-01T10:17:50Z</time>
      </trkpt>
      <trkpt lat="45.36534" lon="5.71005">
        <ele>661.52</ele>
        <time>2018-06-01T10:17:51Z</time>
      </trkpt>
      <trkpt lat="45.36547" lon="5.70992">
        <ele>657.68</ele>
        <time>2018-06-01T10:17:54Z</time>
      </trkpt>
      <trkpt lat="45.3655" lon="5.70989">
        <ele>656.72</ele>
        <time>2018-06-01T10:17:55Z</time>
      </trkpt>
      <trkpt lat="45.36556" lon="5.70982">
        <ele>653.83</ele>
        <time>2018-06-01T10:17:57Z</time>
      </trkpt>
      <trkpt lat="45.36562" lon="5.70975">
        <ele>650.95</ele>
        <time>2018-06-01T10:18:00Z</time>
      </trkpt>
      <trkpt lat="45.36566" lon="5.70971">
        <ele>649.51</ele>
        <time>2018-06-01T10:18:02Z</time>
      </trkpt>
      <trkpt lat="45.36573" lon="5.70967">
        <ele>646.62</ele>
        <time>2018-06-01T10:18:05Z</time>
      </trkpt>
      <trkpt lat="45.36583" lon="5.70959">
        <ele>642.3</ele>
        <time>2018-06-01T10:18:10Z</time>
      </trkpt>
      <trkpt lat="45.36598" lon="5.70946">
        <ele>639.41</ele>
        <time>2018-06-01T10:18:18Z</time>
      </trkpt>
      <trkpt lat="45.36597" lon="5.70941">
        <ele>638.93</ele>
        <time>2018-06-01T10:18:19Z</time>
      </trkpt>
      <trkpt lat="45.36625" lon="5.70926">
        <ele>638.93</ele>
        <time>2018-06-01T10:18:29Z</time>
      </trkpt>
      <trkpt lat="45.36637" lon="5.7091">
        <ele>639.89</ele>
        <time>2018-06-01T10:18:54Z</time>
      </trkpt>
      <trkpt lat="45.36639" lon="5.70909">
        <ele>639.89</ele>
        <time>2018-06-01T10:18:58Z</time>
      </trkpt>
      <trkpt lat="45.3664" lon="5.70912">
        <ele>640.86</ele>
        <time>2018-06-01T10:19:01Z</time>
      </trkpt>
      <trkpt lat="45.36645" lon="5.70929">
        <ele>641.34</ele>
        <time>2018-06-01T10:19:15Z</time>
      </trkpt>
      <trkpt lat="45.36648" lon="5.70939">
        <ele>639.41</ele>
        <time>2018-06-01T10:19:36Z</time>
      </trkpt>
      <trkpt lat="45.36648" lon="5.7095">
        <ele>639.41</ele>
        <time>2018-06-01T10:20:18Z</time>
      </trkpt>
      <trkpt lat="45.36652" lon="5.70961">
        <ele>640.86</ele>
        <time>2018-06-01T10:20:45Z</time>
      </trkpt>
      <trkpt lat="45.36665" lon="5.70955">
        <ele>641.82</ele>
        <time>2018-06-01T10:20:52Z</time>
      </trkpt>
      <trkpt lat="45.36668" lon="5.70951">
        <ele>641.82</ele>
        <time>2018-06-01T10:20:53Z</time>
      </trkpt>
      <trkpt lat="45.3667" lon="5.70948">
        <ele>641.34</ele>
        <time>2018-06-01T10:20:54Z</time>
      </trkpt>
      <trkpt lat="45.36672" lon="5.70945">
        <ele>641.34</ele>
        <time>2018-06-01T10:20:55Z</time>
      </trkpt>
      <trkpt lat="45.36674" lon="5.70942">
        <ele>641.34</ele>
        <time>2018-06-01T10:20:56Z</time>
      </trkpt>
      <trkpt lat="45.36677" lon="5.70939">
        <ele>641.34</ele>
        <time>2018-06-01T10:20:57Z</time>
      </trkpt>
      <trkpt lat="45.3668" lon="5.70937">
        <ele>641.34</ele>
        <time>2018-06-01T10:20:58Z</time>
      </trkpt>
      <trkpt lat="45.36691" lon="5.70929">
        <ele>641.34</ele>
        <time>2018-06-01T10:21:02Z</time>
      </trkpt>
      <trkpt lat="45.36693" lon="5.70929">
        <ele>641.34</ele>
        <time>2018-06-01T10:21:03Z</time>
      </trkpt>
      <trkpt lat="45.36703" lon="5.7092">
        <ele>638.93</ele>
        <time>2018-06-01T10:21:09Z</time>
      </trkpt>
      <trkpt lat="45.36706" lon="5.70918">
        <ele>637.97</ele>
        <time>2018-06-01T10:21:11Z</time>
      </trkpt>
      <trkpt lat="45.36708" lon="5.70916">
        <ele>637.49</ele>
        <time>2018-06-01T10:21:12Z</time>
      </trkpt>
      <trkpt lat="45.36711" lon="5.70913">
        <ele>636.53</ele>
        <time>2018-06-01T10:21:13Z</time>
      </trkpt>
      <trkpt lat="45.36713" lon="5.70909">
        <ele>635.57</ele>
        <time>2018-06-01T10:21:14Z</time>
      </trkpt>
      <trkpt lat="45.36715" lon="5.70905">
        <ele>635.09</ele>
        <time>2018-06-01T10:21:15Z</time>
      </trkpt>
      <trkpt lat="45.36718" lon="5.70902">
        <ele>634.13</ele>
        <time>2018-06-01T10:21:16Z</time>
      </trkpt>
      <trkpt lat="45.3672" lon="5.70899">
        <ele>634.13</ele>
        <time>2018-06-01T10:21:17Z</time>
      </trkpt>
      <trkpt lat="45.36722" lon="5.70898">
        <ele>633.65</ele>
        <time>2018-06-01T10:21:18Z</time>
      </trkpt>
      <trkpt lat="45.36729" lon="5.70885">
        <ele>631.72</ele>
        <time>2018-06-01T10:21:22Z</time>
      </trkpt>
      <trkpt lat="45.36731" lon="5.70878">
        <ele>630.76</ele>
        <time>2018-06-01T10:21:24Z</time>
      </trkpt>
      <trkpt lat="45.36732" lon="5.70876">
        <ele>630.28</ele>
        <time>2018-06-01T10:21:25Z</time>
      </trkpt>
      <trkpt lat="45.36738" lon="5.70871">
        <ele>627.88</ele>
        <time>2018-06-01T10:21:30Z</time>
      </trkpt>
      <trkpt lat="45.36741" lon="5.7087">
        <ele>627.4</ele>
        <time>2018-06-01T10:21:31Z</time>
      </trkpt>
      <trkpt lat="45.36746" lon="5.70864">
        <ele>626.92</ele>
        <time>2018-06-01T10:21:33Z</time>
      </trkpt>
      <trkpt lat="45.36756" lon="5.70859">
        <ele>626.44</ele>
        <time>2018-06-01T10:21:34Z</time>
      </trkpt>
      <trkpt lat="45.36762" lon="5.70852">
        <ele>625.96</ele>
        <time>2018-06-01T10:21:35Z</time>
      </trkpt>
      <trkpt lat="45.36766" lon="5.70849">
        <ele>625.96</ele>
        <time>2018-06-01T10:21:36Z</time>
      </trkpt>
      <trkpt lat="45.36773" lon="5.70842">
        <ele>625.96</ele>
        <time>2018-06-01T10:21:42Z</time>
      </trkpt>
      <trkpt lat="45.36774" lon="5.70843">
        <ele>624.99</ele>
        <time>2018-06-01T10:21:43Z</time>
      </trkpt>
      <trkpt lat="45.36777" lon="5.70844">
        <ele>624.51</ele>
        <time>2018-06-01T10:21:44Z</time>
      </trkpt>
      <trkpt lat="45.36781" lon="5.70844">
        <ele>623.07</ele>
        <time>2018-06-01T10:21:45Z</time>
      </trkpt>
      <trkpt lat="45.36785" lon="5.70843">
        <ele>622.59</ele>
        <time>2018-06-01T10:21:46Z</time>
      </trkpt>
      <trkpt lat="45.36787" lon="5.70841">
        <ele>622.59</ele>
        <time>2018-06-01T10:21:47Z</time>
      </trkpt>
      <trkpt lat="45.36789" lon="5.70838">
        <ele>622.59</ele>
        <time>2018-06-01T10:21:48Z</time>
      </trkpt>
      <trkpt lat="45.36791" lon="5.70834">
        <ele>622.59</ele>
        <time>2018-06-01T10:21:49Z</time>
      </trkpt>
      <trkpt lat="45.36792" lon="5.7083">
        <ele>622.59</ele>
        <time>2018-06-01T10:21:50Z</time>
      </trkpt>
      <trkpt lat="45.36799" lon="5.70816">
        <ele>624.03</ele>
        <time>2018-06-01T10:21:59Z</time>
      </trkpt>
      <trkpt lat="45.368" lon="5.70814">
        <ele>624.03</ele>
        <time>2018-06-01T10:22:00Z</time>
      </trkpt>
      <trkpt lat="45.36801" lon="5.70813">
        <ele>624.51</ele>
        <time>2018-06-01T10:22:01Z</time>
      </trkpt>
      <trkpt lat="45.36803" lon="5.70811">
        <ele>624.51</ele>
        <time>2018-06-01T10:22:02Z</time>
      </trkpt>
      <trkpt lat="45.36804" lon="5.7081">
        <ele>625.47</ele>
        <time>2018-06-01T10:22:03Z</time>
      </trkpt>
      <trkpt lat="45.36824" lon="5.70796">
        <ele>624.99</ele>
        <time>2018-06-01T10:22:17Z</time>
      </trkpt>
      <trkpt lat="45.36845" lon="5.70789">
        <ele>624.99</ele>
        <time>2018-06-01T10:22:30Z</time>
      </trkpt>
      <trkpt lat="45.36853" lon="5.70788">
        <ele>624.99</ele>
        <time>2018-06-01T10:22:34Z</time>
      </trkpt>
      <trkpt lat="45.36864" lon="5.70782">
        <ele>624.99</ele>
        <time>2018-06-01T10:22:39Z</time>
      </trkpt>
      <trkpt lat="45.3687" lon="5.70781">
        <ele>624.99</ele>
        <time>2018-06-01T10:22:43Z</time>
      </trkpt>
      <trkpt lat="45.36885" lon="5.7078">
        <ele>626.92</ele>
        <time>2018-06-01T10:22:49Z</time>
      </trkpt>
      <trkpt lat="45.36905" lon="5.70774">
        <ele>628.84</ele>
        <time>2018-06-01T10:22:57Z</time>
      </trkpt>
      <trkpt lat="45.36907" lon="5.70774">
        <ele>629.32</ele>
        <time>2018-06-01T10:22:58Z</time>
      </trkpt>
      <trkpt lat="45.3692" lon="5.70774">
        <ele>629.8</ele>
        <time>2018-06-01T10:23:05Z</time>
      </trkpt>
      <trkpt lat="45.36923" lon="5.70775">
        <ele>629.8</ele>
        <time>2018-06-01T10:23:06Z</time>
      </trkpt>
      <trkpt lat="45.36943" lon="5.70787">
        <ele>625.47</ele>
        <time>2018-06-01T10:23:12Z</time>
      </trkpt>
      <trkpt lat="45.36948" lon="5.7079">
        <ele>624.99</ele>
        <time>2018-06-01T10:23:13Z</time>
      </trkpt>
      <trkpt lat="45.36953" lon="5.70792">
        <ele>622.59</ele>
        <time>2018-06-01T10:23:14Z</time>
      </trkpt>
      <trkpt lat="45.36959" lon="5.70794">
        <ele>621.15</ele>
        <time>2018-06-01T10:23:15Z</time>
      </trkpt>
      <trkpt lat="45.36965" lon="5.70794">
        <ele>620.67</ele>
        <time>2018-06-01T10:23:16Z</time>
      </trkpt>
      <trkpt lat="45.36972" lon="5.70792">
        <ele>619.71</ele>
        <time>2018-06-01T10:23:17Z</time>
      </trkpt>
      <trkpt lat="45.36978" lon="5.70789">
        <ele>618.26</ele>
        <time>2018-06-01T10:23:18Z</time>
      </trkpt>
      <trkpt lat="45.36985" lon="5.70784">
        <ele>617.3</ele>
        <time>2018-06-01T10:23:19Z</time>
      </trkpt>
      <trkpt lat="45.36991" lon="5.70779">
        <ele>617.3</ele>
        <time>2018-06-01T10:23:20Z</time>
      </trkpt>
      <trkpt lat="45.36998" lon="5.70774">
        <ele>617.3</ele>
        <time>2018-06-01T10:23:21Z</time>
      </trkpt>
      <trkpt lat="45.37005" lon="5.70769">
        <ele>616.82</ele>
        <time>2018-06-01T10:23:22Z</time>
      </trkpt>
      <trkpt lat="45.37012" lon="5.70765">
        <ele>616.82</ele>
        <time>2018-06-01T10:23:23Z</time>
      </trkpt>
      <trkpt lat="45.37018" lon="5.70763">
        <ele>616.82</ele>
        <time>2018-06-01T10:23:24Z</time>
      </trkpt>
      <trkpt lat="45.37024" lon="5.70762">
        <ele>616.34</ele>
        <time>2018-06-01T10:23:25Z</time>
      </trkpt>
      <trkpt lat="45.37028" lon="5.70762">
        <ele>616.34</ele>
        <time>2018-06-01T10:23:26Z</time>
      </trkpt>
      <trkpt lat="45.37033" lon="5.70761">
        <ele>616.82</ele>
        <time>2018-06-01T10:23:27Z</time>
      </trkpt>
      <trkpt lat="45.37037" lon="5.70761">
        <ele>616.82</ele>
        <time>2018-06-01T10:23:28Z</time>
      </trkpt>
      <trkpt lat="45.37043" lon="5.70761">
        <ele>615.86</ele>
        <time>2018-06-01T10:23:29Z</time>
      </trkpt>
      <trkpt lat="45.37048" lon="5.7076">
        <ele>615.86</ele>
        <time>2018-06-01T10:23:30Z</time>
      </trkpt>
      <trkpt lat="45.37053" lon="5.7076">
        <ele>616.34</ele>
        <time>2018-06-01T10:23:31Z</time>
      </trkpt>
      <trkpt lat="45.37057" lon="5.70759">
        <ele>616.34</ele>
        <time>2018-06-01T10:23:32Z</time>
      </trkpt>
      <trkpt lat="45.3706" lon="5.70759">
        <ele>616.34</ele>
        <time>2018-06-01T10:23:33Z</time>
      </trkpt>
      <trkpt lat="45.37063" lon="5.70759">
        <ele>616.34</ele>
        <time>2018-06-01T10:23:34Z</time>
      </trkpt>
      <trkpt lat="45.37073" lon="5.70758">
        <ele>615.86</ele>
        <time>2018-06-01T10:23:37Z</time>
      </trkpt>
      <trkpt lat="45.37075" lon="5.70758">
        <ele>615.38</ele>
        <time>2018-06-01T10:23:38Z</time>
      </trkpt>
      <trkpt lat="45.37078" lon="5.70758">
        <ele>614.9</ele>
        <time>2018-06-01T10:23:40Z</time>
      </trkpt>
      <trkpt lat="45.3708" lon="5.70758">
        <ele>614.42</ele>
        <time>2018-06-01T10:23:42Z</time>
      </trkpt>
      <trkpt lat="45.37082" lon="5.70759">
        <ele>613.94</ele>
        <time>2018-06-01T10:23:43Z</time>
      </trkpt>
      <trkpt lat="45.37084" lon="5.70759">
        <ele>612.98</ele>
        <time>2018-06-01T10:23:44Z</time>
      </trkpt>
      <trkpt lat="45.37093" lon="5.70759">
        <ele>611.54</ele>
        <time>2018-06-01T10:23:46Z</time>
      </trkpt>
      <trkpt lat="45.37098" lon="5.70758">
        <ele>610.57</ele>
        <time>2018-06-01T10:23:47Z</time>
      </trkpt>
      <trkpt lat="45.37104" lon="5.70757">
        <ele>610.09</ele>
        <time>2018-06-01T10:23:48Z</time>
      </trkpt>
      <trkpt lat="45.37116" lon="5.70754">
        <ele>608.17</ele>
        <time>2018-06-01T10:23:50Z</time>
      </trkpt>
      <trkpt lat="45.37123" lon="5.70751">
        <ele>607.69</ele>
        <time>2018-06-01T10:23:51Z</time>
      </trkpt>
      <trkpt lat="45.37131" lon="5.70746">
        <ele>606.25</ele>
        <time>2018-06-01T10:23:52Z</time>
      </trkpt>
      <trkpt lat="45.37136" lon="5.70743">
        <ele>606.25</ele>
        <time>2018-06-01T10:23:53Z</time>
      </trkpt>
      <trkpt lat="45.37151" lon="5.7073">
        <ele>602.88</ele>
        <time>2018-06-01T10:23:57Z</time>
      </trkpt>
      <trkpt lat="45.37156" lon="5.70728">
        <ele>601.92</ele>
        <time>2018-06-01T10:23:58Z</time>
      </trkpt>
      <trkpt lat="45.3716" lon="5.70725">
        <ele>600.96</ele>
        <time>2018-06-01T10:23:59Z</time>
      </trkpt>
      <trkpt lat="45.37165" lon="5.70722">
        <ele>600</ele>
        <time>2018-06-01T10:24:00Z</time>
      </trkpt>
      <trkpt lat="45.3717" lon="5.7072">
        <ele>599.04</ele>
        <time>2018-06-01T10:24:01Z</time>
      </trkpt>
      <trkpt lat="45.37175" lon="5.70719">
        <ele>598.08</ele>
        <time>2018-06-01T10:24:02Z</time>
      </trkpt>
      <trkpt lat="45.37181" lon="5.70718">
        <ele>596.64</ele>
        <time>2018-06-01T10:24:03Z</time>
      </trkpt>
      <trkpt lat="45.37192" lon="5.70717">
        <ele>594.71</ele>
        <time>2018-06-01T10:24:05Z</time>
      </trkpt>
      <trkpt lat="45.37199" lon="5.70716">
        <ele>593.27</ele>
        <time>2018-06-01T10:24:06Z</time>
      </trkpt>
      <trkpt lat="45.3721" lon="5.70713">
        <ele>591.35</ele>
        <time>2018-06-01T10:24:08Z</time>
      </trkpt>
      <trkpt lat="45.37216" lon="5.70711">
        <ele>590.39</ele>
        <time>2018-06-01T10:24:09Z</time>
      </trkpt>
      <trkpt lat="45.37222" lon="5.7071">
        <ele>588.95</ele>
        <time>2018-06-01T10:24:10Z</time>
      </trkpt>
      <trkpt lat="45.37232" lon="5.70708">
        <ele>587.98</ele>
        <time>2018-06-01T10:24:12Z</time>
      </trkpt>
      <trkpt lat="45.37249" lon="5.70702">
        <ele>585.1</ele>
        <time>2018-06-01T10:24:15Z</time>
      </trkpt>
      <trkpt lat="45.37256" lon="5.70701">
        <ele>584.14</ele>
        <time>2018-06-01T10:24:16Z</time>
      </trkpt>
      <trkpt lat="45.37259" lon="5.70702">
        <ele>583.66</ele>
        <time>2018-06-01T10:24:17Z</time>
      </trkpt>
      <trkpt lat="45.37263" lon="5.70703">
        <ele>582.7</ele>
        <time>2018-06-01T10:24:18Z</time>
      </trkpt>
      <trkpt lat="45.37267" lon="5.70706">
        <ele>581.25</ele>
        <time>2018-06-01T10:24:19Z</time>
      </trkpt>
      <trkpt lat="45.37271" lon="5.70709">
        <ele>580.29</ele>
        <time>2018-06-01T10:24:20Z</time>
      </trkpt>
      <trkpt lat="45.37274" lon="5.70711">
        <ele>580.29</ele>
        <time>2018-06-01T10:24:21Z</time>
      </trkpt>
      <trkpt lat="45.37281" lon="5.70713">
        <ele>579.33</ele>
        <time>2018-06-01T10:24:23Z</time>
      </trkpt>
      <trkpt lat="45.37283" lon="5.70712">
        <ele>579.33</ele>
        <time>2018-06-01T10:24:24Z</time>
      </trkpt>
      <trkpt lat="45.37287" lon="5.70711">
        <ele>579.33</ele>
        <time>2018-06-01T10:24:26Z</time>
      </trkpt>
      <trkpt lat="45.37288" lon="5.7071">
        <ele>579.33</ele>
        <time>2018-06-01T10:24:27Z</time>
      </trkpt>
      <trkpt lat="45.3729" lon="5.70711">
        <ele>579.81</ele>
        <time>2018-06-01T10:24:28Z</time>
      </trkpt>
      <trkpt lat="45.37292" lon="5.7071">
        <ele>580.29</ele>
        <time>2018-06-01T10:24:29Z</time>
      </trkpt>
      <trkpt lat="45.37294" lon="5.70708">
        <ele>580.29</ele>
        <time>2018-06-01T10:24:30Z</time>
      </trkpt>
      <trkpt lat="45.37317" lon="5.70682">
        <ele>578.85</ele>
        <time>2018-06-01T10:24:39Z</time>
      </trkpt>
      <trkpt lat="45.37339" lon="5.70667">
        <ele>578.85</ele>
        <time>2018-06-01T10:24:47Z</time>
      </trkpt>
      <trkpt lat="45.37352" lon="5.70651">
        <ele>580.29</ele>
        <time>2018-06-01T10:24:55Z</time>
      </trkpt>
      <trkpt lat="45.37353" lon="5.70639">
        <ele>581.25</ele>
        <time>2018-06-01T10:25:02Z</time>
      </trkpt>
      <trkpt lat="45.37356" lon="5.70623">
        <ele>581.25</ele>
        <time>2018-06-01T10:25:17Z</time>
      </trkpt>
      <trkpt lat="45.37361" lon="5.70625">
        <ele>581.25</ele>
        <time>2018-06-01T10:25:39Z</time>
      </trkpt>
      <trkpt lat="45.37363" lon="5.70624">
        <ele>581.73</ele>
        <time>2018-06-01T10:25:45Z</time>
      </trkpt>
      <trkpt lat="45.37373" lon="5.70624">
        <ele>578.37</ele>
        <time>2018-06-01T10:25:50Z</time>
      </trkpt>
      <trkpt lat="45.37384" lon="5.70625">
        <ele>574.04</ele>
        <time>2018-06-01T10:25:53Z</time>
      </trkpt>
      <trkpt lat="45.37388" lon="5.70626">
        <ele>572.12</ele>
        <time>2018-06-01T10:25:54Z</time>
      </trkpt>
      <trkpt lat="45.37392" lon="5.70626">
        <ele>571.16</ele>
        <time>2018-06-01T10:25:55Z</time>
      </trkpt>
      <trkpt lat="45.37397" lon="5.70626">
        <ele>570.2</ele>
        <time>2018-06-01T10:25:56Z</time>
      </trkpt>
      <trkpt lat="45.37402" lon="5.70626">
        <ele>569.24</ele>
        <time>2018-06-01T10:25:57Z</time>
      </trkpt>
      <trkpt lat="45.37453" lon="5.70612">
        <ele>566.83</ele>
        <time>2018-06-01T10:26:04Z</time>
      </trkpt>
      <trkpt lat="45.37494" lon="5.70602">
        <ele>566.35</ele>
        <time>2018-06-01T10:26:14Z</time>
      </trkpt>
      <trkpt lat="45.3754" lon="5.70618">
        <ele>562.51</ele>
        <time>2018-06-01T10:26:26Z</time>
      </trkpt>
      <trkpt lat="45.37552" lon="5.70626">
        <ele>561.55</ele>
        <time>2018-06-01T10:26:28Z</time>
      </trkpt>
      <trkpt lat="45.37557" lon="5.7063">
        <ele>561.55</ele>
        <time>2018-06-01T10:26:29Z</time>
      </trkpt>
      <trkpt lat="45.37561" lon="5.70635">
        <ele>561.55</ele>
        <time>2018-06-01T10:26:30Z</time>
      </trkpt>
      <trkpt lat="45.37565" lon="5.70641">
        <ele>561.55</ele>
        <time>2018-06-01T10:26:31Z</time>
      </trkpt>
      <trkpt lat="45.37568" lon="5.70647">
        <ele>559.62</ele>
        <time>2018-06-01T10:26:32Z</time>
      </trkpt>
      <trkpt lat="45.3757" lon="5.70654">
        <ele>558.66</ele>
        <time>2018-06-01T10:26:33Z</time>
      </trkpt>
      <trkpt lat="45.37572" lon="5.7066">
        <ele>557.7</ele>
        <time>2018-06-01T10:26:34Z</time>
      </trkpt>
      <trkpt lat="45.37573" lon="5.70667">
        <ele>557.7</ele>
        <time>2018-06-01T10:26:35Z</time>
      </trkpt>
      <trkpt lat="45.37577" lon="5.70676">
        <ele>557.7</ele>
        <time>2018-06-01T10:26:37Z</time>
      </trkpt>
      <trkpt lat="45.37581" lon="5.70678">
        <ele>557.7</ele>
        <time>2018-06-01T10:26:38Z</time>
      </trkpt>
      <trkpt lat="45.37585" lon="5.70681">
        <ele>557.7</ele>
        <time>2018-06-01T10:26:39Z</time>
      </trkpt>
      <trkpt lat="45.3759" lon="5.70683">
        <ele>557.7</ele>
        <time>2018-06-01T10:26:40Z</time>
      </trkpt>
      <trkpt lat="45.37593" lon="5.70685">
        <ele>557.7</ele>
        <time>2018-06-01T10:26:41Z</time>
      </trkpt>
      <trkpt lat="45.376" lon="5.70684">
        <ele>557.7</ele>
        <time>2018-06-01T10:26:42Z</time>
      </trkpt>
      <trkpt lat="45.37602" lon="5.70682">
        <ele>559.14</ele>
        <time>2018-06-01T10:26:43Z</time>
      </trkpt>
      <trkpt lat="45.37604" lon="5.7068">
        <ele>559.14</ele>
        <time>2018-06-01T10:26:44Z</time>
      </trkpt>
      <trkpt lat="45.37606" lon="5.70677">
        <ele>559.14</ele>
        <time>2018-06-01T10:26:45Z</time>
      </trkpt>
      <trkpt lat="45.37628" lon="5.70661">
        <ele>556.26</ele>
        <time>2018-06-01T10:26:53Z</time>
      </trkpt>
      <trkpt lat="45.37633" lon="5.70661">
        <ele>554.82</ele>
        <time>2018-06-01T10:26:54Z</time>
      </trkpt>
      <trkpt lat="45.37654" lon="5.70664">
        <ele>550.97</ele>
        <time>2018-06-01T10:26:57Z</time>
      </trkpt>
      <trkpt lat="45.37662" lon="5.70667">
        <ele>550.97</ele>
        <time>2018-06-01T10:26:58Z</time>
      </trkpt>
      <trkpt lat="45.37729" lon="5.70693">
        <ele>548.57</ele>
        <time>2018-06-01T10:27:09Z</time>
      </trkpt>
      <trkpt lat="45.37745" lon="5.70701">
        <ele>550.01</ele>
        <time>2018-06-01T10:27:14Z</time>
      </trkpt>
      <trkpt lat="45.37773" lon="5.70716">
        <ele>550.49</ele>
        <time>2018-06-01T10:27:26Z</time>
      </trkpt>
      <trkpt lat="45.37785" lon="5.70725">
        <ele>549.05</ele>
        <time>2018-06-01T10:27:30Z</time>
      </trkpt>
      <trkpt lat="45.37801" lon="5.70737">
        <ele>546.17</ele>
        <time>2018-06-01T10:27:35Z</time>
      </trkpt>
      <trkpt lat="45.37848" lon="5.70761">
        <ele>544.72</ele>
        <time>2018-06-01T10:27:48Z</time>
      </trkpt>
      <trkpt lat="45.37887" lon="5.70813">
        <ele>543.28</ele>
        <time>2018-06-01T10:28:01Z</time>
      </trkpt>
      <trkpt lat="45.37907" lon="5.7083">
        <ele>539.92</ele>
        <time>2018-06-01T10:28:07Z</time>
      </trkpt>
      <trkpt lat="45.37938" lon="5.70862">
        <ele>537.99</ele>
        <time>2018-06-01T10:28:18Z</time>
      </trkpt>
      <trkpt lat="45.37959" lon="5.70882">
        <ele>535.59</ele>
        <time>2018-06-01T10:28:29Z</time>
      </trkpt>
      <trkpt lat="45.37963" lon="5.70887">
        <ele>534.63</ele>
        <time>2018-06-01T10:28:30Z</time>
      </trkpt>
      <trkpt lat="45.37971" lon="5.70894">
        <ele>534.15</ele>
        <time>2018-06-01T10:28:32Z</time>
      </trkpt>
      <trkpt lat="45.37976" lon="5.70894">
        <ele>533.67</ele>
        <time>2018-06-01T10:28:33Z</time>
      </trkpt>
      <trkpt lat="45.3798" lon="5.70891">
        <ele>532.23</ele>
        <time>2018-06-01T10:28:34Z</time>
      </trkpt>
      <trkpt lat="45.37984" lon="5.70886">
        <ele>530.79</ele>
        <time>2018-06-01T10:28:35Z</time>
      </trkpt>
      <trkpt lat="45.37986" lon="5.70879">
        <ele>529.82</ele>
        <time>2018-06-01T10:28:36Z</time>
      </trkpt>
      <trkpt lat="45.37988" lon="5.70872">
        <ele>528.38</ele>
        <time>2018-06-01T10:28:37Z</time>
      </trkpt>
      <trkpt lat="45.3799" lon="5.70865">
        <ele>526.94</ele>
        <time>2018-06-01T10:28:38Z</time>
      </trkpt>
      <trkpt lat="45.37992" lon="5.70857">
        <ele>526.94</ele>
        <time>2018-06-01T10:28:39Z</time>
      </trkpt>
      <trkpt lat="45.37995" lon="5.70849">
        <ele>526.46</ele>
        <time>2018-06-01T10:28:41Z</time>
      </trkpt>
      <trkpt lat="45.37996" lon="5.70849">
        <ele>526.46</ele>
        <time>2018-06-01T10:28:42Z</time>
      </trkpt>
      <trkpt lat="45.37998" lon="5.70849">
        <ele>526.46</ele>
        <time>2018-06-01T10:28:43Z</time>
      </trkpt>
      <trkpt lat="45.37999" lon="5.70855">
        <ele>526.46</ele>
        <time>2018-06-01T10:29:02Z</time>
      </trkpt>
      <trkpt lat="45.38002" lon="5.70863">
        <ele>525.02</ele>
        <time>2018-06-01T10:29:04Z</time>
      </trkpt>
      <trkpt lat="45.38005" lon="5.70868">
        <ele>525.02</ele>
        <time>2018-06-01T10:29:05Z</time>
      </trkpt>
      <trkpt lat="45.38015" lon="5.70887">
        <ele>521.17</ele>
        <time>2018-06-01T10:29:09Z</time>
      </trkpt>
      <trkpt lat="45.38025" lon="5.70902">
        <ele>517.81</ele>
        <time>2018-06-01T10:29:13Z</time>
      </trkpt>
      <trkpt lat="45.38028" lon="5.70904">
        <ele>515.88</ele>
        <time>2018-06-01T10:29:14Z</time>
      </trkpt>
      <trkpt lat="45.38032" lon="5.70904">
        <ele>514.92</ele>
        <time>2018-06-01T10:29:15Z</time>
      </trkpt>
      <trkpt lat="45.38037" lon="5.70904">
        <ele>513.48</ele>
        <time>2018-06-01T10:29:16Z</time>
      </trkpt>
      <trkpt lat="45.38043" lon="5.70904">
        <ele>512.04</ele>
        <time>2018-06-01T10:29:17Z</time>
      </trkpt>
      <trkpt lat="45.38062" lon="5.70906">
        <ele>509.16</ele>
        <time>2018-06-01T10:29:20Z</time>
      </trkpt>
      <trkpt lat="45.38068" lon="5.70909">
        <ele>509.16</ele>
        <time>2018-06-01T10:29:21Z</time>
      </trkpt>
      <trkpt lat="45.38073" lon="5.70913">
        <ele>508.19</ele>
        <time>2018-06-01T10:29:22Z</time>
      </trkpt>
      <trkpt lat="45.38077" lon="5.70919">
        <ele>507.23</ele>
        <time>2018-06-01T10:29:23Z</time>
      </trkpt>
      <trkpt lat="45.3808" lon="5.70926">
        <ele>506.27</ele>
        <time>2018-06-01T10:29:24Z</time>
      </trkpt>
      <trkpt lat="45.38082" lon="5.70933">
        <ele>505.79</ele>
        <time>2018-06-01T10:29:25Z</time>
      </trkpt>
      <trkpt lat="45.38085" lon="5.70941">
        <ele>505.79</ele>
        <time>2018-06-01T10:29:26Z</time>
      </trkpt>
      <trkpt lat="45.38086" lon="5.70949">
        <ele>505.79</ele>
        <time>2018-06-01T10:29:27Z</time>
      </trkpt>
      <trkpt lat="45.38097" lon="5.70996">
        <ele>501.46</ele>
        <time>2018-06-01T10:29:32Z</time>
      </trkpt>
      <trkpt lat="45.38102" lon="5.71018">
        <ele>499.54</ele>
        <time>2018-06-01T10:29:34Z</time>
      </trkpt>
      <trkpt lat="45.38107" lon="5.71029">
        <ele>498.58</ele>
        <time>2018-06-01T10:29:35Z</time>
      </trkpt>
      <trkpt lat="45.3811" lon="5.71039">
        <ele>496.66</ele>
        <time>2018-06-01T10:29:36Z</time>
      </trkpt>
      <trkpt lat="45.38115" lon="5.71055">
        <ele>496.18</ele>
        <time>2018-06-01T10:29:38Z</time>
      </trkpt>
      <trkpt lat="45.38123" lon="5.71078">
        <ele>492.33</ele>
        <time>2018-06-01T10:29:41Z</time>
      </trkpt>
      <trkpt lat="45.38129" lon="5.71101">
        <ele>489.93</ele>
        <time>2018-06-01T10:29:44Z</time>
      </trkpt>
      <trkpt lat="45.38131" lon="5.71114">
        <ele>488.49</ele>
        <time>2018-06-01T10:29:46Z</time>
      </trkpt>
      <trkpt lat="45.38132" lon="5.71121">
        <ele>488.49</ele>
        <time>2018-06-01T10:29:47Z</time>
      </trkpt>
      <trkpt lat="45.38149" lon="5.71159">
        <ele>485.6</ele>
        <time>2018-06-01T10:29:55Z</time>
      </trkpt>
      <trkpt lat="45.38155" lon="5.71164">
        <ele>484.16</ele>
        <time>2018-06-01T10:29:57Z</time>
      </trkpt>
      <trkpt lat="45.38164" lon="5.7119">
        <ele>480.32</ele>
        <time>2018-06-01T10:30:01Z</time>
      </trkpt>
      <trkpt lat="45.38165" lon="5.71194">
        <ele>478.87</ele>
        <time>2018-06-01T10:30:02Z</time>
      </trkpt>
      <trkpt lat="45.38164" lon="5.71214">
        <ele>475.51</ele>
        <time>2018-06-01T10:30:05Z</time>
      </trkpt>
      <trkpt lat="45.38163" lon="5.71226">
        <ele>472.63</ele>
        <time>2018-06-01T10:30:07Z</time>
      </trkpt>
      <trkpt lat="45.38162" lon="5.71232">
        <ele>471.18</ele>
        <time>2018-06-01T10:30:08Z</time>
      </trkpt>
      <trkpt lat="45.38161" lon="5.71244">
        <ele>467.82</ele>
        <time>2018-06-01T10:30:10Z</time>
      </trkpt>
      <trkpt lat="45.38161" lon="5.71256">
        <ele>466.38</ele>
        <time>2018-06-01T10:30:12Z</time>
      </trkpt>
      <trkpt lat="45.38162" lon="5.71266">
        <ele>464.45</ele>
        <time>2018-06-01T10:30:13Z</time>
      </trkpt>
      <trkpt lat="45.38164" lon="5.71276">
        <ele>464.45</ele>
        <time>2018-06-01T10:30:14Z</time>
      </trkpt>
      <trkpt lat="45.38168" lon="5.71281">
        <ele>463.01</ele>
        <time>2018-06-01T10:30:15Z</time>
      </trkpt>
      <trkpt lat="45.38174" lon="5.71289">
        <ele>462.53</ele>
        <time>2018-06-01T10:30:16Z</time>
      </trkpt>
      <trkpt lat="45.38181" lon="5.71294">
        <ele>461.57</ele>
        <time>2018-06-01T10:30:17Z</time>
      </trkpt>
      <trkpt lat="45.38191" lon="5.713">
        <ele>460.13</ele>
        <time>2018-06-01T10:30:18Z</time>
      </trkpt>
      <trkpt lat="45.38199" lon="5.71303">
        <ele>460.13</ele>
        <time>2018-06-01T10:30:19Z</time>
      </trkpt>
      <trkpt lat="45.38205" lon="5.71305">
        <ele>459.17</ele>
        <time>2018-06-01T10:30:20Z</time>
      </trkpt>
      <trkpt lat="45.38211" lon="5.7131">
        <ele>458.69</ele>
        <time>2018-06-01T10:30:21Z</time>
      </trkpt>
      <trkpt lat="45.38216" lon="5.71313">
        <ele>458.21</ele>
        <time>2018-06-01T10:30:22Z</time>
      </trkpt>
      <trkpt lat="45.38221" lon="5.71317">
        <ele>457.24</ele>
        <time>2018-06-01T10:30:23Z</time>
      </trkpt>
      <trkpt lat="45.38228" lon="5.71321">
        <ele>456.28</ele>
        <time>2018-06-01T10:30:24Z</time>
      </trkpt>
      <trkpt lat="45.38235" lon="5.71324">
        <ele>456.28</ele>
        <time>2018-06-01T10:30:25Z</time>
      </trkpt>
      <trkpt lat="45.38257" lon="5.71335">
        <ele>454.36</ele>
        <time>2018-06-01T10:30:28Z</time>
      </trkpt>
      <trkpt lat="45.38264" lon="5.7134">
        <ele>454.36</ele>
        <time>2018-06-01T10:30:29Z</time>
      </trkpt>
      <trkpt lat="45.38271" lon="5.71345">
        <ele>452.92</ele>
        <time>2018-06-01T10:30:30Z</time>
      </trkpt>
      <trkpt lat="45.38278" lon="5.71352">
        <ele>451.48</ele>
        <time>2018-06-01T10:30:31Z</time>
      </trkpt>
      <trkpt lat="45.38285" lon="5.71358">
        <ele>451.48</ele>
        <time>2018-06-01T10:30:32Z</time>
      </trkpt>
      <trkpt lat="45.38292" lon="5.71364">
        <ele>451</ele>
        <time>2018-06-01T10:30:33Z</time>
      </trkpt>
      <trkpt lat="45.38298" lon="5.7137">
        <ele>450.03</ele>
        <time>2018-06-01T10:30:34Z</time>
      </trkpt>
      <trkpt lat="45.38304" lon="5.71378">
        <ele>449.07</ele>
        <time>2018-06-01T10:30:35Z</time>
      </trkpt>
      <trkpt lat="45.38318" lon="5.71402">
        <ele>447.63</ele>
        <time>2018-06-01T10:30:38Z</time>
      </trkpt>
      <trkpt lat="45.38321" lon="5.7141">
        <ele>447.63</ele>
        <time>2018-06-01T10:30:39Z</time>
      </trkpt>
      <trkpt lat="45.38322" lon="5.71418">
        <ele>448.59</ele>
        <time>2018-06-01T10:30:41Z</time>
      </trkpt>
      <trkpt lat="45.38322" lon="5.71417">
        <ele>449.07</ele>
        <time>2018-06-01T10:30:59Z</time>
      </trkpt>
      <trkpt lat="45.38324" lon="5.71419">
        <ele>448.59</ele>
        <time>2018-06-01T10:31:26Z</time>
      </trkpt>
      <trkpt lat="45.38325" lon="5.7142">
        <ele>448.59</ele>
        <time>2018-06-01T10:31:50Z</time>
      </trkpt>
      <trkpt lat="45.38322" lon="5.71419">
        <ele>447.63</ele>
        <time>2018-06-01T10:32:25Z</time>
      </trkpt>
      <trkpt lat="45.38322" lon="5.7142">
        <ele>447.15</ele>
        <time>2018-06-01T10:32:54Z</time>
      </trkpt>
      <trkpt lat="45.38325" lon="5.71422">
        <ele>446.67</ele>
        <time>2018-06-01T10:33:33Z</time>
      </trkpt>
      <trkpt lat="45.38327" lon="5.7142">
        <ele>445.71</ele>
        <time>2018-06-01T10:34:15Z</time>
      </trkpt>
      <trkpt lat="45.38326" lon="5.7142">
        <ele>446.19</ele>
        <time>2018-06-01T10:34:50Z</time>
      </trkpt>
      <trkpt lat="45.38326" lon="5.71421">
        <ele>446.19</ele>
        <time>2018-06-01T10:35:06Z</time>
      </trkpt>
      <trkpt lat="45.38328" lon="5.71423">
        <ele>446.19</ele>
        <time>2018-06-01T10:35:07Z</time>
      </trkpt>
      <trkpt lat="45.38329" lon="5.71424">
        <ele>446.19</ele>
        <time>2018-06-01T10:35:08Z</time>
      </trkpt>
      <trkpt lat="45.38331" lon="5.71426">
        <ele>446.19</ele>
        <time>2018-06-01T10:35:09Z</time>
      </trkpt>
      <trkpt lat="45.38332" lon="5.71428">
        <ele>446.19</ele>
        <time>2018-06-01T10:35:10Z</time>
      </trkpt>
      <trkpt lat="45.38334" lon="5.71429">
        <ele>445.71</ele>
        <time>2018-06-01T10:35:11Z</time>
      </trkpt>
      <trkpt lat="45.38335" lon="5.71431">
        <ele>444.75</ele>
        <time>2018-06-01T10:35:12Z</time>
      </trkpt>
      <trkpt lat="45.38338" lon="5.71432">
        <ele>444.75</ele>
        <time>2018-06-01T10:35:13Z</time>
      </trkpt>
      <trkpt lat="45.38355" lon="5.71448">
        <ele>442.82</ele>
        <time>2018-06-01T10:35:20Z</time>
      </trkpt>
      <trkpt lat="45.38356" lon="5.7145">
        <ele>442.82</ele>
        <time>2018-06-01T10:35:21Z</time>
      </trkpt>
      <trkpt lat="45.38356" lon="5.71452">
        <ele>442.82</ele>
        <time>2018-06-01T10:35:22Z</time>
      </trkpt>
      <trkpt lat="45.38358" lon="5.71454">
        <ele>442.82</ele>
        <time>2018-06-01T10:35:23Z</time>
      </trkpt>
      <trkpt lat="45.38359" lon="5.71456">
        <ele>442.82</ele>
        <time>2018-06-01T10:35:24Z</time>
      </trkpt>
      <trkpt lat="45.38373" lon="5.71495">
        <ele>439.94</ele>
        <time>2018-06-01T10:35:35Z</time>
      </trkpt>
      <trkpt lat="45.38378" lon="5.71507">
        <ele>439.94</ele>
        <time>2018-06-01T10:35:37Z</time>
      </trkpt>
      <trkpt lat="45.38381" lon="5.71513">
        <ele>438.98</ele>
        <time>2018-06-01T10:35:38Z</time>
      </trkpt>
      <trkpt lat="45.38384" lon="5.7152">
        <ele>438.5</ele>
        <time>2018-06-01T10:35:39Z</time>
      </trkpt>
      <trkpt lat="45.38431" lon="5.71627">
        <ele>435.13</ele>
        <time>2018-06-01T10:35:55Z</time>
      </trkpt>
      <trkpt lat="45.38443" lon="5.71651">
        <ele>434.17</ele>
        <time>2018-06-01T10:35:59Z</time>
      </trkpt>
      <trkpt lat="45.38492" lon="5.71751">
        <ele>431.77</ele>
        <time>2018-06-01T10:36:15Z</time>
      </trkpt>
      <trkpt lat="45.38494" lon="5.71756">
        <ele>431.77</ele>
        <time>2018-06-01T10:36:16Z</time>
      </trkpt>
      <trkpt lat="45.38496" lon="5.71761">
        <ele>431.77</ele>
        <time>2018-06-01T10:36:17Z</time>
      </trkpt>
      <trkpt lat="45.38499" lon="5.71766">
        <ele>431.77</ele>
        <time>2018-06-01T10:36:18Z</time>
      </trkpt>
      <trkpt lat="45.38502" lon="5.71771">
        <ele>431.77</ele>
        <time>2018-06-01T10:36:19Z</time>
      </trkpt>
      <trkpt lat="45.38504" lon="5.71776">
        <ele>431.77</ele>
        <time>2018-06-01T10:36:20Z</time>
      </trkpt>
      <trkpt lat="45.38509" lon="5.71786">
        <ele>431.77</ele>
        <time>2018-06-01T10:36:22Z</time>
      </trkpt>
      <trkpt lat="45.38513" lon="5.71789">
        <ele>431.77</ele>
        <time>2018-06-01T10:36:23Z</time>
      </trkpt>
      <trkpt lat="45.38518" lon="5.7179">
        <ele>431.77</ele>
        <time>2018-06-01T10:36:24Z</time>
      </trkpt>
      <trkpt lat="45.38523" lon="5.71788">
        <ele>431.77</ele>
        <time>2018-06-01T10:36:25Z</time>
      </trkpt>
      <trkpt lat="45.38526" lon="5.71785">
        <ele>431.29</ele>
        <time>2018-06-01T10:36:26Z</time>
      </trkpt>
      <trkpt lat="45.3853" lon="5.71781">
        <ele>431.29</ele>
        <time>2018-06-01T10:36:27Z</time>
      </trkpt>
      <trkpt lat="45.38534" lon="5.71777">
        <ele>431.29</ele>
        <time>2018-06-01T10:36:28Z</time>
      </trkpt>
      <trkpt lat="45.386" lon="5.71701">
        <ele>429.85</ele>
        <time>2018-06-01T10:36:45Z</time>
      </trkpt>
      <trkpt lat="45.38629" lon="5.71684">
        <ele>428.89</ele>
        <time>2018-06-01T10:36:52Z</time>
      </trkpt>
      <trkpt lat="45.38684" lon="5.71658">
        <ele>428.89</ele>
        <time>2018-06-01T10:37:08Z</time>
      </trkpt>
      <trkpt lat="45.38745" lon="5.71623">
        <ele>427.92</ele>
        <time>2018-06-01T10:37:22Z</time>
      </trkpt>
      <trkpt lat="45.38858" lon="5.71568">
        <ele>427.44</ele>
        <time>2018-06-01T10:37:46Z</time>
      </trkpt>
      <trkpt lat="45.38898" lon="5.71555">
        <ele>426.96</ele>
        <time>2018-06-01T10:37:55Z</time>
      </trkpt>
      <trkpt lat="45.38903" lon="5.71556">
        <ele>426.96</ele>
        <time>2018-06-01T10:37:56Z</time>
      </trkpt>
      <trkpt lat="45.38912" lon="5.71558">
        <ele>426.96</ele>
        <time>2018-06-01T10:37:58Z</time>
      </trkpt>
      <trkpt lat="45.38916" lon="5.71559">
        <ele>426.96</ele>
        <time>2018-06-01T10:37:59Z</time>
      </trkpt>
      <trkpt lat="45.38921" lon="5.71561">
        <ele>426.96</ele>
        <time>2018-06-01T10:38:00Z</time>
      </trkpt>
      <trkpt lat="45.38924" lon="5.71564">
        <ele>426.96</ele>
        <time>2018-06-01T10:38:01Z</time>
      </trkpt>
      <trkpt lat="45.38929" lon="5.71567">
        <ele>426.96</ele>
        <time>2018-06-01T10:38:02Z</time>
      </trkpt>
      <trkpt lat="45.38933" lon="5.71569">
        <ele>426.96</ele>
        <time>2018-06-01T10:38:03Z</time>
      </trkpt>
      <trkpt lat="45.38955" lon="5.7158">
        <ele>426.96</ele>
        <time>2018-06-01T10:38:08Z</time>
      </trkpt>
      <trkpt lat="45.39054" lon="5.71594">
        <ele>426.48</ele>
        <time>2018-06-01T10:38:28Z</time>
      </trkpt>
      <trkpt lat="45.39095" lon="5.71597">
        <ele>426.48</ele>
        <time>2018-06-01T10:38:37Z</time>
      </trkpt>
      <trkpt lat="45.39099" lon="5.71594">
        <ele>426.48</ele>
        <time>2018-06-01T10:38:38Z</time>
      </trkpt>
      <trkpt lat="45.39101" lon="5.71589">
        <ele>426</ele>
        <time>2018-06-01T10:38:39Z</time>
      </trkpt>
      <trkpt lat="45.39103" lon="5.71584">
        <ele>426</ele>
        <time>2018-06-01T10:38:40Z</time>
      </trkpt>
      <trkpt lat="45.39106" lon="5.71579">
        <ele>426</ele>
        <time>2018-06-01T10:38:41Z</time>
      </trkpt>
      <trkpt lat="45.39158" lon="5.71458">
        <ele>426</ele>
        <time>2018-06-01T10:39:01Z</time>
      </trkpt>
      <trkpt lat="45.39204" lon="5.71354">
        <ele>425.52</ele>
        <time>2018-06-01T10:39:18Z</time>
      </trkpt>
      <trkpt lat="45.3926" lon="5.71221">
        <ele>424.56</ele>
        <time>2018-06-01T10:39:39Z</time>
      </trkpt>
      <trkpt lat="45.3932" lon="5.71078">
        <ele>424.08</ele>
        <time>2018-06-01T10:40:02Z</time>
      </trkpt>
      <trkpt lat="45.39335" lon="5.7104">
        <ele>424.08</ele>
        <time>2018-06-01T10:40:09Z</time>
      </trkpt>
      <trkpt lat="45.39336" lon="5.71035">
        <ele>424.08</ele>
        <time>2018-06-01T10:40:10Z</time>
      </trkpt>
      <trkpt lat="45.39334" lon="5.7103">
        <ele>424.08</ele>
        <time>2018-06-01T10:40:11Z</time>
      </trkpt>
      <trkpt lat="45.39331" lon="5.71025">
        <ele>424.08</ele>
        <time>2018-06-01T10:40:12Z</time>
      </trkpt>
      <trkpt lat="45.39327" lon="5.71021">
        <ele>424.08</ele>
        <time>2018-06-01T10:40:13Z</time>
      </trkpt>
      <trkpt lat="45.39323" lon="5.71018">
        <ele>423.6</ele>
        <time>2018-06-01T10:40:14Z</time>
      </trkpt>
      <trkpt lat="45.3925" lon="5.70954">
        <ele>422.64</ele>
        <time>2018-06-01T10:40:32Z</time>
      </trkpt>
      <trkpt lat="45.39238" lon="5.70944">
        <ele>422.64</ele>
        <time>2018-06-01T10:40:35Z</time>
      </trkpt>
      <trkpt lat="45.39235" lon="5.7094">
        <ele>422.64</ele>
        <time>2018-06-01T10:40:36Z</time>
      </trkpt>
      <trkpt lat="45.39231" lon="5.70937">
        <ele>422.64</ele>
        <time>2018-06-01T10:40:37Z</time>
      </trkpt>
      <trkpt lat="45.39223" lon="5.7093">
        <ele>422.64</ele>
        <time>2018-06-01T10:40:39Z</time>
      </trkpt>
      <trkpt lat="45.39211" lon="5.70919">
        <ele>422.64</ele>
        <time>2018-06-01T10:40:42Z</time>
      </trkpt>
      <trkpt lat="45.39208" lon="5.70916">
        <ele>422.64</ele>
        <time>2018-06-01T10:40:43Z</time>
      </trkpt>
      <trkpt lat="45.39204" lon="5.70913">
        <ele>422.64</ele>
        <time>2018-06-01T10:40:44Z</time>
      </trkpt>
      <trkpt lat="45.39166" lon="5.70877">
        <ele>422.64</ele>
        <time>2018-06-01T10:40:54Z</time>
      </trkpt>
      <trkpt lat="45.39161" lon="5.70873">
        <ele>422.64</ele>
        <time>2018-06-01T10:40:55Z</time>
      </trkpt>
      <trkpt lat="45.39153" lon="5.70865">
        <ele>422.64</ele>
        <time>2018-06-01T10:40:57Z</time>
      </trkpt>
      <trkpt lat="45.39148" lon="5.70861">
        <ele>422.64</ele>
        <time>2018-06-01T10:40:58Z</time>
      </trkpt>
      <trkpt lat="45.39134" lon="5.70848">
        <ele>422.64</ele>
        <time>2018-06-01T10:41:01Z</time>
      </trkpt>
      <trkpt lat="45.3913" lon="5.70844">
        <ele>422.64</ele>
        <time>2018-06-01T10:41:02Z</time>
      </trkpt>
      <trkpt lat="45.39121" lon="5.70836">
        <ele>422.16</ele>
        <time>2018-06-01T10:41:04Z</time>
      </trkpt>
      <trkpt lat="45.39112" lon="5.70827">
        <ele>422.16</ele>
        <time>2018-06-01T10:41:06Z</time>
      </trkpt>
      <trkpt lat="45.39107" lon="5.70823">
        <ele>422.16</ele>
        <time>2018-06-01T10:41:07Z</time>
      </trkpt>
      <trkpt lat="45.39098" lon="5.70817">
        <ele>422.16</ele>
        <time>2018-06-01T10:41:09Z</time>
      </trkpt>
      <trkpt lat="45.39082" lon="5.70802">
        <ele>422.16</ele>
        <time>2018-06-01T10:41:13Z</time>
      </trkpt>
      <trkpt lat="45.39078" lon="5.70798">
        <ele>422.16</ele>
        <time>2018-06-01T10:41:14Z</time>
      </trkpt>
      <trkpt lat="45.39052" lon="5.70772">
        <ele>422.16</ele>
        <time>2018-06-01T10:41:21Z</time>
      </trkpt>
      <trkpt lat="45.38985" lon="5.7071">
        <ele>422.16</ele>
        <time>2018-06-01T10:41:38Z</time>
      </trkpt>
      <trkpt lat="45.38898" lon="5.70628">
        <ele>421.68</ele>
        <time>2018-06-01T10:42:01Z</time>
      </trkpt>
      <trkpt lat="45.38826" lon="5.70561">
        <ele>421.19</ele>
        <time>2018-06-01T10:42:20Z</time>
      </trkpt>
      <trkpt lat="45.38746" lon="5.70487">
        <ele>421.19</ele>
        <time>2018-06-01T10:42:42Z</time>
      </trkpt>
      <trkpt lat="45.38686" lon="5.70432">
        <ele>420.71</ele>
        <time>2018-06-01T10:43:01Z</time>
      </trkpt>
      <trkpt lat="45.3863" lon="5.70382">
        <ele>420.71</ele>
        <time>2018-06-01T10:43:18Z</time>
      </trkpt>
      <trkpt lat="45.38608" lon="5.70366">
        <ele>420.71</ele>
        <time>2018-06-01T10:43:24Z</time>
      </trkpt>
      <trkpt lat="45.38596" lon="5.70355">
        <ele>420.71</ele>
        <time>2018-06-01T10:43:27Z</time>
      </trkpt>
      <trkpt lat="45.38593" lon="5.7035">
        <ele>420.71</ele>
        <time>2018-06-01T10:43:28Z</time>
      </trkpt>
      <trkpt lat="45.38585" lon="5.70343">
        <ele>420.71</ele>
        <time>2018-06-01T10:43:30Z</time>
      </trkpt>
      <trkpt lat="45.38581" lon="5.7034">
        <ele>420.71</ele>
        <time>2018-06-01T10:43:31Z</time>
      </trkpt>
      <trkpt lat="45.38578" lon="5.70337">
        <ele>420.71</ele>
        <time>2018-06-01T10:43:32Z</time>
      </trkpt>
      <trkpt lat="45.38536" lon="5.70296">
        <ele>420.23</ele>
        <time>2018-06-01T10:43:44Z</time>
      </trkpt>
      <trkpt lat="45.38528" lon="5.70288">
        <ele>420.23</ele>
        <time>2018-06-01T10:43:46Z</time>
      </trkpt>
      <trkpt lat="45.38524" lon="5.70285">
        <ele>420.23</ele>
        <time>2018-06-01T10:43:47Z</time>
      </trkpt>
      <trkpt lat="45.38513" lon="5.70276">
        <ele>420.23</ele>
        <time>2018-06-01T10:43:50Z</time>
      </trkpt>
      <trkpt lat="45.38464" lon="5.70233">
        <ele>420.23</ele>
        <time>2018-06-01T10:44:05Z</time>
      </trkpt>
      <trkpt lat="45.38436" lon="5.70213">
        <ele>419.75</ele>
        <time>2018-06-01T10:44:19Z</time>
      </trkpt>
      <trkpt lat="45.38409" lon="5.70144">
        <ele>419.75</ele>
        <time>2018-06-01T10:44:34Z</time>
      </trkpt>
      <trkpt lat="45.38388" lon="5.70071">
        <ele>419.75</ele>
        <time>2018-06-01T10:44:49Z</time>
      </trkpt>
      <trkpt lat="45.38366" lon="5.69992">
        <ele>419.27</ele>
        <time>2018-06-01T10:45:05Z</time>
      </trkpt>
      <trkpt lat="45.38329" lon="5.69869">
        <ele>419.27</ele>
        <time>2018-06-01T10:45:29Z</time>
      </trkpt>
      <trkpt lat="45.38317" lon="5.69831">
        <ele>419.27</ele>
        <time>2018-06-01T10:45:36Z</time>
      </trkpt>
      <trkpt lat="45.38316" lon="5.69824">
        <ele>419.27</ele>
        <time>2018-06-01T10:45:37Z</time>
      </trkpt>
      <trkpt lat="45.38315" lon="5.69817">
        <ele>419.27</ele>
        <time>2018-06-01T10:45:38Z</time>
      </trkpt>
      <trkpt lat="45.38301" lon="5.69773">
        <ele>418.79</ele>
        <time>2018-06-01T10:45:45Z</time>
      </trkpt>
      <trkpt lat="45.38297" lon="5.6976">
        <ele>418.79</ele>
        <time>2018-06-01T10:45:47Z</time>
      </trkpt>
      <trkpt lat="45.38294" lon="5.69748">
        <ele>418.79</ele>
        <time>2018-06-01T10:45:49Z</time>
      </trkpt>
      <trkpt lat="45.38293" lon="5.69741">
        <ele>418.79</ele>
        <time>2018-06-01T10:45:50Z</time>
      </trkpt>
      <trkpt lat="45.38291" lon="5.69735">
        <ele>418.79</ele>
        <time>2018-06-01T10:45:51Z</time>
      </trkpt>
      <trkpt lat="45.38269" lon="5.69664">
        <ele>419.75</ele>
        <time>2018-06-01T10:46:05Z</time>
      </trkpt>
      <trkpt lat="45.38258" lon="5.69618">
        <ele>420.23</ele>
        <time>2018-06-01T10:46:14Z</time>
      </trkpt>
      <trkpt lat="45.38252" lon="5.696">
        <ele>420.23</ele>
        <time>2018-06-01T10:46:17Z</time>
      </trkpt>
      <trkpt lat="45.38245" lon="5.69576">
        <ele>420.23</ele>
        <time>2018-06-01T10:46:21Z</time>
      </trkpt>
      <trkpt lat="45.38244" lon="5.6957">
        <ele>420.23</ele>
        <time>2018-06-01T10:46:22Z</time>
      </trkpt>
      <trkpt lat="45.3823" lon="5.69521">
        <ele>420.23</ele>
        <time>2018-06-01T10:46:30Z</time>
      </trkpt>
      <trkpt lat="45.38221" lon="5.6949">
        <ele>420.23</ele>
        <time>2018-06-01T10:46:35Z</time>
      </trkpt>
      <trkpt lat="45.38219" lon="5.69484">
        <ele>420.23</ele>
        <time>2018-06-01T10:46:36Z</time>
      </trkpt>
      <trkpt lat="45.38217" lon="5.69478">
        <ele>420.23</ele>
        <time>2018-06-01T10:46:37Z</time>
      </trkpt>
      <trkpt lat="45.38215" lon="5.69472">
        <ele>420.23</ele>
        <time>2018-06-01T10:46:38Z</time>
      </trkpt>
      <trkpt lat="45.38213" lon="5.69466">
        <ele>419.75</ele>
        <time>2018-06-01T10:46:39Z</time>
      </trkpt>
      <trkpt lat="45.38206" lon="5.69442">
        <ele>419.75</ele>
        <time>2018-06-01T10:46:43Z</time>
      </trkpt>
      <trkpt lat="45.38205" lon="5.69435">
        <ele>419.75</ele>
        <time>2018-06-01T10:46:44Z</time>
      </trkpt>
      <trkpt lat="45.38203" lon="5.69429">
        <ele>419.75</ele>
        <time>2018-06-01T10:46:45Z</time>
      </trkpt>
      <trkpt lat="45.38202" lon="5.69423">
        <ele>419.75</ele>
        <time>2018-06-01T10:46:46Z</time>
      </trkpt>
      <trkpt lat="45.382" lon="5.69418">
        <ele>419.75</ele>
        <time>2018-06-01T10:46:47Z</time>
      </trkpt>
      <trkpt lat="45.38197" lon="5.69412">
        <ele>419.75</ele>
        <time>2018-06-01T10:46:48Z</time>
      </trkpt>
      <trkpt lat="45.38196" lon="5.69406">
        <ele>419.75</ele>
        <time>2018-06-01T10:46:49Z</time>
      </trkpt>
      <trkpt lat="45.38194" lon="5.694">
        <ele>419.75</ele>
        <time>2018-06-01T10:46:50Z</time>
      </trkpt>
      <trkpt lat="45.38188" lon="5.69374">
        <ele>419.75</ele>
        <time>2018-06-01T10:46:54Z</time>
      </trkpt>
      <trkpt lat="45.38185" lon="5.69368">
        <ele>419.75</ele>
        <time>2018-06-01T10:46:55Z</time>
      </trkpt>
      <trkpt lat="45.38176" lon="5.69337">
        <ele>419.75</ele>
        <time>2018-06-01T10:47:00Z</time>
      </trkpt>
      <trkpt lat="45.38175" lon="5.69331">
        <ele>419.75</ele>
        <time>2018-06-01T10:47:01Z</time>
      </trkpt>
      <trkpt lat="45.38173" lon="5.69325">
        <ele>419.75</ele>
        <time>2018-06-01T10:47:02Z</time>
      </trkpt>
      <trkpt lat="45.38166" lon="5.69301">
        <ele>419.75</ele>
        <time>2018-06-01T10:47:06Z</time>
      </trkpt>
      <trkpt lat="45.38162" lon="5.6929">
        <ele>419.75</ele>
        <time>2018-06-01T10:47:08Z</time>
      </trkpt>
      <trkpt lat="45.38133" lon="5.69193">
        <ele>420.23</ele>
        <time>2018-06-01T10:47:27Z</time>
      </trkpt>
      <trkpt lat="45.38131" lon="5.69182">
        <ele>420.23</ele>
        <time>2018-06-01T10:47:29Z</time>
      </trkpt>
      <trkpt lat="45.38107" lon="5.69096">
        <ele>419.75</ele>
        <time>2018-06-01T10:47:45Z</time>
      </trkpt>
      <trkpt lat="45.38105" lon="5.69071">
        <ele>420.23</ele>
        <time>2018-06-01T10:47:52Z</time>
      </trkpt>
      <trkpt lat="45.38143" lon="5.69038">
        <ele>420.71</ele>
        <time>2018-06-01T10:48:07Z</time>
      </trkpt>
      <trkpt lat="45.38154" lon="5.69023">
        <ele>420.71</ele>
        <time>2018-06-01T10:48:14Z</time>
      </trkpt>
      <trkpt lat="45.38156" lon="5.69022">
        <ele>420.71</ele>
        <time>2018-06-01T10:48:15Z</time>
      </trkpt>
      <trkpt lat="45.38157" lon="5.69019">
        <ele>420.71</ele>
        <time>2018-06-01T10:48:16Z</time>
      </trkpt>
      <trkpt lat="45.38157" lon="5.69017">
        <ele>420.23</ele>
        <time>2018-06-01T10:48:17Z</time>
      </trkpt>
      <trkpt lat="45.38156" lon="5.69016">
        <ele>420.71</ele>
        <time>2018-06-01T10:48:18Z</time>
      </trkpt>
      <trkpt lat="45.38155" lon="5.69018">
        <ele>420.71</ele>
        <time>2018-06-01T10:48:19Z</time>
      </trkpt>
      <trkpt lat="45.38154" lon="5.69019">
        <ele>420.71</ele>
        <time>2018-06-01T10:48:20Z</time>
      </trkpt>
      <trkpt lat="45.38153" lon="5.69021">
        <ele>420.71</ele>
        <time>2018-06-01T10:48:21Z</time>
      </trkpt>
      <trkpt lat="45.38152" lon="5.69022">
        <ele>420.71</ele>
        <time>2018-06-01T10:48:22Z</time>
      </trkpt>
      <trkpt lat="45.38151" lon="5.69022">
        <ele>420.71</ele>
        <time>2018-06-01T10:48:23Z</time>
      </trkpt>
      <trkpt lat="45.3815" lon="5.69022">
        <ele>420.71</ele>
        <time>2018-06-01T10:48:39Z</time>
      </trkpt>
      <trkpt lat="45.38151" lon="5.69019">
        <ele>420.23</ele>
        <time>2018-06-01T10:49:15Z</time>
      </trkpt>
      <trkpt lat="45.38151" lon="5.6902">
        <ele>420.23</ele>
        <time>2018-06-01T10:49:17Z</time>
      </trkpt>
      <trkpt lat="45.3815" lon="5.69021">
        <ele>420.23</ele>
        <time>2018-06-01T10:49:18Z</time>
      </trkpt>
      <trkpt lat="45.38149" lon="5.69023">
        <ele>420.23</ele>
        <time>2018-06-01T10:49:19Z</time>
      </trkpt>
      <trkpt lat="45.38148" lon="5.69025">
        <ele>420.23</ele>
        <time>2018-06-01T10:49:20Z</time>
      </trkpt>
      <trkpt lat="45.38149" lon="5.69026">
        <ele>420.23</ele>
        <time>2018-06-01T10:49:21Z</time>
      </trkpt>
      <trkpt lat="45.38152" lon="5.69025">
        <ele>420.23</ele>
        <time>2018-06-01T10:49:25Z</time>
      </trkpt>
      <trkpt lat="45.38153" lon="5.69024">
        <ele>420.23</ele>
        <time>2018-06-01T10:49:26Z</time>
      </trkpt>
      <trkpt lat="45.38185" lon="5.68981">
        <ele>420.23</ele>
        <time>2018-06-01T10:49:42Z</time>
      </trkpt>
      <trkpt lat="45.38225" lon="5.68912">
        <ele>421.19</ele>
        <time>2018-06-01T10:50:00Z</time>
      </trkpt>
      <trkpt lat="45.38249" lon="5.68861">
        <ele>423.6</ele>
        <time>2018-06-01T10:50:15Z</time>
      </trkpt>
      <trkpt lat="45.38248" lon="5.68858">
        <ele>423.6</ele>
        <time>2018-06-01T10:50:16Z</time>
      </trkpt>
      <trkpt lat="45.38247" lon="5.68856">
        <ele>423.6</ele>
        <time>2018-06-01T10:50:17Z</time>
      </trkpt>
      <trkpt lat="45.38246" lon="5.68854">
        <ele>423.6</ele>
        <time>2018-06-01T10:50:18Z</time>
      </trkpt>
      <trkpt lat="45.38245" lon="5.68852">
        <ele>423.6</ele>
        <time>2018-06-01T10:50:19Z</time>
      </trkpt>
      <trkpt lat="45.38238" lon="5.68844">
        <ele>424.08</ele>
        <time>2018-06-01T10:50:24Z</time>
      </trkpt>
      <trkpt lat="45.38237" lon="5.68844">
        <ele>424.08</ele>
        <time>2018-06-01T10:50:25Z</time>
      </trkpt>
      <trkpt lat="45.38236" lon="5.68846">
        <ele>424.08</ele>
        <time>2018-06-01T10:50:27Z</time>
      </trkpt>
      <trkpt lat="45.38237" lon="5.68849">
        <ele>424.08</ele>
        <time>2018-06-01T10:50:29Z</time>
      </trkpt>
      <trkpt lat="45.38238" lon="5.6885">
        <ele>424.08</ele>
        <time>2018-06-01T10:50:30Z</time>
      </trkpt>
      <trkpt lat="45.38239" lon="5.68851">
        <ele>424.08</ele>
        <time>2018-06-01T10:50:31Z</time>
      </trkpt>
      <trkpt lat="45.38241" lon="5.68851">
        <ele>424.08</ele>
        <time>2018-06-01T10:50:32Z</time>
      </trkpt>
      <trkpt lat="45.38242" lon="5.68852">
        <ele>424.08</ele>
        <time>2018-06-01T10:50:33Z</time>
      </trkpt>
      <trkpt lat="45.38244" lon="5.68854">
        <ele>424.08</ele>
        <time>2018-06-01T10:50:34Z</time>
      </trkpt>
      <trkpt lat="45.38245" lon="5.68855">
        <ele>424.08</ele>
        <time>2018-06-01T10:50:35Z</time>
      </trkpt>
      <trkpt lat="45.38251" lon="5.68859">
        <ele>424.08</ele>
        <time>2018-06-01T10:50:40Z</time>
      </trkpt>
      <trkpt lat="45.38249" lon="5.68855">
        <ele>424.08</ele>
        <time>2018-06-01T10:50:48Z</time>
      </trkpt>
      <trkpt lat="45.38247" lon="5.68855">
        <ele>424.08</ele>
        <time>2018-06-01T10:50:49Z</time>
      </trkpt>
      <trkpt lat="45.38246" lon="5.68854">
        <ele>424.08</ele>
        <time>2018-06-01T10:50:50Z</time>
      </trkpt>
      <trkpt lat="45.38238" lon="5.68842">
        <ele>424.08</ele>
        <time>2018-06-01T10:51:06Z</time>
      </trkpt>
      <trkpt lat="45.38238" lon="5.68841">
        <ele>423.6</ele>
        <time>2018-06-01T10:51:41Z</time>
      </trkpt>
      <trkpt lat="45.38235" lon="5.68845">
        <ele>423.6</ele>
        <time>2018-06-01T10:52:17Z</time>
      </trkpt>
      <trkpt lat="45.38234" lon="5.68841">
        <ele>423.6</ele>
        <time>2018-06-01T10:52:25Z</time>
      </trkpt>
      <trkpt lat="45.38233" lon="5.6884">
        <ele>423.6</ele>
        <time>2018-06-01T10:52:26Z</time>
      </trkpt>
      <trkpt lat="45.38231" lon="5.68837">
        <ele>423.6</ele>
        <time>2018-06-01T10:52:27Z</time>
      </trkpt>
      <trkpt lat="45.38229" lon="5.68834">
        <ele>423.6</ele>
        <time>2018-06-01T10:52:28Z</time>
      </trkpt>
      <trkpt lat="45.38228" lon="5.6883">
        <ele>423.6</ele>
        <time>2018-06-01T10:52:29Z</time>
      </trkpt>
      <trkpt lat="45.38226" lon="5.68826">
        <ele>423.6</ele>
        <time>2018-06-01T10:52:30Z</time>
      </trkpt>
      <trkpt lat="45.38225" lon="5.68822">
        <ele>423.6</ele>
        <time>2018-06-01T10:52:31Z</time>
      </trkpt>
      <trkpt lat="45.38214" lon="5.68798">
        <ele>422.16</ele>
        <time>2018-06-01T10:52:36Z</time>
      </trkpt>
      <trkpt lat="45.38186" lon="5.68721">
        <ele>421.19</ele>
        <time>2018-06-01T10:52:50Z</time>
      </trkpt>
      <trkpt lat="45.38175" lon="5.68686">
        <ele>421.19</ele>
        <time>2018-06-01T10:52:56Z</time>
      </trkpt>
      <trkpt lat="45.38163" lon="5.68628">
        <ele>421.19</ele>
        <time>2018-06-01T10:53:05Z</time>
      </trkpt>
      <trkpt lat="45.3816" lon="5.68623">
        <ele>421.19</ele>
        <time>2018-06-01T10:53:06Z</time>
      </trkpt>
      <trkpt lat="45.38157" lon="5.68618">
        <ele>421.19</ele>
        <time>2018-06-01T10:53:07Z</time>
      </trkpt>
      <trkpt lat="45.38154" lon="5.68613">
        <ele>421.19</ele>
        <time>2018-06-01T10:53:08Z</time>
      </trkpt>
      <trkpt lat="45.3815" lon="5.68609">
        <ele>421.19</ele>
        <time>2018-06-01T10:53:09Z</time>
      </trkpt>
      <trkpt lat="45.38146" lon="5.68606">
        <ele>421.19</ele>
        <time>2018-06-01T10:53:10Z</time>
      </trkpt>
      <trkpt lat="45.38068" lon="5.68541">
        <ele>422.16</ele>
        <time>2018-06-01T10:53:30Z</time>
      </trkpt>
      <trkpt lat="45.38022" lon="5.68475">
        <ele>424.08</ele>
        <time>2018-06-01T10:53:48Z</time>
      </trkpt>
      <trkpt lat="45.37992" lon="5.68438">
        <ele>427.44</ele>
        <time>2018-06-01T10:54:01Z</time>
      </trkpt>
      <trkpt lat="45.37964" lon="5.68409">
        <ele>430.33</ele>
        <time>2018-06-01T10:54:15Z</time>
      </trkpt>
      <trkpt lat="45.37938" lon="5.68381">
        <ele>433.69</ele>
        <time>2018-06-01T10:54:31Z</time>
      </trkpt>
      <trkpt lat="45.37935" lon="5.68379">
        <ele>433.69</ele>
        <time>2018-06-01T10:54:33Z</time>
      </trkpt>
      <trkpt lat="45.37903" lon="5.68354">
        <ele>433.21</ele>
        <time>2018-06-01T10:54:46Z</time>
      </trkpt>
      <trkpt lat="45.37863" lon="5.68328">
        <ele>434.17</ele>
        <time>2018-06-01T10:55:03Z</time>
      </trkpt>
      <trkpt lat="45.37816" lon="5.68309">
        <ele>434.65</ele>
        <time>2018-06-01T10:55:19Z</time>
      </trkpt>
      <trkpt lat="45.37762" lon="5.68296">
        <ele>436.58</ele>
        <time>2018-06-01T10:55:38Z</time>
      </trkpt>
      <trkpt lat="45.37741" lon="5.68277">
        <ele>439.94</ele>
        <time>2018-06-01T10:55:51Z</time>
      </trkpt>
      <trkpt lat="45.3772" lon="5.68254">
        <ele>443.79</ele>
        <time>2018-06-01T10:56:03Z</time>
      </trkpt>
      <trkpt lat="45.37696" lon="5.68233">
        <ele>444.75</ele>
        <time>2018-06-01T10:56:21Z</time>
      </trkpt>
      <trkpt lat="45.37672" lon="5.68218">
        <ele>442.34</ele>
        <time>2018-06-01T10:56:30Z</time>
      </trkpt>
      <trkpt lat="45.37665" lon="5.68214">
        <ele>442.34</ele>
        <time>2018-06-01T10:56:32Z</time>
      </trkpt>
      <trkpt lat="45.37663" lon="5.68212">
        <ele>442.34</ele>
        <time>2018-06-01T10:56:33Z</time>
      </trkpt>
      <trkpt lat="45.37661" lon="5.6821">
        <ele>443.31</ele>
        <time>2018-06-01T10:56:35Z</time>
      </trkpt>
      <trkpt lat="45.37661" lon="5.68212">
        <ele>443.31</ele>
        <time>2018-06-01T10:56:36Z</time>
      </trkpt>
      <trkpt lat="45.37662" lon="5.68215">
        <ele>443.31</ele>
        <time>2018-06-01T10:56:37Z</time>
      </trkpt>
      <trkpt lat="45.37663" lon="5.68219">
        <ele>443.31</ele>
        <time>2018-06-01T10:56:38Z</time>
      </trkpt>
      <trkpt lat="45.37664" lon="5.68224">
        <ele>441.86</ele>
        <time>2018-06-01T10:56:39Z</time>
      </trkpt>
      <trkpt lat="45.37662" lon="5.68228">
        <ele>440.9</ele>
        <time>2018-06-01T10:56:40Z</time>
      </trkpt>
      <trkpt lat="45.37658" lon="5.68232">
        <ele>440.42</ele>
        <time>2018-06-01T10:56:41Z</time>
      </trkpt>
      <trkpt lat="45.37652" lon="5.68236">
        <ele>439.46</ele>
        <time>2018-06-01T10:56:42Z</time>
      </trkpt>
      <trkpt lat="45.37646" lon="5.68238">
        <ele>438.5</ele>
        <time>2018-06-01T10:56:43Z</time>
      </trkpt>
      <trkpt lat="45.37639" lon="5.68239">
        <ele>437.54</ele>
        <time>2018-06-01T10:56:44Z</time>
      </trkpt>
      <trkpt lat="45.37631" lon="5.68239">
        <ele>436.58</ele>
        <time>2018-06-01T10:56:45Z</time>
      </trkpt>
      <trkpt lat="45.37624" lon="5.68237">
        <ele>436.1</ele>
        <time>2018-06-01T10:56:46Z</time>
      </trkpt>
      <trkpt lat="45.37616" lon="5.68234">
        <ele>435.61</ele>
        <time>2018-06-01T10:56:47Z</time>
      </trkpt>
      <trkpt lat="45.37609" lon="5.6823">
        <ele>434.17</ele>
        <time>2018-06-01T10:56:48Z</time>
      </trkpt>
      <trkpt lat="45.37583" lon="5.68216">
        <ele>430.81</ele>
        <time>2018-06-01T10:56:51Z</time>
      </trkpt>
      <trkpt lat="45.37563" lon="5.68209">
        <ele>427.92</ele>
        <time>2018-06-01T10:56:53Z</time>
      </trkpt>
      <trkpt lat="45.37552" lon="5.68208">
        <ele>426.96</ele>
        <time>2018-06-01T10:56:54Z</time>
      </trkpt>
      <trkpt lat="45.37531" lon="5.68208">
        <ele>426.48</ele>
        <time>2018-06-01T10:56:56Z</time>
      </trkpt>
      <trkpt lat="45.37521" lon="5.68206">
        <ele>425.52</ele>
        <time>2018-06-01T10:56:57Z</time>
      </trkpt>
      <trkpt lat="45.37511" lon="5.68203">
        <ele>425.52</ele>
        <time>2018-06-01T10:56:58Z</time>
      </trkpt>
      <trkpt lat="45.37501" lon="5.68199">
        <ele>425.52</ele>
        <time>2018-06-01T10:56:59Z</time>
      </trkpt>
      <trkpt lat="45.37492" lon="5.68194">
        <ele>425.04</ele>
        <time>2018-06-01T10:57:00Z</time>
      </trkpt>
      <trkpt lat="45.37484" lon="5.68188">
        <ele>425.52</ele>
        <time>2018-06-01T10:57:01Z</time>
      </trkpt>
      <trkpt lat="45.37476" lon="5.68182">
        <ele>425.04</ele>
        <time>2018-06-01T10:57:02Z</time>
      </trkpt>
      <trkpt lat="45.3747" lon="5.68175">
        <ele>425.04</ele>
        <time>2018-06-01T10:57:03Z</time>
      </trkpt>
      <trkpt lat="45.37463" lon="5.68168">
        <ele>425.04</ele>
        <time>2018-06-01T10:57:04Z</time>
      </trkpt>
      <trkpt lat="45.37453" lon="5.68152">
        <ele>425.52</ele>
        <time>2018-06-01T10:57:06Z</time>
      </trkpt>
      <trkpt lat="45.37444" lon="5.68137">
        <ele>426.48</ele>
        <time>2018-06-01T10:57:08Z</time>
      </trkpt>
      <trkpt lat="45.3744" lon="5.68132">
        <ele>426.48</ele>
        <time>2018-06-01T10:57:09Z</time>
      </trkpt>
      <trkpt lat="45.37435" lon="5.68128">
        <ele>426.48</ele>
        <time>2018-06-01T10:57:10Z</time>
      </trkpt>
      <trkpt lat="45.37431" lon="5.68125">
        <ele>426.48</ele>
        <time>2018-06-01T10:57:11Z</time>
      </trkpt>
      <trkpt lat="45.37427" lon="5.6812">
        <ele>427.44</ele>
        <time>2018-06-01T10:57:12Z</time>
      </trkpt>
      <trkpt lat="45.37423" lon="5.68115">
        <ele>427.44</ele>
        <time>2018-06-01T10:57:13Z</time>
      </trkpt>
      <trkpt lat="45.3742" lon="5.68111">
        <ele>427.44</ele>
        <time>2018-06-01T10:57:14Z</time>
      </trkpt>
      <trkpt lat="45.37397" lon="5.68083">
        <ele>428.4</ele>
        <time>2018-06-01T10:57:26Z</time>
      </trkpt>
      <trkpt lat="45.37394" lon="5.68079">
        <ele>428.4</ele>
        <time>2018-06-01T10:57:28Z</time>
      </trkpt>
      <trkpt lat="45.37392" lon="5.68078">
        <ele>427.92</ele>
        <time>2018-06-01T10:57:29Z</time>
      </trkpt>
      <trkpt lat="45.37357" lon="5.68051">
        <ele>428.4</ele>
        <time>2018-06-01T10:57:43Z</time>
      </trkpt>
      <trkpt lat="45.3734" lon="5.68033">
        <ele>428.89</ele>
        <time>2018-06-01T10:57:50Z</time>
      </trkpt>
      <trkpt lat="45.37337" lon="5.68032">
        <ele>429.37</ele>
        <time>2018-06-01T10:57:51Z</time>
      </trkpt>
      <trkpt lat="45.37334" lon="5.6803">
        <ele>429.37</ele>
        <time>2018-06-01T10:57:52Z</time>
      </trkpt>
      <trkpt lat="45.37305" lon="5.67986">
        <ele>429.85</ele>
        <time>2018-06-01T10:58:06Z</time>
      </trkpt>
      <trkpt lat="45.37268" lon="5.6797">
        <ele>430.33</ele>
        <time>2018-06-01T10:58:18Z</time>
      </trkpt>
      <trkpt lat="45.37221" lon="5.67989">
        <ele>431.29</ele>
        <time>2018-06-01T10:58:34Z</time>
      </trkpt>
      <trkpt lat="45.37198" lon="5.68002">
        <ele>431.77</ele>
        <time>2018-06-01T10:58:51Z</time>
      </trkpt>
      <trkpt lat="45.37194" lon="5.67988">
        <ele>431.77</ele>
        <time>2018-06-01T10:59:30Z</time>
      </trkpt>
      <trkpt lat="45.37196" lon="5.6799">
        <ele>431.29</ele>
        <time>2018-06-01T11:00:01Z</time>
      </trkpt>
      <trkpt lat="45.37193" lon="5.67987">
        <ele>431.29</ele>
        <time>2018-06-01T11:00:42Z</time>
      </trkpt>
      <trkpt lat="45.37193" lon="5.67987">
        <ele>431.29</ele>
        <time>2018-06-01T11:01:15Z</time>
      </trkpt>
      <trkpt lat="45.37196" lon="5.6799">
        <ele>431.29</ele>
        <time>2018-06-01T11:01:49Z</time>
      </trkpt>
      <trkpt lat="45.37192" lon="5.67987">
        <ele>431.29</ele>
        <time>2018-06-01T11:02:20Z</time>
      </trkpt>
      <trkpt lat="45.37192" lon="5.6799">
        <ele>431.29</ele>
        <time>2018-06-01T11:02:52Z</time>
      </trkpt>
      <trkpt lat="45.37199" lon="5.67991">
        <ele>431.29</ele>
        <time>2018-06-01T11:03:34Z</time>
      </trkpt>
      <trkpt lat="45.37197" lon="5.67986">
        <ele>431.77</ele>
        <time>2018-06-01T11:04:03Z</time>
      </trkpt>
      <trkpt lat="45.37197" lon="5.67985">
        <ele>431.77</ele>
        <time>2018-06-01T11:04:48Z</time>
      </trkpt>
      <trkpt lat="45.37195" lon="5.67988">
        <ele>431.77</ele>
        <time>2018-06-01T11:05:35Z</time>
      </trkpt>
      <trkpt lat="45.37196" lon="5.6799">
        <ele>431.77</ele>
        <time>2018-06-01T11:06:05Z</time>
      </trkpt>
      <trkpt lat="45.37192" lon="5.67991">
        <ele>431.77</ele>
        <time>2018-06-01T11:06:40Z</time>
      </trkpt>
      <trkpt lat="45.37193" lon="5.67988">
        <ele>431.77</ele>
        <time>2018-06-01T11:07:15Z</time>
      </trkpt>
      <trkpt lat="45.37192" lon="5.6799">
        <ele>431.77</ele>
        <time>2018-06-01T11:07:55Z</time>
      </trkpt>
      <trkpt lat="45.37192" lon="5.67993">
        <ele>431.77</ele>
        <time>2018-06-01T11:08:29Z</time>
      </trkpt>
      <trkpt lat="45.37193" lon="5.67984">
        <ele>431.77</ele>
        <time>2018-06-01T11:09:09Z</time>
      </trkpt>
      <trkpt lat="45.37189" lon="5.6799">
        <ele>431.77</ele>
        <time>2018-06-01T11:09:44Z</time>
      </trkpt>
      <trkpt lat="45.37188" lon="5.67989">
        <ele>431.77</ele>
        <time>2018-06-01T11:10:15Z</time>
      </trkpt>
      <trkpt lat="45.37198" lon="5.67983">
        <ele>432.25</ele>
        <time>2018-06-01T11:10:53Z</time>
      </trkpt>
      <trkpt lat="45.37198" lon="5.67983">
        <ele>432.25</ele>
        <time>2018-06-01T11:11:25Z</time>
      </trkpt>
      <trkpt lat="45.37196" lon="5.67991">
        <ele>432.25</ele>
        <time>2018-06-01T11:11:59Z</time>
      </trkpt>
      <trkpt lat="45.37199" lon="5.6799">
        <ele>432.73</ele>
        <time>2018-06-01T11:12:41Z</time>
      </trkpt>
      <trkpt lat="45.37196" lon="5.67995">
        <ele>432.73</ele>
        <time>2018-06-01T11:13:19Z</time>
      </trkpt>
      <trkpt lat="45.37201" lon="5.67995">
        <ele>432.73</ele>
        <time>2018-06-01T11:13:50Z</time>
      </trkpt>
      <trkpt lat="45.37194" lon="5.67989">
        <ele>432.73</ele>
        <time>2018-06-01T11:14:25Z</time>
      </trkpt>
      <trkpt lat="45.37192" lon="5.67988">
        <ele>432.73</ele>
        <time>2018-06-01T11:15:02Z</time>
      </trkpt>
      <trkpt lat="45.37192" lon="5.67982">
        <ele>432.73</ele>
        <time>2018-06-01T11:15:40Z</time>
      </trkpt>
      <trkpt lat="45.37191" lon="5.67987">
        <ele>432.73</ele>
        <time>2018-06-01T11:16:14Z</time>
      </trkpt>
      <trkpt lat="45.37195" lon="5.67991">
        <ele>432.73</ele>
        <time>2018-06-01T11:16:49Z</time>
      </trkpt>
      <trkpt lat="45.37196" lon="5.67992">
        <ele>432.73</ele>
        <time>2018-06-01T11:17:25Z</time>
      </trkpt>
      <trkpt lat="45.37193" lon="5.67993">
        <ele>432.73</ele>
        <time>2018-06-01T11:18:07Z</time>
      </trkpt>
      <trkpt lat="45.37196" lon="5.67991">
        <ele>433.21</ele>
        <time>2018-06-01T11:18:44Z</time>
      </trkpt>
      <trkpt lat="45.37197" lon="5.67992">
        <ele>433.21</ele>
        <time>2018-06-01T11:19:30Z</time>
      </trkpt>
      <trkpt lat="45.37195" lon="5.67993">
        <ele>433.21</ele>
        <time>2018-06-01T11:20:05Z</time>
      </trkpt>
      <trkpt lat="45.37195" lon="5.67993">
        <ele>433.21</ele>
        <time>2018-06-01T11:20:35Z</time>
      </trkpt>
      <trkpt lat="45.37196" lon="5.67993">
        <ele>433.21</ele>
        <time>2018-06-01T11:20:39Z</time>
      </trkpt>
      <trkpt lat="45.37189" lon="5.67995">
        <ele>433.21</ele>
        <time>2018-06-01T11:20:45Z</time>
      </trkpt>
      <trkpt lat="45.37167" lon="5.67997">
        <ele>434.65</ele>
        <time>2018-06-01T11:20:59Z</time>
      </trkpt>
      <trkpt lat="45.37127" lon="5.67995">
        <ele>435.61</ele>
        <time>2018-06-01T11:21:17Z</time>
      </trkpt>
      <trkpt lat="45.37077" lon="5.67983">
        <ele>436.58</ele>
        <time>2018-06-01T11:21:35Z</time>
      </trkpt>
      <trkpt lat="45.37017" lon="5.67963">
        <ele>438.02</ele>
        <time>2018-06-01T11:21:54Z</time>
      </trkpt>
      <trkpt lat="45.36955" lon="5.67932">
        <ele>439.46</ele>
        <time>2018-06-01T11:22:13Z</time>
      </trkpt>
      <trkpt lat="45.36913" lon="5.6793">
        <ele>440.42</ele>
        <time>2018-06-01T11:22:26Z</time>
      </trkpt>
      <trkpt lat="45.3691" lon="5.67929">
        <ele>440.9</ele>
        <time>2018-06-01T11:22:27Z</time>
      </trkpt>
      <trkpt lat="45.36907" lon="5.67929">
        <ele>440.9</ele>
        <time>2018-06-01T11:22:28Z</time>
      </trkpt>
      <trkpt lat="45.36904" lon="5.67929">
        <ele>440.9</ele>
        <time>2018-06-01T11:22:29Z</time>
      </trkpt>
      <trkpt lat="45.36901" lon="5.67929">
        <ele>440.9</ele>
        <time>2018-06-01T11:22:30Z</time>
      </trkpt>
      <trkpt lat="45.36898" lon="5.67929">
        <ele>441.86</ele>
        <time>2018-06-01T11:22:31Z</time>
      </trkpt>
      <trkpt lat="45.36895" lon="5.67929">
        <ele>441.86</ele>
        <time>2018-06-01T11:22:32Z</time>
      </trkpt>
      <trkpt lat="45.36892" lon="5.67928">
        <ele>441.86</ele>
        <time>2018-06-01T11:22:33Z</time>
      </trkpt>
      <trkpt lat="45.36846" lon="5.67906">
        <ele>442.82</ele>
        <time>2018-06-01T11:22:49Z</time>
      </trkpt>
      <trkpt lat="45.3678" lon="5.67869">
        <ele>443.31</ele>
        <time>2018-06-01T11:23:07Z</time>
      </trkpt>
      <trkpt lat="45.36714" lon="5.67828">
        <ele>445.71</ele>
        <time>2018-06-01T11:23:27Z</time>
      </trkpt>
      <trkpt lat="45.36651" lon="5.67815">
        <ele>446.19</ele>
        <time>2018-06-01T11:23:44Z</time>
      </trkpt>
      <trkpt lat="45.36613" lon="5.67813">
        <ele>447.15</ele>
        <time>2018-06-01T11:23:54Z</time>
      </trkpt>
      <trkpt lat="45.36609" lon="5.67812">
        <ele>447.15</ele>
        <time>2018-06-01T11:23:55Z</time>
      </trkpt>
      <trkpt lat="45.36605" lon="5.67812">
        <ele>447.15</ele>
        <time>2018-06-01T11:23:56Z</time>
      </trkpt>
      <trkpt lat="45.36602" lon="5.67811">
        <ele>447.15</ele>
        <time>2018-06-01T11:23:57Z</time>
      </trkpt>
      <trkpt lat="45.36598" lon="5.6781">
        <ele>447.63</ele>
        <time>2018-06-01T11:23:58Z</time>
      </trkpt>
      <trkpt lat="45.36595" lon="5.6781">
        <ele>447.63</ele>
        <time>2018-06-01T11:23:59Z</time>
      </trkpt>
      <trkpt lat="45.36591" lon="5.67808">
        <ele>447.63</ele>
        <time>2018-06-01T11:24:00Z</time>
      </trkpt>
      <trkpt lat="45.36588" lon="5.67807">
        <ele>447.63</ele>
        <time>2018-06-01T11:24:01Z</time>
      </trkpt>
      <trkpt lat="45.36584" lon="5.67805">
        <ele>448.11</ele>
        <time>2018-06-01T11:24:02Z</time>
      </trkpt>
      <trkpt lat="45.36512" lon="5.67766">
        <ele>450.03</ele>
        <time>2018-06-01T11:24:23Z</time>
      </trkpt>
      <trkpt lat="45.36478" lon="5.67713">
        <ele>451</ele>
        <time>2018-06-01T11:24:38Z</time>
      </trkpt>
      <trkpt lat="45.3644" lon="5.67689">
        <ele>452.44</ele>
        <time>2018-06-01T11:24:50Z</time>
      </trkpt>
      <trkpt lat="45.36381" lon="5.67639">
        <ele>454.84</ele>
        <time>2018-06-01T11:25:10Z</time>
      </trkpt>
      <trkpt lat="45.36355" lon="5.67608">
        <ele>457.72</ele>
        <time>2018-06-01T11:25:23Z</time>
      </trkpt>
      <trkpt lat="45.36318" lon="5.67567">
        <ele>460.61</ele>
        <time>2018-06-01T11:25:41Z</time>
      </trkpt>
      <trkpt lat="45.36291" lon="5.6754">
        <ele>463.97</ele>
        <time>2018-06-01T11:25:54Z</time>
      </trkpt>
      <trkpt lat="45.36268" lon="5.67508">
        <ele>466.86</ele>
        <time>2018-06-01T11:26:08Z</time>
      </trkpt>
      <trkpt lat="45.36226" lon="5.67488">
        <ele>469.74</ele>
        <time>2018-06-01T11:26:26Z</time>
      </trkpt>
      <trkpt lat="45.36192" lon="5.67473">
        <ele>473.11</ele>
        <time>2018-06-01T11:26:41Z</time>
      </trkpt>
      <trkpt lat="45.36158" lon="5.67433">
        <ele>476.47</ele>
        <time>2018-06-01T11:27:00Z</time>
      </trkpt>
      <trkpt lat="45.36129" lon="5.67392">
        <ele>479.35</ele>
        <time>2018-06-01T11:27:16Z</time>
      </trkpt>
      <trkpt lat="45.36099" lon="5.67363">
        <ele>482.24</ele>
        <time>2018-06-01T11:27:31Z</time>
      </trkpt>
      <trkpt lat="45.3607" lon="5.67328">
        <ele>485.6</ele>
        <time>2018-06-01T11:27:47Z</time>
      </trkpt>
      <trkpt lat="45.3606" lon="5.67266">
        <ele>488.01</ele>
        <time>2018-06-01T11:28:05Z</time>
      </trkpt>
      <trkpt lat="45.36054" lon="5.67256">
        <ele>488.97</ele>
        <time>2018-06-01T11:28:09Z</time>
      </trkpt>
      <trkpt lat="45.36052" lon="5.67256">
        <ele>488.97</ele>
        <time>2018-06-01T11:28:10Z</time>
      </trkpt>
      <trkpt lat="45.36051" lon="5.67257">
        <ele>488.97</ele>
        <time>2018-06-01T11:28:11Z</time>
      </trkpt>
      <trkpt lat="45.3605" lon="5.67258">
        <ele>488.49</ele>
        <time>2018-06-01T11:28:12Z</time>
      </trkpt>
      <trkpt lat="45.36046" lon="5.67265">
        <ele>488.97</ele>
        <time>2018-06-01T11:28:29Z</time>
      </trkpt>
      <trkpt lat="45.36048" lon="5.67262">
        <ele>488.97</ele>
        <time>2018-06-01T11:28:53Z</time>
      </trkpt>
      <trkpt lat="45.36051" lon="5.67263">
        <ele>488.97</ele>
        <time>2018-06-01T11:29:07Z</time>
      </trkpt>
      <trkpt lat="45.36052" lon="5.67262">
        <ele>488.97</ele>
        <time>2018-06-01T11:29:08Z</time>
      </trkpt>
      <trkpt lat="45.36051" lon="5.67261">
        <ele>488.97</ele>
        <time>2018-06-01T11:29:09Z</time>
      </trkpt>
      <trkpt lat="45.36051" lon="5.6726">
        <ele>488.97</ele>
        <time>2018-06-01T11:29:10Z</time>
      </trkpt>
      <trkpt lat="45.3605" lon="5.67258">
        <ele>488.97</ele>
        <time>2018-06-01T11:29:26Z</time>
      </trkpt>
      <trkpt lat="45.3605" lon="5.67267">
        <ele>488.97</ele>
        <time>2018-06-01T11:29:40Z</time>
      </trkpt>
      <trkpt lat="45.36048" lon="5.6727">
        <ele>488.97</ele>
        <time>2018-06-01T11:29:48Z</time>
      </trkpt>
      <trkpt lat="45.36047" lon="5.67271">
        <ele>488.97</ele>
        <time>2018-06-01T11:29:49Z</time>
      </trkpt>
      <trkpt lat="45.36046" lon="5.67273">
        <ele>488.97</ele>
        <time>2018-06-01T11:29:50Z</time>
      </trkpt>
      <trkpt lat="45.36044" lon="5.67274">
        <ele>487.53</ele>
        <time>2018-06-01T11:29:51Z</time>
      </trkpt>
      <trkpt lat="45.36043" lon="5.67275">
        <ele>487.53</ele>
        <time>2018-06-01T11:29:52Z</time>
      </trkpt>
      <trkpt lat="45.36018" lon="5.67304">
        <ele>486.08</ele>
        <time>2018-06-01T11:30:06Z</time>
      </trkpt>
      <trkpt lat="45.35989" lon="5.6732">
        <ele>485.6</ele>
        <time>2018-06-01T11:30:11Z</time>
      </trkpt>
      <trkpt lat="45.35947" lon="5.67308">
        <ele>483.68</ele>
        <time>2018-06-01T11:30:19Z</time>
      </trkpt>
      <trkpt lat="45.35909" lon="5.67283">
        <ele>483.68</ele>
        <time>2018-06-01T11:30:31Z</time>
      </trkpt>
      <trkpt lat="45.35907" lon="5.67281">
        <ele>483.68</ele>
        <time>2018-06-01T11:30:33Z</time>
      </trkpt>
      <trkpt lat="45.35889" lon="5.67274">
        <ele>483.2</ele>
        <time>2018-06-01T11:30:40Z</time>
      </trkpt>
      <trkpt lat="45.35839" lon="5.67248">
        <ele>480.8</ele>
        <time>2018-06-01T11:30:55Z</time>
      </trkpt>
      <trkpt lat="45.3581" lon="5.67249">
        <ele>480.32</ele>
        <time>2018-06-01T11:31:05Z</time>
      </trkpt>
      <trkpt lat="45.35781" lon="5.67245">
        <ele>479.84</ele>
        <time>2018-06-01T11:31:17Z</time>
      </trkpt>
      <trkpt lat="45.35765" lon="5.67242">
        <ele>478.87</ele>
        <time>2018-06-01T11:31:24Z</time>
      </trkpt>
      <trkpt lat="45.35726" lon="5.6727">
        <ele>477.91</ele>
        <time>2018-06-01T11:31:39Z</time>
      </trkpt>
      <trkpt lat="45.35703" lon="5.67342">
        <ele>475.99</ele>
        <time>2018-06-01T11:31:55Z</time>
      </trkpt>
      <trkpt lat="45.35699" lon="5.67384">
        <ele>475.51</ele>
        <time>2018-06-01T11:32:03Z</time>
      </trkpt>
      <trkpt lat="45.35702" lon="5.67401">
        <ele>474.55</ele>
        <time>2018-06-01T11:32:06Z</time>
      </trkpt>
      <trkpt lat="45.35706" lon="5.67419">
        <ele>474.07</ele>
        <time>2018-06-01T11:32:09Z</time>
      </trkpt>
      <trkpt lat="45.35709" lon="5.67425">
        <ele>474.07</ele>
        <time>2018-06-01T11:32:10Z</time>
      </trkpt>
      <trkpt lat="45.35712" lon="5.6743">
        <ele>474.07</ele>
        <time>2018-06-01T11:32:11Z</time>
      </trkpt>
      <trkpt lat="45.35714" lon="5.67434">
        <ele>473.11</ele>
        <time>2018-06-01T11:32:12Z</time>
      </trkpt>
      <trkpt lat="45.35715" lon="5.67439">
        <ele>473.11</ele>
        <time>2018-06-01T11:32:13Z</time>
      </trkpt>
      <trkpt lat="45.35712" lon="5.67446">
        <ele>473.11</ele>
        <time>2018-06-01T11:32:15Z</time>
      </trkpt>
      <trkpt lat="45.35709" lon="5.67446">
        <ele>473.59</ele>
        <time>2018-06-01T11:32:16Z</time>
      </trkpt>
      <trkpt lat="45.35706" lon="5.67444">
        <ele>473.11</ele>
        <time>2018-06-01T11:32:17Z</time>
      </trkpt>
      <trkpt lat="45.35703" lon="5.6744">
        <ele>473.11</ele>
        <time>2018-06-01T11:32:18Z</time>
      </trkpt>
      <trkpt lat="45.35653" lon="5.67394">
        <ele>476.47</ele>
        <time>2018-06-01T11:32:35Z</time>
      </trkpt>
      <trkpt lat="45.35593" lon="5.67347">
        <ele>478.39</ele>
        <time>2018-06-01T11:32:54Z</time>
      </trkpt>
      <trkpt lat="45.35531" lon="5.67302">
        <ele>481.28</ele>
        <time>2018-06-01T11:33:13Z</time>
      </trkpt>
      <trkpt lat="45.35485" lon="5.67267">
        <ele>483.68</ele>
        <time>2018-06-01T11:33:28Z</time>
      </trkpt>
      <trkpt lat="45.35425" lon="5.67233">
        <ele>486.56</ele>
        <time>2018-06-01T11:33:47Z</time>
      </trkpt>
      <trkpt lat="45.35364" lon="5.67216">
        <ele>488.97</ele>
        <time>2018-06-01T11:34:06Z</time>
      </trkpt>
      <trkpt lat="45.35348" lon="5.67212">
        <ele>489.45</ele>
        <time>2018-06-01T11:34:11Z</time>
      </trkpt>
      <trkpt lat="45.35346" lon="5.67208">
        <ele>489.45</ele>
        <time>2018-06-01T11:34:12Z</time>
      </trkpt>
      <trkpt lat="45.35344" lon="5.67205">
        <ele>489.45</ele>
        <time>2018-06-01T11:34:13Z</time>
      </trkpt>
      <trkpt lat="45.35343" lon="5.67202">
        <ele>489.93</ele>
        <time>2018-06-01T11:34:14Z</time>
      </trkpt>
      <trkpt lat="45.35313" lon="5.67141">
        <ele>491.85</ele>
        <time>2018-06-01T11:34:33Z</time>
      </trkpt>
      <trkpt lat="45.35266" lon="5.67072">
        <ele>494.74</ele>
        <time>2018-06-01T11:34:54Z</time>
      </trkpt>
      <trkpt lat="45.35229" lon="5.67009">
        <ele>497.14</ele>
        <time>2018-06-01T11:35:12Z</time>
      </trkpt>
      <trkpt lat="45.35197" lon="5.66956">
        <ele>500.02</ele>
        <time>2018-06-01T11:35:30Z</time>
      </trkpt>
      <trkpt lat="45.3519" lon="5.66952">
        <ele>500.5</ele>
        <time>2018-06-01T11:35:34Z</time>
      </trkpt>
      <trkpt lat="45.3516" lon="5.66912">
        <ele>502.91</ele>
        <time>2018-06-01T11:35:55Z</time>
      </trkpt>
      <trkpt lat="45.35141" lon="5.66874">
        <ele>504.83</ele>
        <time>2018-06-01T11:36:13Z</time>
      </trkpt>
      <trkpt lat="45.35123" lon="5.66847">
        <ele>508.19</ele>
        <time>2018-06-01T11:36:28Z</time>
      </trkpt>
      <trkpt lat="45.35105" lon="5.66833">
        <ele>511.56</ele>
        <time>2018-06-01T11:36:41Z</time>
      </trkpt>
      <trkpt lat="45.35103" lon="5.66832">
        <ele>511.56</ele>
        <time>2018-06-01T11:36:43Z</time>
      </trkpt>
      <trkpt lat="45.35095" lon="5.66825">
        <ele>512.52</ele>
        <time>2018-06-01T11:36:51Z</time>
      </trkpt>
      <trkpt lat="45.35089" lon="5.66815">
        <ele>513.96</ele>
        <time>2018-06-01T11:37:00Z</time>
      </trkpt>
      <trkpt lat="45.3508" lon="5.66798">
        <ele>515.88</ele>
        <time>2018-06-01T11:37:13Z</time>
      </trkpt>
      <trkpt lat="45.35075" lon="5.66784">
        <ele>516.85</ele>
        <time>2018-06-01T11:37:22Z</time>
      </trkpt>
      <trkpt lat="45.35065" lon="5.66755">
        <ele>519.25</ele>
        <time>2018-06-01T11:37:39Z</time>
      </trkpt>
      <trkpt lat="45.35063" lon="5.66751">
        <ele>519.73</ele>
        <time>2018-06-01T11:37:42Z</time>
      </trkpt>
      <trkpt lat="45.3506" lon="5.66746">
        <ele>520.69</ele>
        <time>2018-06-01T11:37:46Z</time>
      </trkpt>
      <trkpt lat="45.35056" lon="5.66743">
        <ele>521.17</ele>
        <time>2018-06-01T11:37:51Z</time>
      </trkpt>
      <trkpt lat="45.3504" lon="5.6673">
        <ele>523.58</ele>
        <time>2018-06-01T11:38:07Z</time>
      </trkpt>
      <trkpt lat="45.35025" lon="5.66719">
        <ele>527.42</ele>
        <time>2018-06-01T11:38:24Z</time>
      </trkpt>
      <trkpt lat="45.35018" lon="5.66712">
        <ele>529.34</ele>
        <time>2018-06-01T11:38:32Z</time>
      </trkpt>
      <trkpt lat="45.35006" lon="5.66698">
        <ele>531.75</ele>
        <time>2018-06-01T11:38:46Z</time>
      </trkpt>
      <trkpt lat="45.34995" lon="5.6668">
        <ele>534.63</ele>
        <time>2018-06-01T11:39:02Z</time>
      </trkpt>
      <trkpt lat="45.34981" lon="5.66663">
        <ele>537.51</ele>
        <time>2018-06-01T11:39:19Z</time>
      </trkpt>
      <trkpt lat="45.3497" lon="5.66657">
        <ele>539.44</ele>
        <time>2018-06-01T11:39:32Z</time>
      </trkpt>
      <trkpt lat="45.34954" lon="5.66651">
        <ele>542.32</ele>
        <time>2018-06-01T11:39:49Z</time>
      </trkpt>
      <trkpt lat="45.34953" lon="5.66649">
        <ele>543.28</ele>
        <time>2018-06-01T11:40:02Z</time>
      </trkpt>
      <trkpt lat="45.34945" lon="5.66641">
        <ele>544.72</ele>
        <time>2018-06-01T11:40:17Z</time>
      </trkpt>
      <trkpt lat="45.34934" lon="5.66628">
        <ele>547.13</ele>
        <time>2018-06-01T11:40:35Z</time>
      </trkpt>
      <trkpt lat="45.34925" lon="5.66615">
        <ele>548.57</ele>
        <time>2018-06-01T11:40:52Z</time>
      </trkpt>
      <trkpt lat="45.34921" lon="5.66609">
        <ele>549.05</ele>
        <time>2018-06-01T11:40:58Z</time>
      </trkpt>
      <trkpt lat="45.34911" lon="5.66591">
        <ele>551.45</ele>
        <time>2018-06-01T11:41:17Z</time>
      </trkpt>
      <trkpt lat="45.34903" lon="5.66579">
        <ele>553.38</ele>
        <time>2018-06-01T11:41:35Z</time>
      </trkpt>
      <trkpt lat="45.34898" lon="5.66567">
        <ele>554.34</ele>
        <time>2018-06-01T11:41:44Z</time>
      </trkpt>
      <trkpt lat="45.34894" lon="5.66558">
        <ele>555.3</ele>
        <time>2018-06-01T11:41:50Z</time>
      </trkpt>
      <trkpt lat="45.3488" lon="5.66526">
        <ele>558.66</ele>
        <time>2018-06-01T11:42:09Z</time>
      </trkpt>
      <trkpt lat="45.34872" lon="5.66505">
        <ele>561.55</ele>
        <time>2018-06-01T11:42:21Z</time>
      </trkpt>
      <trkpt lat="45.34863" lon="5.6649">
        <ele>563.95</ele>
        <time>2018-06-01T11:42:32Z</time>
      </trkpt>
      <trkpt lat="45.34859" lon="5.66477">
        <ele>566.35</ele>
        <time>2018-06-01T11:42:41Z</time>
      </trkpt>
      <trkpt lat="45.34855" lon="5.66468">
        <ele>567.8</ele>
        <time>2018-06-01T11:42:47Z</time>
      </trkpt>
      <trkpt lat="45.34855" lon="5.66464">
        <ele>568.76</ele>
        <time>2018-06-01T11:42:49Z</time>
      </trkpt>
      <trkpt lat="45.34862" lon="5.66449">
        <ele>571.16</ele>
        <time>2018-06-01T11:42:59Z</time>
      </trkpt>
      <trkpt lat="45.34866" lon="5.66447">
        <ele>572.12</ele>
        <time>2018-06-01T11:43:05Z</time>
      </trkpt>
      <trkpt lat="45.34877" lon="5.66433">
        <ele>574.53</ele>
        <time>2018-06-01T11:43:15Z</time>
      </trkpt>
      <trkpt lat="45.34877" lon="5.66423">
        <ele>575.49</ele>
        <time>2018-06-01T11:43:20Z</time>
      </trkpt>
      <trkpt lat="45.34871" lon="5.66415">
        <ele>576.93</ele>
        <time>2018-06-01T11:43:30Z</time>
      </trkpt>
      <trkpt lat="45.34864" lon="5.66407">
        <ele>579.33</ele>
        <time>2018-06-01T11:43:47Z</time>
      </trkpt>
      <trkpt lat="45.34855" lon="5.66402">
        <ele>580.77</ele>
        <time>2018-06-01T11:44:02Z</time>
      </trkpt>
      <trkpt lat="45.34852" lon="5.66396">
        <ele>582.7</ele>
        <time>2018-06-01T11:44:19Z</time>
      </trkpt>
      <trkpt lat="45.34848" lon="5.66393">
        <ele>584.62</ele>
        <time>2018-06-01T11:44:33Z</time>
      </trkpt>
      <trkpt lat="45.34845" lon="5.66389">
        <ele>586.54</ele>
        <time>2018-06-01T11:44:47Z</time>
      </trkpt>
      <trkpt lat="45.34843" lon="5.66382">
        <ele>588.95</ele>
        <time>2018-06-01T11:45:03Z</time>
      </trkpt>
      <trkpt lat="45.34837" lon="5.66375">
        <ele>590.87</ele>
        <time>2018-06-01T11:45:17Z</time>
      </trkpt>
      <trkpt lat="45.3483" lon="5.66365">
        <ele>593.27</ele>
        <time>2018-06-01T11:45:32Z</time>
      </trkpt>
      <trkpt lat="45.34822" lon="5.66355">
        <ele>594.23</ele>
        <time>2018-06-01T11:45:46Z</time>
      </trkpt>
      <trkpt lat="45.34817" lon="5.66345">
        <ele>595.67</ele>
        <time>2018-06-01T11:46:02Z</time>
      </trkpt>
      <trkpt lat="45.34811" lon="5.66343">
        <ele>596.64</ele>
        <time>2018-06-01T11:46:12Z</time>
      </trkpt>
      <trkpt lat="45.348" lon="5.66336">
        <ele>599.04</ele>
        <time>2018-06-01T11:46:24Z</time>
      </trkpt>
      <trkpt lat="45.34789" lon="5.66328">
        <ele>600.48</ele>
        <time>2018-06-01T11:46:36Z</time>
      </trkpt>
      <trkpt lat="45.3478" lon="5.66322">
        <ele>602.4</ele>
        <time>2018-06-01T11:46:47Z</time>
      </trkpt>
      <trkpt lat="45.34767" lon="5.66314">
        <ele>603.85</ele>
        <time>2018-06-01T11:47:00Z</time>
      </trkpt>
      <trkpt lat="45.34749" lon="5.66306">
        <ele>606.25</ele>
        <time>2018-06-01T11:47:15Z</time>
      </trkpt>
      <trkpt lat="45.3473" lon="5.663">
        <ele>606.73</ele>
        <time>2018-06-01T11:47:28Z</time>
      </trkpt>
      <trkpt lat="45.34713" lon="5.66289">
        <ele>608.17</ele>
        <time>2018-06-01T11:47:42Z</time>
      </trkpt>
      <trkpt lat="45.34695" lon="5.66279">
        <ele>610.09</ele>
        <time>2018-06-01T11:47:57Z</time>
      </trkpt>
      <trkpt lat="45.3469" lon="5.66273">
        <ele>611.54</ele>
        <time>2018-06-01T11:48:04Z</time>
      </trkpt>
      <trkpt lat="45.34694" lon="5.6627">
        <ele>611.54</ele>
        <time>2018-06-01T11:48:08Z</time>
      </trkpt>
      <trkpt lat="45.34714" lon="5.66262">
        <ele>613.46</ele>
        <time>2018-06-01T11:48:26Z</time>
      </trkpt>
      <trkpt lat="45.34739" lon="5.66262">
        <ele>615.86</ele>
        <time>2018-06-01T11:48:44Z</time>
      </trkpt>
      <trkpt lat="45.34759" lon="5.66259">
        <ele>617.3</ele>
        <time>2018-06-01T11:48:58Z</time>
      </trkpt>
      <trkpt lat="45.34783" lon="5.66258">
        <ele>619.23</ele>
        <time>2018-06-01T11:49:14Z</time>
      </trkpt>
      <trkpt lat="45.34814" lon="5.6626">
        <ele>621.63</ele>
        <time>2018-06-01T11:49:29Z</time>
      </trkpt>
      <trkpt lat="45.34845" lon="5.66263">
        <ele>624.03</ele>
        <time>2018-06-01T11:49:43Z</time>
      </trkpt>
      <trkpt lat="45.34872" lon="5.66272">
        <ele>625.96</ele>
        <time>2018-06-01T11:49:56Z</time>
      </trkpt>
      <trkpt lat="45.34906" lon="5.6629">
        <ele>628.36</ele>
        <time>2018-06-01T11:50:11Z</time>
      </trkpt>
      <trkpt lat="45.34941" lon="5.66304">
        <ele>631.24</ele>
        <time>2018-06-01T11:50:27Z</time>
      </trkpt>
      <trkpt lat="45.34974" lon="5.66315">
        <ele>634.13</ele>
        <time>2018-06-01T11:50:42Z</time>
      </trkpt>
      <trkpt lat="45.35009" lon="5.66313">
        <ele>637.01</ele>
        <time>2018-06-01T11:50:58Z</time>
      </trkpt>
      <trkpt lat="45.35037" lon="5.66293">
        <ele>639.41</ele>
        <time>2018-06-01T11:51:15Z</time>
      </trkpt>
      <trkpt lat="45.35073" lon="5.6629">
        <ele>639.41</ele>
        <time>2018-06-01T11:51:30Z</time>
      </trkpt>
      <trkpt lat="45.35096" lon="5.6628">
        <ele>640.86</ele>
        <time>2018-06-01T11:51:41Z</time>
      </trkpt>
      <trkpt lat="45.35102" lon="5.66274">
        <ele>641.34</ele>
        <time>2018-06-01T11:51:45Z</time>
      </trkpt>
      <trkpt lat="45.35103" lon="5.66272">
        <ele>641.34</ele>
        <time>2018-06-01T11:51:46Z</time>
      </trkpt>
      <trkpt lat="45.35103" lon="5.66269">
        <ele>641.34</ele>
        <time>2018-06-01T11:51:47Z</time>
      </trkpt>
      <trkpt lat="45.35104" lon="5.6626">
        <ele>641.82</ele>
        <time>2018-06-01T11:51:50Z</time>
      </trkpt>
      <trkpt lat="45.35104" lon="5.66257">
        <ele>641.82</ele>
        <time>2018-06-01T11:51:51Z</time>
      </trkpt>
      <trkpt lat="45.35097" lon="5.66224">
        <ele>642.78</ele>
        <time>2018-06-01T11:52:04Z</time>
      </trkpt>
      <trkpt lat="45.35096" lon="5.66224">
        <ele>642.3</ele>
        <time>2018-06-01T11:52:05Z</time>
      </trkpt>
      <trkpt lat="45.35094" lon="5.66225">
        <ele>642.3</ele>
        <time>2018-06-01T11:52:06Z</time>
      </trkpt>
      <trkpt lat="45.35092" lon="5.66226">
        <ele>642.3</ele>
        <time>2018-06-01T11:52:07Z</time>
      </trkpt>
      <trkpt lat="45.3509" lon="5.66228">
        <ele>642.3</ele>
        <time>2018-06-01T11:52:08Z</time>
      </trkpt>
      <trkpt lat="45.35088" lon="5.6623">
        <ele>642.3</ele>
        <time>2018-06-01T11:52:09Z</time>
      </trkpt>
      <trkpt lat="45.35057" lon="5.66262">
        <ele>642.3</ele>
        <time>2018-06-01T11:52:25Z</time>
      </trkpt>
      <trkpt lat="45.3503" lon="5.66253">
        <ele>645.18</ele>
        <time>2018-06-01T11:52:38Z</time>
      </trkpt>
      <trkpt lat="45.34994" lon="5.66239">
        <ele>646.62</ele>
        <time>2018-06-01T11:52:55Z</time>
      </trkpt>
      <trkpt lat="45.34992" lon="5.66237">
        <ele>646.62</ele>
        <time>2018-06-01T11:52:56Z</time>
      </trkpt>
      <trkpt lat="45.34968" lon="5.66218">
        <ele>646.62</ele>
        <time>2018-06-01T11:53:08Z</time>
      </trkpt>
      <trkpt lat="45.34967" lon="5.66217">
        <ele>646.62</ele>
        <time>2018-06-01T11:53:09Z</time>
      </trkpt>
      <trkpt lat="45.34934" lon="5.66175">
        <ele>646.62</ele>
        <time>2018-06-01T11:53:26Z</time>
      </trkpt>
      <trkpt lat="45.34898" lon="5.66135">
        <ele>647.59</ele>
        <time>2018-06-01T11:53:42Z</time>
      </trkpt>
      <trkpt lat="45.34873" lon="5.66111">
        <ele>649.51</ele>
        <time>2018-06-01T11:53:55Z</time>
      </trkpt>
      <trkpt lat="45.34844" lon="5.66104">
        <ele>651.91</ele>
        <time>2018-06-01T11:54:09Z</time>
      </trkpt>
      <trkpt lat="45.34807" lon="5.661">
        <ele>651.91</ele>
        <time>2018-06-01T11:54:25Z</time>
      </trkpt>
      <trkpt lat="45.34792" lon="5.66094">
        <ele>650.47</ele>
        <time>2018-06-01T11:54:29Z</time>
      </trkpt>
      <trkpt lat="45.34773" lon="5.66085">
        <ele>649.51</ele>
        <time>2018-06-01T11:54:33Z</time>
      </trkpt>
      <trkpt lat="45.34767" lon="5.66084">
        <ele>649.03</ele>
        <time>2018-06-01T11:54:34Z</time>
      </trkpt>
      <trkpt lat="45.34705" lon="5.66055">
        <ele>649.03</ele>
        <time>2018-06-01T11:54:49Z</time>
      </trkpt>
      <trkpt lat="45.34699" lon="5.66051">
        <ele>650.47</ele>
        <time>2018-06-01T11:54:51Z</time>
      </trkpt>
      <trkpt lat="45.34665" lon="5.66035">
        <ele>651.43</ele>
        <time>2018-06-01T11:55:03Z</time>
      </trkpt>
      <trkpt lat="45.34654" lon="5.6603">
        <ele>651.91</ele>
        <time>2018-06-01T11:55:07Z</time>
      </trkpt>
      <trkpt lat="45.3463" lon="5.66007">
        <ele>652.87</ele>
        <time>2018-06-01T11:55:22Z</time>
      </trkpt>
      <trkpt lat="45.34605" lon="5.65988">
        <ele>655.28</ele>
        <time>2018-06-01T11:55:39Z</time>
      </trkpt>
      <trkpt lat="45.34579" lon="5.65978">
        <ele>657.2</ele>
        <time>2018-06-01T11:55:52Z</time>
      </trkpt>
      <trkpt lat="45.34562" lon="5.65972">
        <ele>659.6</ele>
        <time>2018-06-01T11:56:05Z</time>
      </trkpt>
      <trkpt lat="45.34555" lon="5.6597">
        <ele>659.6</ele>
        <time>2018-06-01T11:56:11Z</time>
      </trkpt>
      <trkpt lat="45.34534" lon="5.65965">
        <ele>660.56</ele>
        <time>2018-06-01T11:56:25Z</time>
      </trkpt>
      <trkpt lat="45.34513" lon="5.65969">
        <ele>661.04</ele>
        <time>2018-06-01T11:56:40Z</time>
      </trkpt>
      <trkpt lat="45.34498" lon="5.65973">
        <ele>661.04</ele>
        <time>2018-06-01T11:56:47Z</time>
      </trkpt>
      <trkpt lat="45.34462" lon="5.65981">
        <ele>661.04</ele>
        <time>2018-06-01T11:57:01Z</time>
      </trkpt>
      <trkpt lat="45.34435" lon="5.65995">
        <ele>661.04</ele>
        <time>2018-06-01T11:57:13Z</time>
      </trkpt>
      <trkpt lat="45.34402" lon="5.66026">
        <ele>661.04</ele>
        <time>2018-06-01T11:57:26Z</time>
      </trkpt>
      <trkpt lat="45.34396" lon="5.66032">
        <ele>661.04</ele>
        <time>2018-06-01T11:57:29Z</time>
      </trkpt>
      <trkpt lat="45.34394" lon="5.66037">
        <ele>660.08</ele>
        <time>2018-06-01T11:57:31Z</time>
      </trkpt>
      <trkpt lat="45.34365" lon="5.66068">
        <ele>658.64</ele>
        <time>2018-06-01T11:57:43Z</time>
      </trkpt>
      <trkpt lat="45.3436" lon="5.66069">
        <ele>658.16</ele>
        <time>2018-06-01T11:57:44Z</time>
      </trkpt>
      <trkpt lat="45.34355" lon="5.6607">
        <ele>658.16</ele>
        <time>2018-06-01T11:57:45Z</time>
      </trkpt>
      <trkpt lat="45.34334" lon="5.66067">
        <ele>658.16</ele>
        <time>2018-06-01T11:57:48Z</time>
      </trkpt>
      <trkpt lat="45.34276" lon="5.66063">
        <ele>661.52</ele>
        <time>2018-06-01T11:58:00Z</time>
      </trkpt>
      <trkpt lat="45.34249" lon="5.66046">
        <ele>662.49</ele>
        <time>2018-06-01T11:58:11Z</time>
      </trkpt>
      <trkpt lat="45.34231" lon="5.66033">
        <ele>663.45</ele>
        <time>2018-06-01T11:58:19Z</time>
      </trkpt>
      <trkpt lat="45.34221" lon="5.66025">
        <ele>663.93</ele>
        <time>2018-06-01T11:58:23Z</time>
      </trkpt>
      <trkpt lat="45.34207" lon="5.66017">
        <ele>664.89</ele>
        <time>2018-06-01T11:58:32Z</time>
      </trkpt>
      <trkpt lat="45.34182" lon="5.66002">
        <ele>665.85</ele>
        <time>2018-06-01T11:58:44Z</time>
      </trkpt>
      <trkpt lat="45.34168" lon="5.65991">
        <ele>666.33</ele>
        <time>2018-06-01T11:58:57Z</time>
      </trkpt>
      <trkpt lat="45.34165" lon="5.65986">
        <ele>666.33</ele>
        <time>2018-06-01T11:58:59Z</time>
      </trkpt>
      <trkpt lat="45.34157" lon="5.65974">
        <ele>666.33</ele>
        <time>2018-06-01T11:59:05Z</time>
      </trkpt>
      <trkpt lat="45.34143" lon="5.65965">
        <ele>666.33</ele>
        <time>2018-06-01T11:59:09Z</time>
      </trkpt>
      <trkpt lat="45.34097" lon="5.65959">
        <ele>666.81</ele>
        <time>2018-06-01T11:59:23Z</time>
      </trkpt>
      <trkpt lat="45.34083" lon="5.65962">
        <ele>666.81</ele>
        <time>2018-06-01T11:59:30Z</time>
      </trkpt>
      <trkpt lat="45.34062" lon="5.65963">
        <ele>662.49</ele>
        <time>2018-06-01T11:59:38Z</time>
      </trkpt>
      <trkpt lat="45.34057" lon="5.65962">
        <ele>661.52</ele>
        <time>2018-06-01T11:59:39Z</time>
      </trkpt>
      <trkpt lat="45.34036" lon="5.65948">
        <ele>660.56</ele>
        <time>2018-06-01T11:59:43Z</time>
      </trkpt>
      <trkpt lat="45.33996" lon="5.65931">
        <ele>662.97</ele>
        <time>2018-06-01T11:59:53Z</time>
      </trkpt>
      <trkpt lat="45.33966" lon="5.6592">
        <ele>665.37</ele>
        <time>2018-06-01T12:00:05Z</time>
      </trkpt>
      <trkpt lat="45.3396" lon="5.65915">
        <ele>665.37</ele>
        <time>2018-06-01T12:00:09Z</time>
      </trkpt>
      <trkpt lat="45.33956" lon="5.65912">
        <ele>663.45</ele>
        <time>2018-06-01T12:00:11Z</time>
      </trkpt>
      <trkpt lat="45.33949" lon="5.65906">
        <ele>662.01</ele>
        <time>2018-06-01T12:00:13Z</time>
      </trkpt>
      <trkpt lat="45.3394" lon="5.65899">
        <ele>660.56</ele>
        <time>2018-06-01T12:00:15Z</time>
      </trkpt>
      <trkpt lat="45.3391" lon="5.65865">
        <ele>659.6</ele>
        <time>2018-06-01T12:00:21Z</time>
      </trkpt>
      <trkpt lat="45.33874" lon="5.65848">
        <ele>659.6</ele>
        <time>2018-06-01T12:00:30Z</time>
      </trkpt>
      <trkpt lat="45.33862" lon="5.65841">
        <ele>659.6</ele>
        <time>2018-06-01T12:00:47Z</time>
      </trkpt>
      <trkpt lat="45.33855" lon="5.65822">
        <ele>657.2</ele>
        <time>2018-06-01T12:00:52Z</time>
      </trkpt>
      <trkpt lat="45.33829" lon="5.65796">
        <ele>650.95</ele>
        <time>2018-06-01T12:00:56Z</time>
      </trkpt>
      <trkpt lat="45.33811" lon="5.65787">
        <ele>646.14</ele>
        <time>2018-06-01T12:00:59Z</time>
      </trkpt>
      <trkpt lat="45.33787" lon="5.65776">
        <ele>642.78</ele>
        <time>2018-06-01T12:01:02Z</time>
      </trkpt>
      <trkpt lat="45.33779" lon="5.65774">
        <ele>641.82</ele>
        <time>2018-06-01T12:01:03Z</time>
      </trkpt>
      <trkpt lat="45.33762" lon="5.65772">
        <ele>641.34</ele>
        <time>2018-06-01T12:01:05Z</time>
      </trkpt>
      <trkpt lat="45.33753" lon="5.65772">
        <ele>639.41</ele>
        <time>2018-06-01T12:01:06Z</time>
      </trkpt>
      <trkpt lat="45.33744" lon="5.65771">
        <ele>638.93</ele>
        <time>2018-06-01T12:01:07Z</time>
      </trkpt>
      <trkpt lat="45.33736" lon="5.65769">
        <ele>637.49</ele>
        <time>2018-06-01T12:01:08Z</time>
      </trkpt>
      <trkpt lat="45.33727" lon="5.65765">
        <ele>636.53</ele>
        <time>2018-06-01T12:01:09Z</time>
      </trkpt>
      <trkpt lat="45.33719" lon="5.65761">
        <ele>636.53</ele>
        <time>2018-06-01T12:01:10Z</time>
      </trkpt>
      <trkpt lat="45.33655" lon="5.65733">
        <ele>637.97</ele>
        <time>2018-06-01T12:01:20Z</time>
      </trkpt>
      <trkpt lat="45.33642" lon="5.65727">
        <ele>638.93</ele>
        <time>2018-06-01T12:01:24Z</time>
      </trkpt>
      <trkpt lat="45.33641" lon="5.65727">
        <ele>638.93</ele>
        <time>2018-06-01T12:01:25Z</time>
      </trkpt>
      <trkpt lat="45.33639" lon="5.65728">
        <ele>638.93</ele>
        <time>2018-06-01T12:01:26Z</time>
      </trkpt>
      <trkpt lat="45.33636" lon="5.65729">
        <ele>638.93</ele>
        <time>2018-06-01T12:01:27Z</time>
      </trkpt>
      <trkpt lat="45.33633" lon="5.65729">
        <ele>638.93</ele>
        <time>2018-06-01T12:01:28Z</time>
      </trkpt>
      <trkpt lat="45.33619" lon="5.6573">
        <ele>637.97</ele>
        <time>2018-06-01T12:01:32Z</time>
      </trkpt>
      <trkpt lat="45.33612" lon="5.65729">
        <ele>637.49</ele>
        <time>2018-06-01T12:01:34Z</time>
      </trkpt>
      <trkpt lat="45.33607" lon="5.65729">
        <ele>637.01</ele>
        <time>2018-06-01T12:01:35Z</time>
      </trkpt>
      <trkpt lat="45.33556" lon="5.65727">
        <ele>633.65</ele>
        <time>2018-06-01T12:01:44Z</time>
      </trkpt>
      <trkpt lat="45.33549" lon="5.65725">
        <ele>633.65</ele>
        <time>2018-06-01T12:01:45Z</time>
      </trkpt>
      <trkpt lat="45.33526" lon="5.65722">
        <ele>631.24</ele>
        <time>2018-06-01T12:01:48Z</time>
      </trkpt>
      <trkpt lat="45.33518" lon="5.6572">
        <ele>631.24</ele>
        <time>2018-06-01T12:01:49Z</time>
      </trkpt>
      <trkpt lat="45.33475" lon="5.657">
        <ele>629.8</ele>
        <time>2018-06-01T12:01:55Z</time>
      </trkpt>
      <trkpt lat="45.33453" lon="5.65692">
        <ele>627.88</ele>
        <time>2018-06-01T12:01:58Z</time>
      </trkpt>
      <trkpt lat="45.33411" lon="5.6568">
        <ele>625.47</ele>
        <time>2018-06-01T12:02:03Z</time>
      </trkpt>
      <trkpt lat="45.33347" lon="5.6567">
        <ele>622.11</ele>
        <time>2018-06-01T12:02:10Z</time>
      </trkpt>
      <trkpt lat="45.33337" lon="5.65667">
        <ele>622.11</ele>
        <time>2018-06-01T12:02:11Z</time>
      </trkpt>
      <trkpt lat="45.33293" lon="5.65647">
        <ele>620.19</ele>
        <time>2018-06-01T12:02:16Z</time>
      </trkpt>
      <trkpt lat="45.33241" lon="5.65643">
        <ele>618.26</ele>
        <time>2018-06-01T12:02:22Z</time>
      </trkpt>
      <trkpt lat="45.33233" lon="5.65647">
        <ele>617.3</ele>
        <time>2018-06-01T12:02:23Z</time>
      </trkpt>
      <trkpt lat="45.33225" lon="5.65654">
        <ele>615.38</ele>
        <time>2018-06-01T12:02:24Z</time>
      </trkpt>
      <trkpt lat="45.33217" lon="5.65663">
        <ele>613.46</ele>
        <time>2018-06-01T12:02:25Z</time>
      </trkpt>
      <trkpt lat="45.3321" lon="5.65673">
        <ele>612.02</ele>
        <time>2018-06-01T12:02:26Z</time>
      </trkpt>
      <trkpt lat="45.33202" lon="5.65685">
        <ele>610.57</ele>
        <time>2018-06-01T12:02:27Z</time>
      </trkpt>
      <trkpt lat="45.33187" lon="5.65709">
        <ele>607.21</ele>
        <time>2018-06-01T12:02:29Z</time>
      </trkpt>
      <trkpt lat="45.3318" lon="5.65722">
        <ele>605.77</ele>
        <time>2018-06-01T12:02:30Z</time>
      </trkpt>
      <trkpt lat="45.33171" lon="5.65734">
        <ele>604.33</ele>
        <time>2018-06-01T12:02:31Z</time>
      </trkpt>
      <trkpt lat="45.33161" lon="5.65745">
        <ele>602.88</ele>
        <time>2018-06-01T12:02:32Z</time>
      </trkpt>
      <trkpt lat="45.3315" lon="5.65754">
        <ele>601.44</ele>
        <time>2018-06-01T12:02:33Z</time>
      </trkpt>
      <trkpt lat="45.33139" lon="5.65761">
        <ele>600.48</ele>
        <time>2018-06-01T12:02:34Z</time>
      </trkpt>
      <trkpt lat="45.33126" lon="5.65767">
        <ele>599.04</ele>
        <time>2018-06-01T12:02:35Z</time>
      </trkpt>
      <trkpt lat="45.33103" lon="5.65776">
        <ele>596.15</ele>
        <time>2018-06-01T12:02:37Z</time>
      </trkpt>
      <trkpt lat="45.33089" lon="5.65778">
        <ele>594.71</ele>
        <time>2018-06-01T12:02:38Z</time>
      </trkpt>
      <trkpt lat="45.33077" lon="5.65776">
        <ele>594.71</ele>
        <time>2018-06-01T12:02:39Z</time>
      </trkpt>
      <trkpt lat="45.33067" lon="5.65772">
        <ele>594.71</ele>
        <time>2018-06-01T12:02:40Z</time>
      </trkpt>
      <trkpt lat="45.33058" lon="5.65768">
        <ele>594.71</ele>
        <time>2018-06-01T12:02:41Z</time>
      </trkpt>
      <trkpt lat="45.33048" lon="5.65767">
        <ele>594.71</ele>
        <time>2018-06-01T12:02:42Z</time>
      </trkpt>
      <trkpt lat="45.33038" lon="5.65767">
        <ele>594.23</ele>
        <time>2018-06-01T12:02:43Z</time>
      </trkpt>
      <trkpt lat="45.33015" lon="5.6577">
        <ele>597.12</ele>
        <time>2018-06-01T12:02:48Z</time>
      </trkpt>
      <trkpt lat="45.33013" lon="5.65773">
        <ele>597.6</ele>
        <time>2018-06-01T12:02:49Z</time>
      </trkpt>
      <trkpt lat="45.33006" lon="5.65787">
        <ele>597.6</ele>
        <time>2018-06-01T12:02:53Z</time>
      </trkpt>
      <trkpt lat="45.33006" lon="5.65791">
        <ele>597.6</ele>
        <time>2018-06-01T12:02:54Z</time>
      </trkpt>
      <trkpt lat="45.33007" lon="5.65795">
        <ele>597.6</ele>
        <time>2018-06-01T12:02:55Z</time>
      </trkpt>
      <trkpt lat="45.33009" lon="5.65799">
        <ele>597.6</ele>
        <time>2018-06-01T12:02:56Z</time>
      </trkpt>
      <trkpt lat="45.3301" lon="5.65802">
        <ele>597.6</ele>
        <time>2018-06-01T12:02:57Z</time>
      </trkpt>
      <trkpt lat="45.33011" lon="5.65807">
        <ele>597.6</ele>
        <time>2018-06-01T12:02:58Z</time>
      </trkpt>
      <trkpt lat="45.33011" lon="5.6581">
        <ele>597.6</ele>
        <time>2018-06-01T12:02:59Z</time>
      </trkpt>
      <trkpt lat="45.3301" lon="5.65813">
        <ele>597.6</ele>
        <time>2018-06-01T12:03:00Z</time>
      </trkpt>
      <trkpt lat="45.33007" lon="5.65816">
        <ele>597.6</ele>
        <time>2018-06-01T12:03:01Z</time>
      </trkpt>
      <trkpt lat="45.33003" lon="5.65817">
        <ele>597.6</ele>
        <time>2018-06-01T12:03:02Z</time>
      </trkpt>
      <trkpt lat="45.32984" lon="5.65824">
        <ele>597.6</ele>
        <time>2018-06-01T12:03:07Z</time>
      </trkpt>
      <trkpt lat="45.3298" lon="5.65827">
        <ele>597.6</ele>
        <time>2018-06-01T12:03:08Z</time>
      </trkpt>
      <trkpt lat="45.32976" lon="5.65829">
        <ele>597.6</ele>
        <time>2018-06-01T12:03:09Z</time>
      </trkpt>
      <trkpt lat="45.32972" lon="5.65831">
        <ele>597.6</ele>
        <time>2018-06-01T12:03:10Z</time>
      </trkpt>
      <trkpt lat="45.32968" lon="5.65832">
        <ele>597.6</ele>
        <time>2018-06-01T12:03:11Z</time>
      </trkpt>
      <trkpt lat="45.32964" lon="5.65832">
        <ele>597.6</ele>
        <time>2018-06-01T12:03:12Z</time>
      </trkpt>
      <trkpt lat="45.32955" lon="5.65833">
        <ele>597.6</ele>
        <time>2018-06-01T12:03:14Z</time>
      </trkpt>
      <trkpt lat="45.3295" lon="5.65832">
        <ele>597.6</ele>
        <time>2018-06-01T12:03:15Z</time>
      </trkpt>
      <trkpt lat="45.32946" lon="5.65832">
        <ele>597.6</ele>
        <time>2018-06-01T12:03:16Z</time>
      </trkpt>
      <trkpt lat="45.3294" lon="5.65834">
        <ele>597.6</ele>
        <time>2018-06-01T12:03:17Z</time>
      </trkpt>
      <trkpt lat="45.32935" lon="5.65839">
        <ele>597.6</ele>
        <time>2018-06-01T12:03:18Z</time>
      </trkpt>
      <trkpt lat="45.32932" lon="5.65844">
        <ele>597.6</ele>
        <time>2018-06-01T12:03:19Z</time>
      </trkpt>
      <trkpt lat="45.32929" lon="5.6585">
        <ele>597.6</ele>
        <time>2018-06-01T12:03:20Z</time>
      </trkpt>
      <trkpt lat="45.32926" lon="5.65855">
        <ele>597.6</ele>
        <time>2018-06-01T12:03:21Z</time>
      </trkpt>
      <trkpt lat="45.32917" lon="5.65869">
        <ele>596.15</ele>
        <time>2018-06-01T12:03:24Z</time>
      </trkpt>
      <trkpt lat="45.32913" lon="5.65874">
        <ele>596.15</ele>
        <time>2018-06-01T12:03:25Z</time>
      </trkpt>
      <trkpt lat="45.32909" lon="5.65878">
        <ele>596.15</ele>
        <time>2018-06-01T12:03:26Z</time>
      </trkpt>
      <trkpt lat="45.32887" lon="5.65903">
        <ele>596.15</ele>
        <time>2018-06-01T12:03:32Z</time>
      </trkpt>
      <trkpt lat="45.3282" lon="5.65968">
        <ele>595.67</ele>
        <time>2018-06-01T12:03:49Z</time>
      </trkpt>
      <trkpt lat="45.32765" lon="5.66021">
        <ele>595.19</ele>
        <time>2018-06-01T12:04:03Z</time>
      </trkpt>
      <trkpt lat="45.32762" lon="5.66026">
        <ele>595.19</ele>
        <time>2018-06-01T12:04:04Z</time>
      </trkpt>
      <trkpt lat="45.3276" lon="5.66032">
        <ele>595.19</ele>
        <time>2018-06-01T12:04:05Z</time>
      </trkpt>
      <trkpt lat="45.32741" lon="5.66071">
        <ele>596.64</ele>
        <time>2018-06-01T12:04:14Z</time>
      </trkpt>
      <trkpt lat="45.32733" lon="5.66079">
        <ele>596.64</ele>
        <time>2018-06-01T12:04:16Z</time>
      </trkpt>
      <trkpt lat="45.32729" lon="5.66083">
        <ele>595.19</ele>
        <time>2018-06-01T12:04:17Z</time>
      </trkpt>
      <trkpt lat="45.32725" lon="5.66086">
        <ele>595.19</ele>
        <time>2018-06-01T12:04:18Z</time>
      </trkpt>
      <trkpt lat="45.3272" lon="5.6609">
        <ele>594.23</ele>
        <time>2018-06-01T12:04:19Z</time>
      </trkpt>
      <trkpt lat="45.32691" lon="5.6609">
        <ele>593.27</ele>
        <time>2018-06-01T12:04:24Z</time>
      </trkpt>
      <trkpt lat="45.32642" lon="5.66071">
        <ele>590.87</ele>
        <time>2018-06-01T12:04:32Z</time>
      </trkpt>
      <trkpt lat="45.32626" lon="5.66068">
        <ele>588.95</ele>
        <time>2018-06-01T12:04:35Z</time>
      </trkpt>
      <trkpt lat="45.32611" lon="5.6607">
        <ele>589.43</ele>
        <time>2018-06-01T12:04:39Z</time>
      </trkpt>
      <trkpt lat="45.32609" lon="5.66073">
        <ele>589.43</ele>
        <time>2018-06-01T12:04:42Z</time>
      </trkpt>
      <trkpt lat="45.32626" lon="5.66068">
        <ele>589.43</ele>
        <time>2018-06-01T12:04:49Z</time>
      </trkpt>
      <trkpt lat="45.32634" lon="5.66067">
        <ele>589.43</ele>
        <time>2018-06-01T12:04:52Z</time>
      </trkpt>
      <trkpt lat="45.32639" lon="5.66051">
        <ele>588.46</ele>
        <time>2018-06-01T12:04:57Z</time>
      </trkpt>
      <trkpt lat="45.3264" lon="5.66038">
        <ele>587.02</ele>
        <time>2018-06-01T12:04:59Z</time>
      </trkpt>
      <trkpt lat="45.32641" lon="5.66016">
        <ele>585.1</ele>
        <time>2018-06-01T12:05:03Z</time>
      </trkpt>
      <trkpt lat="45.32644" lon="5.66004">
        <ele>583.18</ele>
        <time>2018-06-01T12:05:05Z</time>
      </trkpt>
      <trkpt lat="45.32652" lon="5.65985">
        <ele>579.33</ele>
        <time>2018-06-01T12:05:08Z</time>
      </trkpt>
      <trkpt lat="45.32657" lon="5.65967">
        <ele>577.41</ele>
        <time>2018-06-01T12:05:11Z</time>
      </trkpt>
      <trkpt lat="45.32658" lon="5.65961">
        <ele>575.97</ele>
        <time>2018-06-01T12:05:12Z</time>
      </trkpt>
      <trkpt lat="45.32654" lon="5.65938">
        <ele>572.12</ele>
        <time>2018-06-01T12:05:17Z</time>
      </trkpt>
      <trkpt lat="45.32649" lon="5.65921">
        <ele>568.76</ele>
        <time>2018-06-01T12:05:21Z</time>
      </trkpt>
      <trkpt lat="45.32647" lon="5.65907">
        <ele>567.32</ele>
        <time>2018-06-01T12:05:24Z</time>
      </trkpt>
      <trkpt lat="45.32646" lon="5.65892">
        <ele>563.95</ele>
        <time>2018-06-01T12:05:27Z</time>
      </trkpt>
      <trkpt lat="45.32648" lon="5.65873">
        <ele>562.03</ele>
        <time>2018-06-01T12:05:30Z</time>
      </trkpt>
      <trkpt lat="45.32635" lon="5.65844">
        <ele>558.18</ele>
        <time>2018-06-01T12:05:35Z</time>
      </trkpt>
      <trkpt lat="45.32623" lon="5.65826">
        <ele>556.74</ele>
        <time>2018-06-01T12:05:38Z</time>
      </trkpt>
      <trkpt lat="45.32612" lon="5.65814">
        <ele>556.26</ele>
        <time>2018-06-01T12:05:42Z</time>
      </trkpt>
      <trkpt lat="45.32572" lon="5.65786">
        <ele>554.34</ele>
        <time>2018-06-01T12:05:50Z</time>
      </trkpt>
      <trkpt lat="45.32559" lon="5.65782">
        <ele>552.41</ele>
        <time>2018-06-01T12:05:52Z</time>
      </trkpt>
      <trkpt lat="45.32551" lon="5.65781">
        <ele>551.93</ele>
        <time>2018-06-01T12:05:53Z</time>
      </trkpt>
      <trkpt lat="45.32542" lon="5.65781">
        <ele>550.97</ele>
        <time>2018-06-01T12:05:54Z</time>
      </trkpt>
      <trkpt lat="45.32517" lon="5.65783">
        <ele>548.09</ele>
        <time>2018-06-01T12:05:57Z</time>
      </trkpt>
      <trkpt lat="45.32481" lon="5.65787">
        <ele>544.72</ele>
        <time>2018-06-01T12:06:01Z</time>
      </trkpt>
      <trkpt lat="45.3245" lon="5.65787">
        <ele>540.88</ele>
        <time>2018-06-01T12:06:04Z</time>
      </trkpt>
      <trkpt lat="45.32415" lon="5.6578">
        <ele>536.55</ele>
        <time>2018-06-01T12:06:07Z</time>
      </trkpt>
      <trkpt lat="45.32356" lon="5.65768">
        <ele>533.19</ele>
        <time>2018-06-01T12:06:12Z</time>
      </trkpt>
      <trkpt lat="45.32278" lon="5.65781">
        <ele>534.15</ele>
        <time>2018-06-01T12:06:20Z</time>
      </trkpt>
      <trkpt lat="45.32165" lon="5.6581">
        <ele>532.23</ele>
        <time>2018-06-01T12:06:35Z</time>
      </trkpt>
      <trkpt lat="45.32147" lon="5.65809">
        <ele>533.67</ele>
        <time>2018-06-01T12:06:38Z</time>
      </trkpt>
      <trkpt lat="45.32056" lon="5.65807">
        <ele>534.63</ele>
        <time>2018-06-01T12:06:56Z</time>
      </trkpt>
      <trkpt lat="45.32001" lon="5.65806">
        <ele>533.67</ele>
        <time>2018-06-01T12:07:06Z</time>
      </trkpt>
      <trkpt lat="45.31967" lon="5.65808">
        <ele>534.15</ele>
        <time>2018-06-01T12:07:12Z</time>
      </trkpt>
      <trkpt lat="45.31945" lon="5.65808">
        <ele>535.11</ele>
        <time>2018-06-01T12:07:17Z</time>
      </trkpt>
      <trkpt lat="45.31852" lon="5.65812">
        <ele>537.03</ele>
        <time>2018-06-01T12:07:38Z</time>
      </trkpt>
      <trkpt lat="45.31848" lon="5.65812">
        <ele>537.03</ele>
        <time>2018-06-01T12:07:39Z</time>
      </trkpt>
      <trkpt lat="45.31839" lon="5.65811">
        <ele>537.51</ele>
        <time>2018-06-01T12:07:41Z</time>
      </trkpt>
      <trkpt lat="45.3183" lon="5.65809">
        <ele>537.51</ele>
        <time>2018-06-01T12:07:43Z</time>
      </trkpt>
      <trkpt lat="45.31782" lon="5.65811">
        <ele>539.44</ele>
        <time>2018-06-01T12:07:58Z</time>
      </trkpt>
      <trkpt lat="45.31722" lon="5.65788">
        <ele>536.55</ele>
        <time>2018-06-01T12:08:14Z</time>
      </trkpt>
      <trkpt lat="45.31711" lon="5.65784">
        <ele>536.07</ele>
        <time>2018-06-01T12:08:16Z</time>
      </trkpt>
      <trkpt lat="45.31687" lon="5.65768">
        <ele>535.59</ele>
        <time>2018-06-01T12:08:21Z</time>
      </trkpt>
      <trkpt lat="45.31632" lon="5.65727">
        <ele>535.59</ele>
        <time>2018-06-01T12:08:35Z</time>
      </trkpt>
      <trkpt lat="45.31585" lon="5.65707">
        <ele>531.75</ele>
        <time>2018-06-01T12:08:43Z</time>
      </trkpt>
      <trkpt lat="45.3156" lon="5.65697">
        <ele>529.34</ele>
        <time>2018-06-01T12:08:46Z</time>
      </trkpt>
      <trkpt lat="45.31538" lon="5.6568">
        <ele>527.9</ele>
        <time>2018-06-01T12:08:49Z</time>
      </trkpt>
      <trkpt lat="45.31531" lon="5.65673">
        <ele>527.42</ele>
        <time>2018-06-01T12:08:50Z</time>
      </trkpt>
      <trkpt lat="45.31498" lon="5.65658">
        <ele>525.5</ele>
        <time>2018-06-01T12:08:54Z</time>
      </trkpt>
      <trkpt lat="45.31454" lon="5.65649">
        <ele>522.13</ele>
        <time>2018-06-01T12:08:59Z</time>
      </trkpt>
      <trkpt lat="45.31436" lon="5.65645">
        <ele>520.69</ele>
        <time>2018-06-01T12:09:01Z</time>
      </trkpt>
      <trkpt lat="45.31359" lon="5.65641">
        <ele>524.06</ele>
        <time>2018-06-01T12:09:11Z</time>
      </trkpt>
      <trkpt lat="45.31344" lon="5.65643">
        <ele>525.02</ele>
        <time>2018-06-01T12:09:14Z</time>
      </trkpt>
      <trkpt lat="45.31321" lon="5.65645">
        <ele>524.06</ele>
        <time>2018-06-01T12:09:21Z</time>
      </trkpt>
      <trkpt lat="45.31304" lon="5.65639">
        <ele>521.17</ele>
        <time>2018-06-01T12:09:24Z</time>
      </trkpt>
      <trkpt lat="45.31296" lon="5.65637">
        <ele>520.21</ele>
        <time>2018-06-01T12:09:25Z</time>
      </trkpt>
      <trkpt lat="45.31265" lon="5.65618">
        <ele>515.88</ele>
        <time>2018-06-01T12:09:30Z</time>
      </trkpt>
      <trkpt lat="45.31254" lon="5.65608">
        <ele>513.48</ele>
        <time>2018-06-01T12:09:32Z</time>
      </trkpt>
      <trkpt lat="45.31234" lon="5.65592">
        <ele>509.64</ele>
        <time>2018-06-01T12:09:35Z</time>
      </trkpt>
      <trkpt lat="45.31214" lon="5.65573">
        <ele>505.79</ele>
        <time>2018-06-01T12:09:38Z</time>
      </trkpt>
      <trkpt lat="45.3119" lon="5.65551">
        <ele>502.43</ele>
        <time>2018-06-01T12:09:41Z</time>
      </trkpt>
      <trkpt lat="45.31183" lon="5.65544">
        <ele>501.95</ele>
        <time>2018-06-01T12:09:42Z</time>
      </trkpt>
      <trkpt lat="45.31168" lon="5.65529">
        <ele>500.98</ele>
        <time>2018-06-01T12:09:44Z</time>
      </trkpt>
      <trkpt lat="45.31141" lon="5.655">
        <ele>497.14</ele>
        <time>2018-06-01T12:09:48Z</time>
      </trkpt>
      <trkpt lat="45.31116" lon="5.65481">
        <ele>494.26</ele>
        <time>2018-06-01T12:09:51Z</time>
      </trkpt>
      <trkpt lat="45.31102" lon="5.65474">
        <ele>493.29</ele>
        <time>2018-06-01T12:09:53Z</time>
      </trkpt>
      <trkpt lat="45.31091" lon="5.6547">
        <ele>492.81</ele>
        <time>2018-06-01T12:09:55Z</time>
      </trkpt>
      <trkpt lat="45.31072" lon="5.65468">
        <ele>490.89</ele>
        <time>2018-06-01T12:10:00Z</time>
      </trkpt>
      <trkpt lat="45.31057" lon="5.65472">
        <ele>488.01</ele>
        <time>2018-06-01T12:10:07Z</time>
      </trkpt>
      <trkpt lat="45.31039" lon="5.65489">
        <ele>483.68</ele>
        <time>2018-06-01T12:10:17Z</time>
      </trkpt>
      <trkpt lat="45.31036" lon="5.65492">
        <ele>483.68</ele>
        <time>2018-06-01T12:10:18Z</time>
      </trkpt>
      <trkpt lat="45.31023" lon="5.65502">
        <ele>481.28</ele>
        <time>2018-06-01T12:10:22Z</time>
      </trkpt>
      <trkpt lat="45.31007" lon="5.65515">
        <ele>477.91</ele>
        <time>2018-06-01T12:10:26Z</time>
      </trkpt>
      <trkpt lat="45.31" lon="5.6552">
        <ele>476.47</ele>
        <time>2018-06-01T12:10:28Z</time>
      </trkpt>
      <trkpt lat="45.30992" lon="5.65524">
        <ele>474.07</ele>
        <time>2018-06-01T12:10:30Z</time>
      </trkpt>
      <trkpt lat="45.30976" lon="5.65531">
        <ele>470.22</ele>
        <time>2018-06-01T12:10:34Z</time>
      </trkpt>
      <trkpt lat="45.30951" lon="5.65535">
        <ele>466.86</ele>
        <time>2018-06-01T12:10:40Z</time>
      </trkpt>
      <trkpt lat="45.30934" lon="5.65543">
        <ele>463.49</ele>
        <time>2018-06-01T12:10:44Z</time>
      </trkpt>
      <trkpt lat="45.30926" lon="5.65551">
        <ele>462.05</ele>
        <time>2018-06-01T12:10:46Z</time>
      </trkpt>
      <trkpt lat="45.30917" lon="5.65553">
        <ele>460.13</ele>
        <time>2018-06-01T12:10:48Z</time>
      </trkpt>
      <trkpt lat="45.30907" lon="5.65551">
        <ele>458.21</ele>
        <time>2018-06-01T12:10:51Z</time>
      </trkpt>
      <trkpt lat="45.30903" lon="5.65549">
        <ele>457.72</ele>
        <time>2018-06-01T12:10:52Z</time>
      </trkpt>
      <trkpt lat="45.30896" lon="5.65536">
        <ele>455.32</ele>
        <time>2018-06-01T12:10:55Z</time>
      </trkpt>
      <trkpt lat="45.30894" lon="5.65518">
        <ele>451.96</ele>
        <time>2018-06-01T12:10:59Z</time>
      </trkpt>
      <trkpt lat="45.30896" lon="5.65503">
        <ele>449.55</ele>
        <time>2018-06-01T12:11:01Z</time>
      </trkpt>
      <trkpt lat="45.30906" lon="5.65473">
        <ele>444.75</ele>
        <time>2018-06-01T12:11:06Z</time>
      </trkpt>
      <trkpt lat="45.30909" lon="5.65429">
        <ele>438.02</ele>
        <time>2018-06-01T12:11:11Z</time>
      </trkpt>
      <trkpt lat="45.3091" lon="5.65421">
        <ele>438.02</ele>
        <time>2018-06-01T12:11:12Z</time>
      </trkpt>
      <trkpt lat="45.30912" lon="5.65404">
        <ele>438.02</ele>
        <time>2018-06-01T12:11:18Z</time>
      </trkpt>
      <trkpt lat="45.3091" lon="5.65404">
        <ele>438.02</ele>
        <time>2018-06-01T12:11:32Z</time>
      </trkpt>
      <trkpt lat="45.30907" lon="5.65402">
        <ele>438.5</ele>
        <time>2018-06-01T12:11:45Z</time>
      </trkpt>
      <trkpt lat="45.30903" lon="5.65375">
        <ele>435.13</ele>
        <time>2018-06-01T12:11:52Z</time>
      </trkpt>
      <trkpt lat="45.30911" lon="5.6535">
        <ele>431.77</ele>
        <time>2018-06-01T12:11:57Z</time>
      </trkpt>
      <trkpt lat="45.30915" lon="5.65344">
        <ele>430.33</ele>
        <time>2018-06-01T12:11:58Z</time>
      </trkpt>
      <trkpt lat="45.30922" lon="5.65312">
        <ele>426.96</ele>
        <time>2018-06-01T12:12:02Z</time>
      </trkpt>
      <trkpt lat="45.30925" lon="5.65275">
        <ele>422.64</ele>
        <time>2018-06-01T12:12:06Z</time>
      </trkpt>
      <trkpt lat="45.30931" lon="5.65246">
        <ele>421.19</ele>
        <time>2018-06-01T12:12:09Z</time>
      </trkpt>
      <trkpt lat="45.30935" lon="5.65228">
        <ele>419.27</ele>
        <time>2018-06-01T12:12:11Z</time>
      </trkpt>
      <trkpt lat="45.30942" lon="5.65197">
        <ele>416.39</ele>
        <time>2018-06-01T12:12:14Z</time>
      </trkpt>
      <trkpt lat="45.3094" lon="5.6516">
        <ele>413.98</ele>
        <time>2018-06-01T12:12:17Z</time>
      </trkpt>
      <trkpt lat="45.30933" lon="5.65141">
        <ele>413.5</ele>
        <time>2018-06-01T12:12:21Z</time>
      </trkpt>
      <trkpt lat="45.30933" lon="5.6511">
        <ele>412.06</ele>
        <time>2018-06-01T12:12:35Z</time>
      </trkpt>
      <trkpt lat="45.30918" lon="5.65104">
        <ele>411.1</ele>
        <time>2018-06-01T12:12:50Z</time>
      </trkpt>
      <trkpt lat="45.30914" lon="5.65102">
        <ele>410.62</ele>
        <time>2018-06-01T12:12:51Z</time>
      </trkpt>
      <trkpt lat="45.30893" lon="5.65092">
        <ele>409.18</ele>
        <time>2018-06-01T12:12:55Z</time>
      </trkpt>
      <trkpt lat="45.30888" lon="5.65088">
        <ele>409.66</ele>
        <time>2018-06-01T12:12:56Z</time>
      </trkpt>
      <trkpt lat="45.30883" lon="5.65084">
        <ele>409.66</ele>
        <time>2018-06-01T12:12:57Z</time>
      </trkpt>
      <trkpt lat="45.30879" lon="5.6508">
        <ele>409.18</ele>
        <time>2018-06-01T12:12:58Z</time>
      </trkpt>
      <trkpt lat="45.30875" lon="5.65076">
        <ele>409.18</ele>
        <time>2018-06-01T12:12:59Z</time>
      </trkpt>
      <trkpt lat="45.30868" lon="5.6507">
        <ele>408.22</ele>
        <time>2018-06-01T12:13:00Z</time>
      </trkpt>
      <trkpt lat="45.30862" lon="5.65064">
        <ele>407.26</ele>
        <time>2018-06-01T12:13:01Z</time>
      </trkpt>
      <trkpt lat="45.30844" lon="5.65041">
        <ele>403.89</ele>
        <time>2018-06-01T12:13:04Z</time>
      </trkpt>
      <trkpt lat="45.30831" lon="5.65013">
        <ele>401.97</ele>
        <time>2018-06-01T12:13:06Z</time>
      </trkpt>
      <trkpt lat="45.30826" lon="5.65">
        <ele>400.53</ele>
        <time>2018-06-01T12:13:07Z</time>
      </trkpt>
      <trkpt lat="45.30821" lon="5.64972">
        <ele>398.12</ele>
        <time>2018-06-01T12:13:09Z</time>
      </trkpt>
      <trkpt lat="45.30826" lon="5.64928">
        <ele>394.76</ele>
        <time>2018-06-01T12:13:12Z</time>
      </trkpt>
      <trkpt lat="45.30827" lon="5.64896">
        <ele>391.87</ele>
        <time>2018-06-01T12:13:14Z</time>
      </trkpt>
      <trkpt lat="45.30839" lon="5.64855">
        <ele>389.95</ele>
        <time>2018-06-01T12:13:17Z</time>
      </trkpt>
      <trkpt lat="45.30849" lon="5.64822">
        <ele>388.03</ele>
        <time>2018-06-01T12:13:20Z</time>
      </trkpt>
      <trkpt lat="45.30848" lon="5.64814">
        <ele>387.55</ele>
        <time>2018-06-01T12:13:21Z</time>
      </trkpt>
      <trkpt lat="45.30844" lon="5.64806">
        <ele>386.11</ele>
        <time>2018-06-01T12:13:22Z</time>
      </trkpt>
      <trkpt lat="45.30839" lon="5.64797">
        <ele>384.66</ele>
        <time>2018-06-01T12:13:23Z</time>
      </trkpt>
      <trkpt lat="45.30834" lon="5.64786">
        <ele>383.22</ele>
        <time>2018-06-01T12:13:24Z</time>
      </trkpt>
      <trkpt lat="45.3083" lon="5.64775">
        <ele>382.74</ele>
        <time>2018-06-01T12:13:25Z</time>
      </trkpt>
      <trkpt lat="45.3082" lon="5.64744">
        <ele>380.34</ele>
        <time>2018-06-01T12:13:28Z</time>
      </trkpt>
      <trkpt lat="45.30811" lon="5.64731">
        <ele>379.38</ele>
        <time>2018-06-01T12:13:29Z</time>
      </trkpt>
      <trkpt lat="45.30804" lon="5.64724">
        <ele>377.94</ele>
        <time>2018-06-01T12:13:30Z</time>
      </trkpt>
      <trkpt lat="45.30796" lon="5.64718">
        <ele>377.94</ele>
        <time>2018-06-01T12:13:31Z</time>
      </trkpt>
      <trkpt lat="45.30782" lon="5.64701">
        <ele>376.01</ele>
        <time>2018-06-01T12:13:33Z</time>
      </trkpt>
      <trkpt lat="45.30748" lon="5.64662">
        <ele>372.17</ele>
        <time>2018-06-01T12:13:37Z</time>
      </trkpt>
      <trkpt lat="45.30738" lon="5.6465">
        <ele>370.73</ele>
        <time>2018-06-01T12:13:38Z</time>
      </trkpt>
      <trkpt lat="45.3073" lon="5.64643">
        <ele>369.76</ele>
        <time>2018-06-01T12:13:39Z</time>
      </trkpt>
      <trkpt lat="45.30721" lon="5.64638">
        <ele>369.28</ele>
        <time>2018-06-01T12:13:40Z</time>
      </trkpt>
      <trkpt lat="45.30701" lon="5.64624">
        <ele>368.32</ele>
        <time>2018-06-01T12:13:42Z</time>
      </trkpt>
      <trkpt lat="45.30692" lon="5.64613">
        <ele>366.88</ele>
        <time>2018-06-01T12:13:43Z</time>
      </trkpt>
      <trkpt lat="45.30686" lon="5.64601">
        <ele>366.4</ele>
        <time>2018-06-01T12:13:44Z</time>
      </trkpt>
      <trkpt lat="45.30682" lon="5.64589">
        <ele>365.44</ele>
        <time>2018-06-01T12:13:45Z</time>
      </trkpt>
      <trkpt lat="45.30676" lon="5.64567">
        <ele>365.44</ele>
        <time>2018-06-01T12:13:47Z</time>
      </trkpt>
      <trkpt lat="45.30672" lon="5.6456">
        <ele>365.44</ele>
        <time>2018-06-01T12:13:48Z</time>
      </trkpt>
      <trkpt lat="45.30667" lon="5.64553">
        <ele>364.48</ele>
        <time>2018-06-01T12:13:49Z</time>
      </trkpt>
      <trkpt lat="45.30656" lon="5.64528">
        <ele>360.63</ele>
        <time>2018-06-01T12:13:53Z</time>
      </trkpt>
      <trkpt lat="45.30619" lon="5.64497">
        <ele>357.75</ele>
        <time>2018-06-01T12:13:57Z</time>
      </trkpt>
      <trkpt lat="45.30596" lon="5.64475">
        <ele>355.34</ele>
        <time>2018-06-01T12:14:00Z</time>
      </trkpt>
      <trkpt lat="45.30575" lon="5.64464">
        <ele>353.9</ele>
        <time>2018-06-01T12:14:02Z</time>
      </trkpt>
      <trkpt lat="45.30564" lon="5.64456">
        <ele>352.46</ele>
        <time>2018-06-01T12:14:03Z</time>
      </trkpt>
      <trkpt lat="45.30553" lon="5.6445">
        <ele>351.98</ele>
        <time>2018-06-01T12:14:04Z</time>
      </trkpt>
      <trkpt lat="45.30526" lon="5.64439">
        <ele>348.62</ele>
        <time>2018-06-01T12:14:06Z</time>
      </trkpt>
      <trkpt lat="45.30516" lon="5.64432">
        <ele>346.69</ele>
        <time>2018-06-01T12:14:07Z</time>
      </trkpt>
      <trkpt lat="45.30498" lon="5.64416">
        <ele>344.29</ele>
        <time>2018-06-01T12:14:09Z</time>
      </trkpt>
      <trkpt lat="45.30487" lon="5.64406">
        <ele>344.29</ele>
        <time>2018-06-01T12:14:10Z</time>
      </trkpt>
      <trkpt lat="45.30477" lon="5.64395">
        <ele>343.81</ele>
        <time>2018-06-01T12:14:11Z</time>
      </trkpt>
      <trkpt lat="45.30468" lon="5.64383">
        <ele>341.89</ele>
        <time>2018-06-01T12:14:12Z</time>
      </trkpt>
      <trkpt lat="45.30459" lon="5.64369">
        <ele>340.92</ele>
        <time>2018-06-01T12:14:13Z</time>
      </trkpt>
      <trkpt lat="45.30445" lon="5.64342">
        <ele>339</ele>
        <time>2018-06-01T12:14:15Z</time>
      </trkpt>
      <trkpt lat="45.30416" lon="5.64305">
        <ele>335.64</ele>
        <time>2018-06-01T12:14:18Z</time>
      </trkpt>
      <trkpt lat="45.30407" lon="5.64272">
        <ele>334.2</ele>
        <time>2018-06-01T12:14:21Z</time>
      </trkpt>
      <trkpt lat="45.30394" lon="5.64245">
        <ele>332.75</ele>
        <time>2018-06-01T12:14:25Z</time>
      </trkpt>
      <trkpt lat="45.30386" lon="5.64237">
        <ele>331.79</ele>
        <time>2018-06-01T12:14:26Z</time>
      </trkpt>
      <trkpt lat="45.30371" lon="5.6421">
        <ele>329.39</ele>
        <time>2018-06-01T12:14:30Z</time>
      </trkpt>
      <trkpt lat="45.30331" lon="5.64179">
        <ele>327.47</ele>
        <time>2018-06-01T12:14:40Z</time>
      </trkpt>
      <trkpt lat="45.30326" lon="5.64174">
        <ele>326.5</ele>
        <time>2018-06-01T12:14:41Z</time>
      </trkpt>
      <trkpt lat="45.30317" lon="5.64161">
        <ele>325.54</ele>
        <time>2018-06-01T12:14:43Z</time>
      </trkpt>
      <trkpt lat="45.30303" lon="5.64126">
        <ele>322.66</ele>
        <time>2018-06-01T12:14:48Z</time>
      </trkpt>
      <trkpt lat="45.30284" lon="5.64079">
        <ele>319.3</ele>
        <time>2018-06-01T12:14:53Z</time>
      </trkpt>
      <trkpt lat="45.30265" lon="5.64033">
        <ele>315.93</ele>
        <time>2018-06-01T12:14:57Z</time>
      </trkpt>
      <trkpt lat="45.30259" lon="5.64018">
        <ele>315.93</ele>
        <time>2018-06-01T12:14:58Z</time>
      </trkpt>
      <trkpt lat="45.30243" lon="5.63976">
        <ele>312.09</ele>
        <time>2018-06-01T12:15:02Z</time>
      </trkpt>
      <trkpt lat="45.30221" lon="5.63922">
        <ele>309.2</ele>
        <time>2018-06-01T12:15:06Z</time>
      </trkpt>
      <trkpt lat="45.30218" lon="5.63915">
        <ele>309.68</ele>
        <time>2018-06-01T12:15:07Z</time>
      </trkpt>
      <trkpt lat="45.30209" lon="5.63891">
        <ele>308.72</ele>
        <time>2018-06-01T12:15:09Z</time>
      </trkpt>
      <trkpt lat="45.30237" lon="5.63873">
        <ele>311.6</ele>
        <time>2018-06-01T12:15:18Z</time>
      </trkpt>
      <trkpt lat="45.30248" lon="5.63871">
        <ele>311.6</ele>
        <time>2018-06-01T12:15:26Z</time>
      </trkpt>
      <trkpt lat="45.30237" lon="5.63858">
        <ele>310.64</ele>
        <time>2018-06-01T12:15:33Z</time>
      </trkpt>
      <trkpt lat="45.30235" lon="5.63856">
        <ele>310.64</ele>
        <time>2018-06-01T12:15:34Z</time>
      </trkpt>
      <trkpt lat="45.30232" lon="5.63852">
        <ele>309.68</ele>
        <time>2018-06-01T12:15:35Z</time>
      </trkpt>
      <trkpt lat="45.30228" lon="5.6385">
        <ele>309.68</ele>
        <time>2018-06-01T12:15:36Z</time>
      </trkpt>
      <trkpt lat="45.30223" lon="5.63848">
        <ele>308.72</ele>
        <time>2018-06-01T12:15:37Z</time>
      </trkpt>
      <trkpt lat="45.30208" lon="5.63842">
        <ele>307.28</ele>
        <time>2018-06-01T12:15:40Z</time>
      </trkpt>
      <trkpt lat="45.30173" lon="5.63828">
        <ele>304.39</ele>
        <time>2018-06-01T12:15:45Z</time>
      </trkpt>
      <trkpt lat="45.30139" lon="5.63819">
        <ele>301.03</ele>
        <time>2018-06-01T12:15:49Z</time>
      </trkpt>
      <trkpt lat="45.30101" lon="5.63813">
        <ele>297.67</ele>
        <time>2018-06-01T12:15:53Z</time>
      </trkpt>
      <trkpt lat="45.30073" lon="5.63809">
        <ele>294.3</ele>
        <time>2018-06-01T12:15:56Z</time>
      </trkpt>
      <trkpt lat="45.30046" lon="5.63802">
        <ele>289.97</ele>
        <time>2018-06-01T12:15:59Z</time>
      </trkpt>
      <trkpt lat="45.30036" lon="5.638">
        <ele>289.97</ele>
        <time>2018-06-01T12:16:00Z</time>
      </trkpt>
      <trkpt lat="45.30003" lon="5.63799">
        <ele>289.01</ele>
        <time>2018-06-01T12:16:03Z</time>
      </trkpt>
      <trkpt lat="45.29993" lon="5.638">
        <ele>288.05</ele>
        <time>2018-06-01T12:16:04Z</time>
      </trkpt>
      <trkpt lat="45.29962" lon="5.63807">
        <ele>284.69</ele>
        <time>2018-06-01T12:16:07Z</time>
      </trkpt>
      <trkpt lat="45.29942" lon="5.63809">
        <ele>283.25</ele>
        <time>2018-06-01T12:16:09Z</time>
      </trkpt>
      <trkpt lat="45.29911" lon="5.63807">
        <ele>279.88</ele>
        <time>2018-06-01T12:16:12Z</time>
      </trkpt>
      <trkpt lat="45.299" lon="5.63804">
        <ele>279.88</ele>
        <time>2018-06-01T12:16:13Z</time>
      </trkpt>
      <trkpt lat="45.29881" lon="5.63794">
        <ele>278.92</ele>
        <time>2018-06-01T12:16:15Z</time>
      </trkpt>
      <trkpt lat="45.29873" lon="5.63786">
        <ele>278.92</ele>
        <time>2018-06-01T12:16:16Z</time>
      </trkpt>
      <trkpt lat="45.29866" lon="5.63776">
        <ele>277.48</ele>
        <time>2018-06-01T12:16:17Z</time>
      </trkpt>
      <trkpt lat="45.2986" lon="5.63765">
        <ele>276.04</ele>
        <time>2018-06-01T12:16:18Z</time>
      </trkpt>
      <trkpt lat="45.29855" lon="5.63755">
        <ele>276.04</ele>
        <time>2018-06-01T12:16:19Z</time>
      </trkpt>
      <trkpt lat="45.29812" lon="5.63661">
        <ele>273.15</ele>
        <time>2018-06-01T12:16:28Z</time>
      </trkpt>
      <trkpt lat="45.29809" lon="5.63649">
        <ele>273.63</ele>
        <time>2018-06-01T12:16:29Z</time>
      </trkpt>
      <trkpt lat="45.29807" lon="5.63641">
        <ele>272.67</ele>
        <time>2018-06-01T12:16:30Z</time>
      </trkpt>
      <trkpt lat="45.29805" lon="5.63622">
        <ele>271.23</ele>
        <time>2018-06-01T12:16:32Z</time>
      </trkpt>
      <trkpt lat="45.29805" lon="5.63613">
        <ele>270.75</ele>
        <time>2018-06-01T12:16:33Z</time>
      </trkpt>
      <trkpt lat="45.29804" lon="5.63603">
        <ele>271.23</ele>
        <time>2018-06-01T12:16:34Z</time>
      </trkpt>
      <trkpt lat="45.29803" lon="5.63591">
        <ele>270.27</ele>
        <time>2018-06-01T12:16:35Z</time>
      </trkpt>
      <trkpt lat="45.29804" lon="5.63581">
        <ele>270.27</ele>
        <time>2018-06-01T12:16:36Z</time>
      </trkpt>
      <trkpt lat="45.29805" lon="5.63571">
        <ele>269.79</ele>
        <time>2018-06-01T12:16:37Z</time>
      </trkpt>
      <trkpt lat="45.29806" lon="5.6356">
        <ele>269.31</ele>
        <time>2018-06-01T12:16:38Z</time>
      </trkpt>
      <trkpt lat="45.29814" lon="5.63505">
        <ele>265.94</ele>
        <time>2018-06-01T12:16:43Z</time>
      </trkpt>
      <trkpt lat="45.29815" lon="5.63494">
        <ele>264.98</ele>
        <time>2018-06-01T12:16:44Z</time>
      </trkpt>
      <trkpt lat="45.29822" lon="5.63432">
        <ele>261.14</ele>
        <time>2018-06-01T12:16:49Z</time>
      </trkpt>
      <trkpt lat="45.29824" lon="5.6342">
        <ele>261.14</ele>
        <time>2018-06-01T12:16:50Z</time>
      </trkpt>
      <trkpt lat="45.29829" lon="5.63384">
        <ele>257.77</ele>
        <time>2018-06-01T12:16:53Z</time>
      </trkpt>
      <trkpt lat="45.29837" lon="5.63336">
        <ele>255.37</ele>
        <time>2018-06-01T12:16:57Z</time>
      </trkpt>
      <trkpt lat="45.29852" lon="5.63269">
        <ele>252</ele>
        <time>2018-06-01T12:17:05Z</time>
      </trkpt>
      <trkpt lat="45.29855" lon="5.63262">
        <ele>251.52</ele>
        <time>2018-06-01T12:17:06Z</time>
      </trkpt>
      <trkpt lat="45.29859" lon="5.63255">
        <ele>251.52</ele>
        <time>2018-06-01T12:17:07Z</time>
      </trkpt>
      <trkpt lat="45.29871" lon="5.63231">
        <ele>249.6</ele>
        <time>2018-06-01T12:17:10Z</time>
      </trkpt>
      <trkpt lat="45.29871" lon="5.63221">
        <ele>249.12</ele>
        <time>2018-06-01T12:17:11Z</time>
      </trkpt>
      <trkpt lat="45.29871" lon="5.63204">
        <ele>249.12</ele>
        <time>2018-06-01T12:17:13Z</time>
      </trkpt>
      <trkpt lat="45.29872" lon="5.63142">
        <ele>245.75</ele>
        <time>2018-06-01T12:17:19Z</time>
      </trkpt>
      <trkpt lat="45.29873" lon="5.63131">
        <ele>245.75</ele>
        <time>2018-06-01T12:17:20Z</time>
      </trkpt>
      <trkpt lat="45.29874" lon="5.6312">
        <ele>244.79</ele>
        <time>2018-06-01T12:17:21Z</time>
      </trkpt>
      <trkpt lat="45.29873" lon="5.63109">
        <ele>244.31</ele>
        <time>2018-06-01T12:17:22Z</time>
      </trkpt>
      <trkpt lat="45.29873" lon="5.63097">
        <ele>243.83</ele>
        <time>2018-06-01T12:17:23Z</time>
      </trkpt>
      <trkpt lat="45.29874" lon="5.63086">
        <ele>242.39</ele>
        <time>2018-06-01T12:17:24Z</time>
      </trkpt>
      <trkpt lat="45.29875" lon="5.63074">
        <ele>242.39</ele>
        <time>2018-06-01T12:17:25Z</time>
      </trkpt>
      <trkpt lat="45.29875" lon="5.63063">
        <ele>242.39</ele>
        <time>2018-06-01T12:17:26Z</time>
      </trkpt>
      <trkpt lat="45.29876" lon="5.63051">
        <ele>241.43</ele>
        <time>2018-06-01T12:17:27Z</time>
      </trkpt>
      <trkpt lat="45.29877" lon="5.63039">
        <ele>240.47</ele>
        <time>2018-06-01T12:17:28Z</time>
      </trkpt>
      <trkpt lat="45.29877" lon="5.63028">
        <ele>239.51</ele>
        <time>2018-06-01T12:17:29Z</time>
      </trkpt>
      <trkpt lat="45.29878" lon="5.63017">
        <ele>239.51</ele>
        <time>2018-06-01T12:17:30Z</time>
      </trkpt>
      <trkpt lat="45.29879" lon="5.62935">
        <ele>237.1</ele>
        <time>2018-06-01T12:17:37Z</time>
      </trkpt>
      <trkpt lat="45.29877" lon="5.62877">
        <ele>235.18</ele>
        <time>2018-06-01T12:17:42Z</time>
      </trkpt>
      <trkpt lat="45.29876" lon="5.62856">
        <ele>234.22</ele>
        <time>2018-06-01T12:17:44Z</time>
      </trkpt>
      <trkpt lat="45.29877" lon="5.62847">
        <ele>234.22</ele>
        <time>2018-06-01T12:17:45Z</time>
      </trkpt>
      <trkpt lat="45.29879" lon="5.62838">
        <ele>234.22</ele>
        <time>2018-06-01T12:17:46Z</time>
      </trkpt>
      <trkpt lat="45.29883" lon="5.62833">
        <ele>233.74</ele>
        <time>2018-06-01T12:17:47Z</time>
      </trkpt>
      <trkpt lat="45.29888" lon="5.6283">
        <ele>233.74</ele>
        <time>2018-06-01T12:17:48Z</time>
      </trkpt>
      <trkpt lat="45.29894" lon="5.62829">
        <ele>232.78</ele>
        <time>2018-06-01T12:17:49Z</time>
      </trkpt>
      <trkpt lat="45.299" lon="5.62828">
        <ele>232.78</ele>
        <time>2018-06-01T12:17:50Z</time>
      </trkpt>
      <trkpt lat="45.29906" lon="5.62827">
        <ele>232.78</ele>
        <time>2018-06-01T12:17:51Z</time>
      </trkpt>
      <trkpt lat="45.29923" lon="5.62824">
        <ele>232.3</ele>
        <time>2018-06-01T12:17:54Z</time>
      </trkpt>
      <trkpt lat="45.29928" lon="5.62826">
        <ele>232.3</ele>
        <time>2018-06-01T12:17:55Z</time>
      </trkpt>
      <trkpt lat="45.29933" lon="5.62827">
        <ele>232.3</ele>
        <time>2018-06-01T12:17:56Z</time>
      </trkpt>
      <trkpt lat="45.29937" lon="5.6283">
        <ele>232.3</ele>
        <time>2018-06-01T12:17:57Z</time>
      </trkpt>
      <trkpt lat="45.29942" lon="5.62833">
        <ele>232.3</ele>
        <time>2018-06-01T12:17:58Z</time>
      </trkpt>
      <trkpt lat="45.29949" lon="5.62842">
        <ele>232.3</ele>
        <time>2018-06-01T12:18:00Z</time>
      </trkpt>
      <trkpt lat="45.29954" lon="5.62851">
        <ele>232.3</ele>
        <time>2018-06-01T12:18:02Z</time>
      </trkpt>
      <trkpt lat="45.2997" lon="5.62854">
        <ele>232.3</ele>
        <time>2018-06-01T12:18:07Z</time>
      </trkpt>
      <trkpt lat="45.29985" lon="5.62833">
        <ele>232.3</ele>
        <time>2018-06-01T12:18:14Z</time>
      </trkpt>
      <trkpt lat="45.29993" lon="5.62838">
        <ele>232.3</ele>
        <time>2018-06-01T12:18:18Z</time>
      </trkpt>
      <trkpt lat="45.29998" lon="5.62854">
        <ele>232.3</ele>
        <time>2018-06-01T12:18:22Z</time>
      </trkpt>
      <trkpt lat="45.3001" lon="5.6286">
        <ele>232.3</ele>
        <time>2018-06-01T12:18:28Z</time>
      </trkpt>
      <trkpt lat="45.30015" lon="5.62859">
        <ele>232.3</ele>
        <time>2018-06-01T12:18:40Z</time>
      </trkpt>
      <trkpt lat="45.30016" lon="5.62859">
        <ele>231.81</ele>
        <time>2018-06-01T12:18:49Z</time>
      </trkpt>
    </trkseg>
  </trk>
</gpx>